GFSNGP_prec_sndepth_087.txt.gz
Snowfall_Accumulation
0.0 0.0 0.0 0.0 0.0 0.0 0.0 0.0 0.4 0.0 0.0 0.0 0.0 0.0 0.0 0.0 0.0 0.0 0.0 0.0 0.0 0.0 0.0 0.0 0.0 0.0 0.0 0.0 0.0 0.0 0.0 0.0 0.0 0.0 0.0 0.0 0.0 0.0 0.0 0.0 0.0 0.0 0.0 0.0
0.0 0.0 0.0 0.0 0.0 0.0 0.0 0.0 0.0 0.0 0.0 0.0 0.0 0.0 0.0 0.0 0.0 0.0 0.0 0.0 0.0 0.0 0.0 0.0 0.0 0.0 0.0 0.0 0.0 0.0 0.0 0.0 0.0 0.0 0.0 0.0 0.0 0.0 0.0 0.0 0.0 0.0 0.0 0.0
0.4 0.0 0.0 0.1 0.0 0.0 0.0 0.0 0.0 0.0 0.0 0.0 0.0 0.0 0.0 0.0 0.0 0.0 0.1 0.1 0.1 0.0 0.1 0.0 0.0 0.0 0.0 0.0 0.0 0.0 0.0 0.0 0.0 0.0 0.0 0.0 0.0 0.0 0.0 0.0 0.0 0.0 0.0 0.0
0.6 0.1 1.1 0.0 0.0 0.0 0.0 0.0 0.0 0.0 0.0 0.0 0.0 0.0 0.0 0.0 0.0 0.2 0.9 0.4 0.3 0.2 0.2 0.2 0.1 0.0 0.0 0.0 0.0 0.0 0.0 0.0 0.0 0.0 0.0 0.0 0.0 0.0 0.0 0.0 0.0 0.0 0.0 0.0
1.2 0.7 0.0 0.0 0.0 0.0 0.0 0.0 0.0 0.0 0.0 0.0 0.0 0.0 0.3 0.2 0.4 0.9 1.6 3.3 0.8 0.6 0.2 0.3 0.2 0.6 0.3 0.5 0.3 0.1 0.1 0.1 0.0 0.0 0.0 0.0 0.0 0.0 0.0 0.0 0.0 0.0 0.0 0.0
0.5 0.3 1.1 0.1 0.0 0.0 0.0 0.1 0.0 0.0 0.0 0.0 0.0 0.2 2.4 0.7 0.4 0.8 1.4 2.0 2.9 1.4 0.6 0.5 0.2 0.2 0.5 0.5 1.0 0.9 0.7 0.3 0.1 0.1 0.0 0.1 0.1 0.0 0.0 0.0 0.0 0.0 0.0 0.0
0.6 0.7 0.2 0.0 0.0 0.0 0.3 0.1 0.0 0.0 0.0 0.0 0.0 0.1 2.1 1.8 2.0 1.8 1.8 1.4 0.9 1.8 3.3 1.2 0.3 0.3 0.1 0.2 0.3 0.6 0.3 0.3 0.1 0.0 0.1 0.2 0.1 0.0 0.0 0.0 0.0 0.0 0.0 0.1
0.4 0.7 0.6 0.0 0.0 0.0 0.0 0.0 0.0 0.0 0.0 0.0 1.3 2.6 4.3 4.0 2.2 1.3 0.8 0.4 0.3 0.4 0.6 1.2 1.4 0.8 0.2 0.1 0.2 0.1 0.1 0.0 0.1 0.1 0.0 0.0 0.0 0.0 0.0 0.0 0.0 0.0 0.2 0.4
0.0 0.4 0.0 0.0 0.0 0.0 0.0 0.0 0.0 0.0 0.1 0.5 2.0 4.2 5.2 4.5 2.6 0.9 0.7 0.3 0.0 0.0 0.0 0.1 0.1 0.2 0.8 0.7 0.1 0.0 0.0 0.0 0.0 0.0 0.0 0.0 0.0 0.0 0.0 0.0 0.1 0.3 0.9 1.7
0.0 0.0 0.0 0.0 0.0 0.0 0.0 0.0 0.0 0.0 0.2 0.6 4.9 6.1 5.5 2.8 1.1 0.7 0.4 0.1 0.1 0.1 0.1 0.1 0.0 0.0 0.0 0.0 0.1 0.3 0.3 0.2 0.1 0.0 0.0 0.0 0.0 0.0 0.1 0.4 0.9 1.1 1.6 2.3
0.0 0.0 0.0 0.0 0.0 0.0 0.1 0.2 0.2 0.5 1.4 2.0 2.2 1.7 1.3 0.6 0.3 0.1 0.0 0.0 0.0 0.0 0.0 0.1 0.0 0.1 0.1 0.0 0.0 0.0 0.0 0.1 0.3 0.5 0.3 0.7 1.3 0.9 1.1 2.3 1.9 3.0 4.2 3.9
1.5 0.3 0.2 0.2 0.1 0.2 0.6 0.9 0.6 0.5 1.3 1.7 1.0 1.3 0.8 1.0 0.9 0.7 0.4 0.2 0.0 0.0 0.0 0.2 0.2 0.3 0.5 0.3 0.3 0.6 0.7 0.9 1.3 1.2 1.6 1.7 1.8 2.6 nan nan nan nan nan 4.7
1.2 0.2 0.8 0.7 0.4 0.4 0.3 0.4 0.4 0.7 1.0 1.4 0.8 0.6 0.3 0.4 0.6 nan 0.3 0.1 0.1 0.2 0.2 0.2 0.5 1.1 1.4 2.4 2.6 4.1 4.4 3.8 3.5 3.0 4.7 5.0 4.5 6.0 6.8 8.7 nan nan nan nan
0.6 0.4 1.4 0.8 1.3 0.4 0.2 0.1 0.1 0.1 0.2 0.1 0.2 0.1 0.1 0.0 0.0 0.0 0.2 0.2 0.1 0.1 0.2 0.2 0.3 1.8 1.6 1.2 1.0 2.0 2.3 1.0 2.7 3.1 3.4 3.5 4.0 4.5 3.9 4.9 7.0 6.7 nan nan
1.1 0.5 0.5 0.5 0.4 0.2 0.1 0.0 0.0 0.0 0.0 0.0 0.0 0.0 0.1 0.2 0.4 0.7 0.5 0.2 0.2 0.1 0.2 0.2 0.3 1.5 1.5 1.8 2.4 3.2 2.7 4.0 4.4 5.0 4.8 3.9 3.1 3.3 3.2 4.2 4.8 5.1 4.1 2.3
0.6 0.6 0.5 0.6 0.2 0.1 0.1 0.1 0.3 0.4 1.2 2.6 2.3 1.5 1.1 0.7 0.6 0.5 0.3 0.2 0.4 1.5 1.6 5.2 2.5 4.4 3.4 2.2 2.5 2.9 3.6 1.9 2.4 3.3 4.2 3.7 3.5 3.4 3.1 3.5 4.0 4.4 4.2 4.8
0.1 0.2 0.1 0.1 0.1 0.1 0.2 0.2 0.2 0.3 0.3 0.3 0.4 0.2 0.2 0.2 0.2 0.5 1.2 1.6 3.2 4.7 4.7 5.6 7.5 6.2 5.2 4.3 2.6 3.3 3.8 3.2 1.1 3.1 2.8 2.7 3.2 3.7 3.0 3.9 4.6 3.8 6.1 9.3
0.2 0.4 0.2 0.2 0.3 0.4 0.6 0.3 0.2 0.3 0.5 0.7 2.2 3.3 4.7 4.4 2.8 4.1 5.5 6.1 7.6 8.7 7.9 8.1 6.7 5.4 4.9 4.0 2.6 1.8 2.3 2.2 2.2 2.6 2.2 3.4 2.5 2.1 2.9 3.1 3.1 4.1 5.3 13.9
0.1 0.2 0.3 0.3 0.3 0.3 0.6 1.2 1.7 2.2 4.7 5.0 6.5 8.0 9.3 11.5 10.9 11.6 10.8 12.9 13.1 7.1 9.1 5.8 1.5 2.1 2.1 1.8 0.7 1.4 2.2 4.0 2.2 1.7 1.9 5.4 5.2 2.7 5.0 6.3 5.4 7.8 5.2 6.0
0.8 0.5 0.6 1.0 0.7 2.0 2.6 5.4 5.7 6.2 7.9 7.4 11.6 12.8 10.2 12.9 12.5 12.2 8.1 7.2 6.5 7.1 3.6 2.7 1.7 1.2 1.1 0.7 1.7 1.1 2.8 3.9 2.5 4.2 6.2 3.3 9.2 14.2 9.9 7.7 7.5 9.4 15.2 11.7
3.9 4.0 4.8 5.5 8.7 8.2 9.2 9.6 7.6 7.8 7.9 9.8 10.4 12.8 11.9 8.9 8.7 10.2 6.1 2.7 4.1 2.6 1.3 0.6 1.1 1.3 0.6 0.5 0.6 6.1 5.3 8.3 9.0 6.0 9.2 12.2 15.0 10.9 12.3 13.6 12.4 15.7 18.6 14.9
5.7 5.9 8.0 7.1 7.1 6.4 8.0 6.8 5.0 6.3 6.1 8.5 12.6 14.3 10.3 4.2 5.7 5.1 6.9 2.7 2.2 2.3 1.8 1.9 1.4 3.3 2.7 4.9 1.8 7.9 6.1 4.8 6.2 6.1 6.9 11.0 12.4 19.1 19.1 16.7 17.6 19.5 19.3 19.5
5.2 5.0 5.4 6.3 5.8 5.8 3.8 3.7 6.1 5.2 9.3 8.1 9.3 5.6 3.9 2.6 2.3 3.7 4.0 0.7 1.2 3.8 1.3 3.8 4.6 5.3 5.6 9.8 9.4 10.7 10.9 10.9 10.9 10.4 11.0 17.1 17.0 27.1 15.8 15.0 17.2 17.8 23.7 16.4
4.5 3.6 3.5 3.7 2.3 1.0 1.2 1.3 0.6 1.2 7.1 2.4 4.1 7.3 2.3 5.4 7.7 1.3 1.9 5.7 5.8 16.6 10.4 10.1 8.8 6.1 6.6 12.1 12.7 15.6 14.5 15.5 16.8 19.3 9.9 9.2 24.9 21.3 18.0 25.1 16.0 18.3 20.3 17.3
2.0 1.2 1.3 1.0 0.4 1.2 0.3 0.3 0.5 0.4 0.4 0.5 0.4 0.4 0.5 1.3 7.8 4.1 6.4 6.6 6.6 5.5 8.8 7.9 6.4 7.2 16.8 18.0 18.0 18.8 18.7 16.7 19.6 21.8 15.6 22.3 20.6 28.7 26.5 21.7 25.2 25.6 26.5 22.6
0.5 1.0 0.8 0.3 0.6 0.8 0.9 0.9 2.0 1.6 2.0 6.1 4.1 12.4 9.0 4.4 4.1 4.6 6.6 6.6 4.8 6.1 6.4 16.2 20.0 19.7 18.6 12.8 16.8 17.6 13.7 11.1 14.7 15.9 17.8 17.7 17.1 14.7 18.4 16.8 22.7 27.6 34.0 36.6
1.2 0.5 1.2 1.0 1.2 1.5 1.6 1.2 3.4 5.1 7.1 10.9 9.4 8.6 5.4 9.4 11.6 7.1 7.5 11.4 12.5 12.6 15.8 19.1 16.7 11.4 10.3 16.1 14.6 13.0 12.1 13.4 11.0 10.1 21.2 24.5 23.5 31.0 27.7 27.4 31.3 32.7 30.0 26.5

GFSNGP_prec_sndepth_090.txt.gz
Snowfall_Accumulation
0.0 0.0 0.0 0.0 0.0 0.0 0.0 0.0 0.6 0.0 0.0 0.0 0.0 0.0 0.0 0.0 0.0 0.0 0.0 0.0 0.0 0.0 0.0 0.0 0.0 0.0 0.0 0.0 0.0 0.0 0.0 0.0 0.0 0.0 0.0 0.0 0.0 0.0 0.0 0.0 0.0 0.0 0.0 0.0
0.0 0.0 0.0 0.3 0.0 0.0 0.0 0.0 0.0 0.0 0.0 0.0 0.0 0.0 0.0 0.0 0.0 0.0 0.0 0.0 0.0 0.0 0.0 0.0 0.0 0.0 0.0 0.0 0.0 0.0 0.0 0.0 0.0 0.0 0.0 0.0 0.0 0.0 0.0 0.0 0.0 0.0 0.0 0.0
1.9 0.0 0.0 0.3 0.0 0.0 0.0 0.0 0.0 0.0 0.0 0.0 0.0 0.0 0.0 0.0 0.0 0.0 0.1 0.1 0.1 0.0 0.1 0.1 0.0 0.0 0.0 0.0 0.0 0.0 0.0 0.0 0.0 0.0 0.0 0.0 0.0 0.0 0.0 0.0 0.0 0.0 0.0 0.0
1.7 0.8 1.3 0.0 0.0 0.0 0.0 0.0 0.0 0.0 0.0 0.0 0.0 0.0 0.0 0.0 0.0 0.2 0.9 0.5 0.5 0.3 0.2 0.2 0.2 0.1 0.0 0.0 0.0 0.0 0.0 0.0 0.0 0.0 0.0 0.0 0.0 0.0 0.0 0.0 0.0 0.0 0.0 0.0
2.7 1.1 0.0 0.0 0.0 0.0 0.0 0.1 0.0 0.0 0.0 0.0 0.0 0.0 0.3 0.2 0.3 0.9 2.0 3.5 1.2 0.8 0.4 0.3 0.3 0.7 0.4 0.8 0.4 0.2 0.5 0.3 0.0 0.0 0.0 0.0 0.0 0.0 0.0 0.0 0.0 0.0 0.0 0.0
1.0 0.2 1.0 0.4 0.0 0.0 0.0 0.1 0.0 0.0 0.0 0.0 0.0 0.2 2.4 0.7 0.4 0.8 1.5 2.1 3.4 1.9 1.1 0.8 0.6 0.3 0.9 0.9 1.7 1.5 1.6 0.8 0.4 0.2 0.1 0.1 0.3 0.3 0.1 0.0 0.1 0.1 0.1 0.1
0.5 0.6 0.3 0.0 0.0 0.0 0.3 0.3 0.0 0.0 0.0 0.0 0.0 0.2 2.3 1.7 1.9 1.7 1.9 1.4 0.9 2.0 4.1 2.2 1.1 0.8 0.7 1.4 1.2 1.7 1.0 0.9 0.6 0.2 0.2 0.3 0.1 0.1 0.2 0.1 0.2 0.3 0.2 0.2
0.3 0.5 0.7 0.0 0.0 0.0 0.2 0.0 0.0 0.0 0.0 0.0 1.2 2.7 4.5 3.9 2.0 1.1 0.8 0.5 0.4 0.6 1.0 1.9 2.3 1.8 1.2 0.6 0.9 0.7 1.2 1.1 0.7 0.6 0.4 0.2 0.2 0.1 0.1 0.2 0.3 0.2 0.3 0.5
0.1 0.8 0.0 0.0 0.0 0.0 0.0 0.0 0.0 0.0 0.1 0.4 1.8 3.9 4.7 4.0 2.3 1.0 0.7 0.4 0.1 0.1 0.1 0.4 0.6 0.7 2.1 2.1 0.8 0.7 0.7 0.6 1.0 1.0 0.8 0.8 0.7 0.5 0.2 0.1 0.3 0.4 0.9 1.7
0.1 0.0 0.0 0.0 0.0 0.0 0.0 0.0 0.0 0.0 0.2 0.4 4.6 5.7 5.1 2.4 0.9 0.5 0.4 0.3 0.2 0.3 0.3 0.3 0.2 0.3 0.3 0.6 0.9 1.7 1.4 1.2 1.0 0.6 0.5 0.4 0.4 0.6 0.7 0.8 1.0 1.1 1.5 2.3
0.0 0.0 0.0 0.0 0.0 0.0 0.1 0.1 0.2 0.4 1.1 1.7 1.8 1.5 1.1 0.7 0.5 0.3 0.2 0.1 0.0 0.1 0.1 0.2 0.1 0.1 0.1 0.0 0.0 0.1 0.3 0.6 0.7 0.8 0.9 1.2 1.7 1.1 1.2 2.4 2.1 3.2 4.4 4.1
1.7 0.2 0.1 0.2 0.1 0.1 0.4 0.6 0.4 0.4 1.1 1.5 0.8 1.4 0.9 1.3 1.3 1.0 0.8 0.5 0.3 0.2 0.1 0.3 0.2 0.3 0.5 0.3 0.3 0.6 0.6 0.8 1.2 1.1 1.6 1.6 1.8 2.5 nan nan nan nan nan 4.7
1.1 0.2 0.6 0.5 0.3 0.2 0.2 0.3 0.3 0.5 0.8 1.4 0.8 0.7 0.5 0.8 0.9 nan 0.8 0.6 0.4 0.5 0.3 0.2 0.5 1.1 1.4 2.4 2.6 4.1 4.4 3.8 3.5 3.0 4.7 5.0 4.5 5.9 6.8 8.6 nan nan nan nan
0.4 0.3 1.0 0.6 1.2 0.3 0.1 0.1 0.1 0.1 0.1 0.2 0.2 0.1 0.1 0.1 0.0 0.0 0.2 0.1 0.1 0.1 0.2 0.2 0.2 1.7 1.5 1.1 0.9 1.9 2.2 0.9 2.6 3.0 3.3 3.4 3.9 4.3 3.7 4.8 7.0 6.6 nan nan
1.1 0.4 0.4 0.4 0.3 0.2 0.0 0.0 0.0 0.0 0.0 0.0 0.0 0.0 0.1 0.2 0.4 0.6 0.4 0.2 0.1 0.1 0.2 0.2 0.3 1.5 1.4 1.7 2.4 3.1 2.5 3.8 4.3 5.0 4.7 3.7 3.0 3.2 3.1 4.1 4.7 5.1 4.0 2.3
0.5 0.6 0.5 0.6 0.2 0.1 0.1 0.1 0.3 0.4 1.1 2.6 2.2 1.5 1.0 0.6 0.5 0.4 0.2 0.1 0.4 1.5 1.5 5.1 2.4 4.4 3.4 2.1 2.3 2.7 3.5 1.9 2.2 3.1 4.0 3.5 3.3 3.3 2.9 3.4 4.0 4.3 4.1 4.8
0.4 0.3 0.1 0.1 0.1 0.1 0.1 0.1 0.1 0.2 0.2 0.3 0.3 0.2 0.1 0.1 0.2 0.5 1.2 1.5 3.1 4.6 4.7 5.6 7.5 6.1 5.2 4.2 2.4 3.0 3.5 3.0 1.0 2.9 2.6 2.5 3.0 3.6 2.8 3.9 4.5 3.7 6.0 9.3
0.1 0.3 0.2 0.1 0.3 0.4 0.5 0.2 0.2 0.2 0.5 0.6 2.2 3.3 4.7 4.4 2.7 4.1 5.5 6.1 7.5 8.6 7.8 8.0 6.6 5.3 4.9 4.0 2.5 1.6 2.2 2.0 2.1 2.5 2.1 3.3 2.4 2.0 2.9 3.1 3.1 4.0 5.3 13.9
0.1 0.2 0.2 0.2 0.2 0.3 0.5 1.2 1.6 2.2 4.7 5.0 6.5 8.0 9.3 11.4 10.8 11.5 10.8 12.8 13.0 7.0 9.0 5.7 1.5 2.1 2.1 1.7 0.7 1.3 2.1 3.9 2.0 1.6 1.8 5.4 5.1 2.7 4.9 6.2 5.3 7.7 5.1 5.9
0.8 0.4 0.5 0.9 0.6 2.0 2.5 5.3 5.7 6.1 7.9 7.3 11.6 12.7 10.2 12.8 12.4 12.1 8.1 7.2 6.4 7.0 3.5 2.6 1.6 1.1 1.1 0.7 1.7 1.1 2.7 3.8 2.4 4.2 6.1 3.2 9.2 14.1 9.9 7.7 7.4 9.3 15.1 11.6
3.9 4.0 4.7 5.4 8.7 8.2 9.2 9.5 7.6 7.8 7.9 9.7 10.4 12.8 11.8 8.8 8.7 10.2 6.0 2.5 4.0 2.5 1.2 0.6 1.1 1.3 0.6 0.4 0.6 6.1 5.3 8.2 8.9 6.0 9.2 12.1 15.0 10.9 12.2 13.5 12.4 15.7 18.6 14.8
5.7 5.9 7.9 7.1 7.0 6.4 7.9 6.7 4.9 6.3 6.0 8.4 12.5 14.2 10.3 4.1 5.6 5.1 6.8 2.6 2.2 2.3 1.8 1.9 1.4 3.3 2.7 4.9 1.7 7.9 6.0 4.7 6.2 6.0 6.9 10.9 12.3 19.0 19.0 16.7 17.5 19.4 19.3 19.4
5.1 4.9 5.3 6.3 5.8 5.7 3.7 3.6 6.1 5.2 9.3 8.1 9.3 5.6 3.8 2.5 2.3 3.6 3.9 0.6 1.2 3.8 1.2 3.8 4.6 5.3 5.6 9.8 9.3 10.6 10.8 10.9 10.8 10.4 11.0 17.0 16.9 27.0 15.7 15.0 17.2 17.8 23.6 16.4
4.5 3.5 3.5 3.6 2.3 0.9 1.1 1.1 0.5 1.2 7.0 2.4 4.1 7.3 2.2 5.3 7.5 1.3 1.8 5.7 5.8 16.6 10.3 10.1 8.7 6.1 6.6 12.1 12.7 15.6 14.4 15.5 16.7 19.3 9.9 9.2 24.8 21.3 17.9 24.9 16.0 18.3 20.2 17.3
1.9 1.1 1.2 1.0 0.3 1.1 0.2 0.3 0.4 0.3 0.3 0.5 0.3 0.3 0.5 1.2 7.7 4.0 6.3 6.6 6.6 5.4 8.8 7.9 6.4 7.2 16.7 18.0 17.9 18.8 18.6 16.6 19.5 21.7 15.5 22.1 20.6 28.6 26.4 21.6 25.1 25.5 26.3 22.5
0.3 0.9 0.7 0.2 0.5 0.7 0.8 0.8 1.9 1.5 1.8 5.9 3.9 12.3 8.7 4.3 4.0 4.5 6.6 6.6 4.8 6.1 6.3 16.2 20.0 19.8 18.6 12.8 16.7 17.5 13.6 11.1 14.7 15.9 17.8 17.6 17.1 14.7 18.3 16.7 22.5 27.4 33.7 36.4
1.1 0.4 1.0 0.9 1.1 1.3 1.4 1.1 3.2 5.0 6.9 10.8 9.3 8.2 5.2 9.3 11.5 7.1 7.4 11.3 12.5 12.6 15.8 19.1 16.6 11.4 10.4 16.1 14.5 13.0 12.1 13.3 11.0 10.1 21.1 24.3 23.3 30.8 27.6 27.3 31.1 32.5 29.8 26.4

GFSNGP_prec_sndepth_096.txt.gz
Snowfall_Accumulation
0.0 0.0 0.0 0.0 0.1 0.2 0.1 0.2 2.3 1.1 1.1 0.7 0.1 0.0 0.0 0.0 0.0 0.0 0.0 0.0 0.0 0.0 0.0 0.0 0.0 0.0 0.0 0.0 0.0 0.0 0.0 0.0 0.0 0.0 0.0 0.0 0.0 0.0 0.0 0.0 0.0 0.0 0.0 0.0
0.0 0.0 0.0 0.2 0.0 0.1 0.1 0.2 0.2 0.1 0.3 0.0 0.0 0.0 0.0 0.0 0.0 0.0 0.0 0.0 0.0 0.0 0.0 0.1 0.0 0.0 0.0 0.0 0.0 0.0 0.0 0.0 0.0 0.0 0.0 0.0 0.0 0.0 0.0 0.0 0.0 0.0 0.0 0.0
1.9 0.0 0.0 0.6 0.2 0.0 0.0 0.3 0.2 2.0 0.5 0.0 0.0 0.0 0.0 0.0 0.0 0.0 0.0 0.1 0.1 0.0 0.1 0.2 0.1 0.1 0.1 0.0 0.0 0.0 0.0 0.0 0.0 0.0 0.0 0.0 0.0 0.0 0.0 0.0 0.0 0.0 0.0 0.0
1.7 0.8 1.9 0.2 0.0 0.0 0.4 0.7 0.3 0.2 0.1 0.0 0.0 0.0 0.0 0.0 0.1 0.2 0.9 0.5 0.5 0.5 0.4 0.7 0.5 0.2 0.1 0.0 0.1 0.1 0.2 0.0 0.0 0.0 0.0 0.0 0.0 0.1 0.0 0.0 0.0 0.0 0.0 0.0
3.9 2.7 1.2 1.4 0.7 1.9 1.1 0.7 0.0 0.0 0.0 0.0 0.0 0.0 0.3 0.2 0.3 1.1 2.2 3.7 1.3 0.9 0.9 0.9 1.1 1.0 0.6 0.7 0.7 0.4 0.5 0.8 0.9 0.1 0.4 0.5 0.8 0.4 0.0 0.1 0.0 0.1 0.0 0.0
2.5 3.3 6.8 2.6 0.2 0.0 0.0 0.3 0.0 0.0 0.0 0.0 0.0 0.2 2.6 0.8 0.4 1.0 1.6 2.3 3.7 2.2 1.6 1.2 1.7 1.1 1.7 1.8 2.1 2.5 2.3 1.5 0.8 0.4 1.2 0.9 0.7 0.8 0.2 0.2 0.3 0.2 0.2 0.2
2.2 3.3 2.5 0.1 0.0 0.0 0.3 0.5 0.0 0.0 0.0 0.0 0.1 0.3 2.6 1.9 2.1 1.8 2.0 1.5 0.9 2.4 4.5 2.8 1.8 1.9 2.1 3.1 3.1 3.3 2.4 2.3 2.1 1.2 0.9 0.8 1.0 1.0 0.8 1.1 0.9 0.9 0.8 1.1
2.6 3.9 2.5 0.0 0.0 0.1 0.3 0.0 0.0 0.0 0.0 0.0 1.3 2.8 4.7 4.2 2.2 1.2 1.0 0.7 0.5 0.8 1.3 2.4 2.8 2.5 2.7 1.6 2.9 2.6 2.7 2.3 2.7 2.9 2.5 2.4 1.7 1.6 1.8 1.7 1.6 1.3 1.4 1.4
1.0 2.1 0.4 0.0 0.1 0.0 0.0 0.0 0.1 0.0 0.1 0.3 1.8 4.0 4.9 4.3 2.5 1.2 0.9 0.5 0.2 0.2 0.3 0.7 1.1 1.2 2.7 3.6 2.4 2.7 2.6 2.7 2.7 2.6 3.0 3.6 3.7 3.6 2.9 2.1 2.5 3.0 3.6 4.2
0.2 0.7 0.1 0.0 0.0 0.0 0.0 0.1 0.1 0.0 0.1 0.4 4.8 5.9 5.2 2.5 1.1 0.7 0.6 0.5 0.2 0.3 0.6 0.8 0.7 0.9 0.9 1.2 1.7 2.8 2.7 2.7 2.5 2.5 2.8 2.6 3.0 3.8 3.9 4.2 4.9 4.6 4.5 4.8
0.4 0.2 0.1 0.0 0.0 0.1 0.2 0.2 0.2 0.4 1.1 1.7 1.9 1.6 1.3 0.9 0.7 0.6 0.4 0.2 0.2 0.3 0.4 0.5 0.3 0.4 0.5 0.5 0.4 0.5 0.6 1.1 1.4 1.6 2.0 2.5 3.2 3.0 3.2 4.7 4.7 5.8 7.3 6.6
2.1 0.4 0.2 0.4 0.2 0.2 0.5 0.7 0.4 0.4 1.2 1.7 0.9 1.6 1.0 1.5 1.6 1.2 1.1 0.9 0.6 0.5 0.4 0.6 0.5 0.6 0.6 0.3 0.3 0.6 0.6 0.8 1.2 1.1 1.6 1.6 1.8 2.6 nan nan nan nan nan 5.1
1.2 0.2 0.6 0.5 0.3 0.3 0.3 0.4 0.3 0.5 0.9 1.5 1.0 0.9 0.6 1.1 1.3 nan 1.0 0.9 0.7 0.8 0.4 0.2 0.5 1.1 1.4 2.4 2.6 4.1 4.4 3.8 3.5 3.0 4.7 5.0 4.4 5.9 6.7 8.5 nan nan nan nan
0.3 0.2 1.0 0.7 1.4 0.3 0.1 0.1 0.1 0.1 0.2 0.2 0.4 0.2 0.2 0.1 0.0 0.0 0.1 0.1 0.1 0.1 0.2 0.2 0.2 1.8 1.5 1.1 0.9 1.9 2.2 0.9 2.6 3.0 3.3 3.4 3.9 4.4 3.7 4.8 6.9 6.6 nan nan
1.0 0.3 0.4 0.3 0.3 0.3 0.0 0.0 0.0 0.1 0.1 0.2 0.1 0.2 0.1 0.2 0.4 0.6 0.4 0.2 0.1 0.1 0.2 0.2 0.3 1.5 1.4 1.7 2.4 3.1 2.5 3.8 4.3 5.0 4.7 3.7 3.0 3.2 3.1 4.1 4.7 5.1 4.0 2.2
0.5 0.5 0.5 0.6 0.3 0.2 0.1 0.1 0.3 0.6 1.2 2.7 2.3 1.5 1.0 0.5 0.5 0.4 0.2 0.1 0.4 1.5 1.5 5.1 2.4 4.3 3.4 2.1 2.3 2.7 3.4 1.9 2.2 3.1 4.0 3.5 3.3 3.3 2.9 3.4 4.0 4.3 4.1 4.8
0.5 0.7 0.3 0.3 0.2 0.2 0.2 0.2 0.2 0.4 0.4 0.4 0.4 0.2 0.1 0.1 0.2 0.4 1.2 1.5 3.1 4.6 4.7 5.6 7.5 6.1 5.2 4.2 2.4 3.0 3.5 3.0 1.0 2.9 2.6 2.5 3.0 3.6 2.8 3.8 4.5 3.7 6.0 9.3
0.2 0.4 0.3 0.3 0.6 0.6 0.9 0.5 0.3 0.2 0.5 0.7 2.2 3.3 4.7 4.3 2.7 4.1 5.5 6.1 7.5 8.6 7.8 8.0 6.6 5.3 4.9 4.0 2.5 1.6 2.2 2.0 2.0 2.5 2.1 3.3 2.4 2.0 2.9 3.1 3.1 4.0 5.2 13.8
0.1 0.2 0.3 0.2 0.2 0.3 0.5 1.2 1.6 2.2 4.7 5.0 6.5 8.0 9.3 11.4 10.8 11.5 10.7 12.9 13.0 7.0 9.0 5.7 1.5 2.1 2.0 1.7 0.6 1.3 2.1 3.9 2.0 1.6 1.8 5.4 5.1 2.7 4.9 6.2 5.3 7.8 5.1 5.9
0.8 0.4 0.5 0.9 0.6 2.0 2.5 5.4 5.7 6.1 7.9 7.3 11.5 12.7 10.2 12.8 12.4 12.1 8.1 7.2 6.4 7.0 3.5 2.6 1.6 1.1 1.0 0.6 1.7 1.1 2.7 3.8 2.4 4.2 6.1 3.2 9.2 14.1 9.9 7.7 7.4 9.3 15.1 11.6
3.9 4.0 4.7 5.5 8.7 8.2 9.2 9.5 7.6 7.8 7.9 9.7 10.3 12.8 11.8 8.8 8.7 10.2 6.1 2.7 4.0 2.5 1.2 0.6 1.1 1.3 0.6 0.4 0.6 6.1 5.3 8.2 8.9 6.0 9.2 12.1 15.0 10.9 12.2 13.5 12.4 15.7 18.5 14.8
5.7 5.9 8.0 7.1 7.0 6.4 7.9 6.7 4.9 6.3 6.0 8.4 12.5 14.2 10.3 4.1 5.6 5.1 6.8 2.6 2.2 2.3 1.8 1.9 1.4 3.3 2.7 4.9 1.7 7.9 6.0 4.7 6.2 6.0 6.9 10.9 12.3 19.0 19.1 16.9 17.6 19.4 19.3 19.4
5.2 4.9 5.3 6.3 5.8 5.7 3.7 3.6 6.1 5.2 9.3 8.1 9.3 5.6 3.8 2.5 2.2 3.6 4.0 0.6 1.2 3.8 1.3 3.8 4.6 5.3 5.6 9.8 9.3 10.6 10.8 10.9 10.8 10.4 11.0 17.0 16.9 26.9 15.7 14.9 17.1 17.7 23.5 16.4
4.5 3.5 3.5 3.6 2.3 0.9 1.1 1.1 0.5 1.2 7.0 2.4 4.1 7.3 2.2 5.3 7.6 1.3 1.8 5.7 5.8 16.5 10.3 10.1 8.7 6.1 6.6 12.1 12.8 15.6 14.4 15.5 16.7 19.4 9.9 9.2 24.7 21.4 17.9 24.8 15.9 18.2 20.1 17.2
1.9 1.1 1.2 1.0 0.3 1.1 0.2 0.2 0.4 0.3 0.3 0.5 0.3 0.3 0.5 1.2 7.7 4.0 6.3 6.6 6.6 5.4 8.8 7.9 6.4 7.2 16.7 17.9 17.9 18.7 18.6 16.6 19.5 21.6 15.5 22.1 20.5 28.4 26.3 21.5 24.9 25.4 26.2 22.4
0.3 0.9 0.7 0.2 0.5 0.7 0.8 0.8 1.9 1.5 1.8 5.9 4.0 12.3 8.7 4.3 4.0 4.5 6.6 6.6 4.8 6.1 6.3 16.2 20.0 19.8 18.6 12.8 16.7 17.5 13.6 11.0 14.7 15.9 17.9 17.7 17.1 14.7 18.3 16.7 22.5 27.3 33.5 36.2
1.1 0.4 1.0 0.9 1.1 1.3 1.4 1.1 3.2 5.0 6.9 10.8 9.3 8.2 5.4 9.5 11.5 7.1 7.4 11.3 12.5 12.6 15.8 19.1 16.8 11.6 10.6 16.1 14.5 13.0 12.1 13.3 11.0 10.1 21.0 24.2 23.2 30.6 27.4 27.1 30.9 32.3 29.7 26.2

GFSNGP_prec_sndepth_102.txt.gz
Snowfall_Accumulation
0.0 0.0 0.0 0.0 0.1 0.2 0.1 0.2 2.4 1.0 1.1 0.8 0.4 0.6 0.6 0.4 0.3 0.1 0.0 0.0 0.0 0.0 0.0 0.0 0.0 0.0 0.0 0.0 0.0 0.0 0.0 0.0 0.0 0.0 0.0 0.0 0.0 0.0 0.0 0.0 0.0 0.0 0.0 0.0
0.0 0.0 0.0 0.2 0.0 0.1 0.1 0.2 0.2 0.0 1.1 0.3 0.2 0.5 0.4 0.5 0.2 0.0 0.0 0.0 0.0 0.0 0.0 0.0 0.0 0.0 0.0 0.0 0.0 0.0 0.0 0.0 0.0 0.0 0.0 0.0 0.0 0.0 0.0 0.0 0.0 0.0 0.0 0.0
1.9 0.0 0.0 0.6 0.2 0.4 0.1 0.2 0.2 3.0 1.3 0.3 0.7 0.3 0.1 0.0 0.0 0.1 0.1 0.1 0.2 0.2 0.3 0.3 0.3 0.2 0.2 0.0 0.0 0.0 0.0 0.0 0.0 0.1 0.2 0.1 0.0 0.0 0.0 0.0 0.0 0.0 0.0 0.0
1.8 0.8 1.9 1.0 0.2 0.5 0.4 0.8 0.8 0.6 0.7 0.6 0.4 0.3 0.1 0.1 0.2 0.3 1.0 0.5 0.6 0.6 0.5 1.0 0.8 0.6 0.3 0.2 0.5 0.3 0.9 0.8 0.3 0.2 0.7 0.6 0.9 0.5 0.1 0.0 0.0 0.0 0.0 0.0
3.9 2.7 1.2 1.7 3.1 4.6 2.9 2.7 1.4 1.2 0.7 0.2 0.0 0.0 0.4 0.2 0.5 1.4 2.4 3.9 1.6 1.2 1.1 1.0 1.3 1.6 1.2 1.0 0.8 0.9 2.9 3.1 3.6 3.0 2.1 2.4 2.0 2.2 1.5 1.1 0.3 0.1 0.0 0.0
2.7 4.2 8.7 6.1 1.4 0.5 0.6 3.4 1.1 0.3 0.1 0.1 0.1 0.3 2.8 1.0 0.6 1.3 1.8 2.5 3.8 2.4 1.7 1.2 2.0 1.4 1.7 2.3 2.3 3.5 2.9 3.1 2.2 3.2 4.5 6.2 4.4 2.8 2.1 1.9 1.8 1.6 1.4 0.8
2.2 4.2 2.6 1.1 2.6 0.7 3.0 2.8 0.5 0.0 0.1 0.1 0.3 0.5 3.0 2.2 2.4 2.0 2.2 1.7 1.1 2.5 4.7 3.0 1.9 2.1 2.3 3.2 3.6 4.8 3.5 3.5 3.1 2.2 2.0 2.1 2.9 3.5 3.4 2.9 3.0 3.2 3.1 3.0
4.8 5.0 3.3 1.4 2.3 1.3 1.4 0.3 0.1 0.0 0.2 0.3 1.5 3.1 5.0 4.5 2.5 1.5 1.2 0.9 0.7 0.9 1.5 2.6 2.8 2.5 2.8 1.9 3.4 3.0 3.3 3.1 3.4 4.0 4.0 3.7 3.1 4.0 3.9 3.8 3.9 3.1 3.0 3.0
1.5 2.7 1.4 1.2 1.2 0.5 0.2 0.1 0.3 0.1 0.2 0.4 1.8 4.2 5.1 4.6 2.8 1.5 1.1 0.8 0.4 0.3 0.4 0.8 1.1 1.2 2.7 3.9 2.5 2.9 2.8 3.0 3.1 3.1 3.5 4.3 4.3 4.7 4.1 3.5 3.8 4.7 5.3 6.4
0.4 1.5 0.3 0.3 0.2 0.2 0.2 0.3 0.3 0.1 0.2 0.5 4.9 6.0 5.5 2.7 1.3 0.9 0.8 0.8 0.4 0.4 0.6 0.9 0.8 0.9 1.0 1.3 1.8 2.8 2.8 2.7 2.7 2.6 3.0 2.8 3.3 4.2 4.4 4.8 5.6 5.7 5.9 6.2
0.6 0.5 0.1 0.1 0.2 0.2 0.3 0.3 0.3 0.6 1.2 1.9 1.9 1.8 1.4 1.1 0.9 0.8 0.7 0.4 0.3 0.3 0.4 0.7 0.3 0.4 0.5 0.5 0.4 0.5 0.6 1.1 1.3 1.6 2.1 2.6 3.3 3.3 3.4 5.3 5.2 6.3 8.1 7.2
2.2 0.6 0.2 0.6 0.4 0.3 0.6 0.9 0.5 0.4 1.3 1.8 0.9 1.7 1.1 1.8 1.9 1.4 1.3 1.0 0.6 0.5 0.4 0.6 0.5 0.6 0.6 0.3 0.3 0.6 0.6 0.8 1.2 1.1 1.5 1.6 1.8 2.7 nan nan nan nan nan 5.2
1.2 0.3 0.6 0.6 0.4 0.3 0.4 0.6 0.4 0.6 0.9 1.6 1.3 0.9 0.7 1.2 1.4 nan 1.0 0.9 0.7 0.8 0.4 0.2 0.5 1.1 1.4 2.4 2.6 4.1 4.4 3.8 3.5 3.0 4.7 5.0 4.4 5.9 6.7 8.5 nan nan nan nan
0.3 0.2 1.1 0.9 1.6 0.4 0.2 0.3 0.2 0.3 0.3 0.3 0.4 0.3 0.2 0.2 0.0 0.0 0.1 0.1 0.1 0.1 0.1 0.2 0.2 1.7 1.5 1.0 0.9 1.9 2.2 0.9 2.6 3.0 3.3 3.4 3.9 4.4 3.7 4.8 6.9 6.6 nan nan
1.1 0.3 0.4 0.3 0.3 0.5 0.1 0.1 0.1 0.3 0.2 0.3 0.1 0.2 0.1 0.2 0.4 0.6 0.3 0.1 0.1 0.1 0.2 0.2 0.2 1.4 1.4 1.7 2.4 3.1 2.5 3.9 4.3 5.0 4.7 3.7 3.0 3.2 3.1 4.1 4.7 5.1 4.0 2.2
0.5 0.5 0.6 0.7 0.4 0.2 0.1 0.1 0.3 0.7 1.3 2.8 2.4 1.6 1.0 0.5 0.5 0.4 0.2 0.1 0.3 1.5 1.5 5.1 2.4 4.3 3.4 2.1 2.3 2.7 3.4 1.9 2.2 3.1 4.0 3.5 3.3 3.3 2.9 3.3 4.0 4.3 4.1 4.8
0.6 0.9 0.5 0.4 0.3 0.2 0.2 0.2 0.2 0.4 0.5 0.4 0.5 0.2 0.1 0.1 0.2 0.4 1.2 1.5 3.1 4.6 4.7 5.6 7.5 6.1 5.2 4.2 2.4 3.0 3.5 3.0 1.0 2.9 2.6 2.5 3.0 3.6 2.8 3.8 4.5 3.7 6.0 9.3
0.3 0.4 0.4 0.3 0.6 0.7 1.1 0.6 0.4 0.4 0.6 0.7 2.1 3.3 4.7 4.4 2.7 4.1 5.5 6.1 7.5 8.6 7.8 8.0 6.6 5.3 4.9 4.0 2.5 1.6 2.2 2.0 2.1 2.5 2.1 3.3 2.4 2.0 2.9 3.1 3.1 4.0 5.3 13.8
0.3 0.4 0.4 0.3 0.3 0.4 0.6 1.2 1.7 2.2 4.7 5.0 6.5 8.0 9.2 11.4 10.8 11.5 10.8 12.8 13.0 7.0 9.0 5.7 1.5 2.1 2.0 1.7 0.6 1.3 2.1 3.9 2.0 1.6 1.8 5.4 5.1 2.7 4.9 6.2 5.3 7.8 5.1 5.9
0.8 0.5 0.5 0.9 0.6 2.0 2.5 5.4 5.6 6.1 7.8 7.3 11.5 12.6 10.2 12.8 12.4 12.1 8.1 7.2 6.4 6.9 3.5 2.6 1.6 1.1 1.0 0.6 1.7 1.1 2.7 3.8 2.4 4.2 6.1 3.2 9.2 14.1 9.9 7.7 7.4 9.3 15.1 11.6
3.9 4.0 4.8 5.5 8.7 8.2 9.1 9.5 7.6 7.8 7.9 9.7 10.3 12.7 11.8 8.8 8.7 10.2 6.1 2.7 4.0 2.5 1.2 0.6 1.1 1.3 0.6 0.4 0.6 6.1 5.3 8.2 9.0 6.0 9.2 12.2 15.0 11.0 12.3 13.6 12.5 15.8 18.6 14.8
5.7 5.9 8.0 7.1 7.0 6.4 7.9 6.7 4.9 6.3 6.0 8.4 12.5 14.2 10.3 4.1 5.6 5.1 6.9 2.6 2.2 2.3 1.8 1.8 1.4 3.3 2.7 4.9 1.7 7.9 6.0 4.7 6.2 6.0 6.9 10.9 12.3 18.9 19.1 17.0 17.8 19.6 19.4 19.4
5.2 4.9 5.3 6.3 5.8 5.7 3.7 3.6 6.1 5.2 9.3 8.1 9.3 5.6 3.9 2.5 2.2 3.6 4.0 0.6 1.2 3.8 1.3 3.8 4.6 5.3 5.6 9.8 9.4 10.6 10.8 11.0 10.8 10.4 11.0 17.0 16.9 26.8 15.7 14.9 17.1 17.7 23.5 16.4
4.5 3.5 3.5 3.6 2.3 0.9 1.1 1.1 0.5 1.2 7.0 2.4 4.1 7.3 2.2 5.3 7.6 1.3 1.8 5.7 5.8 16.5 10.3 10.1 8.7 6.1 6.6 12.1 12.8 15.6 14.4 15.5 16.7 19.4 9.9 9.2 24.6 21.3 17.9 24.8 15.9 18.2 20.1 17.2
1.9 1.1 1.2 1.0 0.3 1.1 0.2 0.2 0.4 0.3 0.3 0.5 0.3 0.3 0.5 1.2 7.7 4.0 6.3 6.6 6.6 5.4 8.8 7.9 6.4 7.2 16.7 17.9 17.9 18.7 18.6 16.6 19.4 21.5 15.5 22.0 20.4 28.3 26.2 21.4 24.9 25.3 26.1 22.3
0.3 0.9 0.7 0.2 0.5 0.7 0.8 0.7 1.9 1.5 1.8 5.9 4.0 12.3 8.7 4.3 4.0 4.5 6.6 6.6 4.8 6.1 6.3 16.2 19.9 19.8 18.5 12.8 16.7 17.5 13.7 11.1 14.7 15.9 18.0 17.7 17.0 14.7 18.2 16.7 22.4 27.2 33.3 35.9
1.1 0.4 1.0 0.9 1.1 1.3 1.4 1.1 3.2 5.0 6.9 10.8 9.3 8.2 5.4 9.6 11.6 7.2 7.5 11.5 12.7 12.8 15.9 19.1 16.9 11.6 10.7 16.3 14.7 13.2 12.4 13.6 11.0 10.2 21.0 24.2 23.2 30.5 27.4 27.0 30.7 32.2 29.5 26.1

GFSNGP_prec_sndepth_105.txt.gz
Snowfall_Accumulation
0.0 0.0 0.0 0.0 0.1 0.2 0.0 0.2 2.3 1.0 1.1 0.7 0.3 0.4 0.5 0.4 0.3 0.2 0.1 0.0 0.0 0.0 0.0 0.0 0.0 0.0 0.0 0.0 0.0 0.0 0.0 0.0 0.0 0.0 0.0 0.0 0.0 0.0 0.0 0.0 0.0 0.0 0.0 0.0
0.0 0.0 0.0 0.2 0.0 0.1 0.1 0.2 0.1 0.0 1.0 0.2 0.2 0.4 0.3 0.5 0.4 0.4 0.3 0.0 0.0 0.0 0.0 0.1 0.0 0.0 0.0 0.1 0.0 0.0 0.0 0.0 0.0 0.0 0.0 0.0 0.0 0.0 0.0 0.0 0.0 0.0 0.0 0.0
1.9 0.0 0.0 0.6 0.2 0.3 0.1 0.2 0.1 2.9 1.3 0.3 0.7 0.4 0.3 0.2 0.1 0.1 0.1 0.2 0.2 0.2 0.4 0.4 0.4 0.5 0.3 0.3 0.0 0.0 0.0 0.0 0.0 0.0 0.2 0.1 0.1 0.4 0.1 0.0 0.0 0.0 0.0 0.0
1.7 0.8 1.9 1.0 0.2 0.5 0.7 0.8 0.8 0.5 0.6 0.7 0.6 0.6 0.5 0.3 0.3 0.4 1.1 0.6 0.6 0.6 0.5 1.2 0.9 0.7 0.6 0.7 0.6 0.3 0.9 0.7 0.3 0.2 0.7 0.7 1.1 1.3 0.8 0.6 0.4 0.1 0.0 0.0
3.9 2.7 1.1 1.7 3.2 5.1 3.4 2.9 1.5 1.5 1.3 0.7 0.6 0.5 0.7 0.2 0.5 1.6 2.6 3.9 1.6 1.3 1.4 1.2 1.4 1.7 1.3 1.1 0.8 0.9 3.1 3.3 4.1 3.1 2.8 2.7 3.7 5.3 3.1 2.0 1.2 0.2 0.1 0.0
2.7 4.2 8.7 6.3 1.4 0.4 0.8 3.8 1.6 0.9 0.8 1.0 0.8 0.7 2.9 1.0 0.7 1.4 2.0 2.6 3.9 2.6 2.0 1.2 2.1 1.4 1.7 2.2 2.3 3.6 3.1 3.9 3.1 4.1 5.7 7.7 5.6 4.8 5.3 3.5 2.1 2.3 1.5 0.9
2.2 4.2 2.6 1.2 2.5 0.9 3.9 4.3 1.7 0.8 0.7 0.7 0.6 0.5 3.1 2.3 2.5 2.2 2.4 1.8 1.2 2.7 4.8 3.2 1.9 2.0 2.2 3.2 3.8 5.1 3.7 3.7 3.2 2.3 2.6 3.4 4.4 5.3 5.1 4.3 4.3 3.5 3.3 3.4
4.9 5.2 3.4 1.6 2.2 1.6 2.5 1.5 0.7 0.4 0.7 0.5 1.6 3.2 5.1 4.7 2.8 1.6 1.4 1.0 0.8 1.0 1.6 2.8 2.9 2.4 2.8 2.0 3.7 3.2 3.3 3.1 3.4 4.0 4.1 4.0 3.5 4.8 5.4 5.6 5.3 4.2 3.9 3.7
1.8 3.0 1.8 1.8 2.3 1.2 0.7 0.5 0.6 0.3 0.5 0.5 1.9 4.3 5.3 4.8 3.0 1.7 1.3 1.0 0.5 0.4 0.4 0.8 1.1 1.2 2.7 3.9 2.4 2.9 2.7 3.0 3.1 3.1 3.5 4.3 4.3 4.7 4.2 3.8 4.1 5.6 6.2 7.6
0.7 1.8 0.7 0.8 0.6 0.6 0.3 0.5 0.5 0.3 0.4 0.7 5.1 6.3 5.7 2.9 1.5 1.0 1.0 0.9 0.4 0.4 0.6 0.8 0.7 0.9 1.0 1.3 1.7 2.8 2.8 2.7 2.6 2.5 2.9 2.7 3.2 4.1 4.3 4.8 5.6 5.7 6.0 6.3
0.9 0.9 0.2 0.1 0.3 0.3 0.5 0.4 0.5 0.9 1.4 2.1 2.0 2.0 1.5 1.2 1.1 0.9 0.8 0.5 0.3 0.3 0.4 0.6 0.3 0.4 0.5 0.5 0.3 0.4 0.5 1.1 1.3 1.5 2.0 2.6 3.4 3.3 3.4 5.3 5.2 6.2 8.1 7.2
2.2 0.6 0.2 0.6 0.5 0.3 0.6 1.0 0.7 0.5 1.5 2.0 0.9 1.7 1.1 1.9 2.0 1.5 1.2 0.9 0.6 0.5 0.4 0.6 0.4 0.6 0.5 0.3 0.2 0.6 0.6 0.8 1.2 1.0 1.5 1.6 1.8 2.7 nan nan nan nan nan 5.2
1.2 0.3 0.6 0.6 0.4 0.3 0.4 0.6 0.4 0.6 0.9 1.7 1.4 1.0 0.7 1.3 1.5 nan 1.0 0.8 0.7 0.7 0.4 0.2 0.5 1.1 1.4 2.4 2.5 4.1 4.4 3.8 3.5 3.0 4.7 4.9 4.4 5.9 6.7 8.5 nan nan nan nan
0.3 0.2 1.1 1.0 1.7 0.4 0.2 0.3 0.2 0.3 0.4 0.3 0.5 0.3 0.2 0.2 0.0 0.0 0.1 0.1 0.1 0.1 0.1 0.2 0.2 1.7 1.5 1.0 0.8 1.9 2.2 0.9 2.6 3.0 3.3 3.3 3.8 4.3 3.7 4.8 6.9 6.5 nan nan
1.1 0.3 0.4 0.3 0.3 0.5 0.1 0.1 0.2 0.3 0.2 0.3 0.1 0.2 0.1 0.2 0.4 0.6 0.3 0.1 0.1 0.1 0.2 0.2 0.2 1.4 1.4 1.7 2.4 3.1 2.4 3.8 4.2 5.0 4.7 3.7 2.9 3.1 3.1 4.1 4.7 5.0 4.0 2.2
0.5 0.5 0.6 0.7 0.4 0.3 0.2 0.2 0.4 0.8 1.4 2.9 2.4 1.6 1.0 0.5 0.5 0.4 0.2 0.1 0.3 1.4 1.5 5.1 2.4 4.3 3.3 2.1 2.3 2.7 3.4 1.8 2.2 3.1 3.9 3.5 3.3 3.2 2.9 3.3 3.9 4.3 4.0 4.7
0.6 0.9 0.5 0.4 0.3 0.3 0.2 0.2 0.2 0.5 0.6 0.5 0.5 0.2 0.1 0.1 0.2 0.4 1.1 1.5 3.1 4.6 4.7 5.6 7.5 6.1 5.2 4.2 2.4 3.0 3.5 2.9 1.0 2.8 2.6 2.5 3.0 3.6 2.8 3.8 4.5 3.7 6.0 9.2
0.3 0.4 0.3 0.3 0.6 0.7 1.2 0.7 0.5 0.4 0.7 0.8 2.1 3.3 4.7 4.3 2.7 4.1 5.5 6.1 7.5 8.6 7.7 8.0 6.6 5.3 4.9 4.0 2.5 1.6 2.1 2.0 2.0 2.5 2.1 3.3 2.4 1.9 2.8 3.0 3.1 4.0 5.2 13.8
0.4 0.5 0.4 0.3 0.3 0.4 0.6 1.2 1.7 2.2 4.7 5.0 6.4 8.0 9.2 11.4 10.8 11.5 10.7 12.8 13.0 7.0 8.9 5.7 1.5 2.1 2.0 1.7 0.6 1.3 2.0 3.9 2.0 1.6 1.8 5.3 5.1 2.6 4.9 6.2 5.3 7.7 5.1 5.9
0.9 0.5 0.6 0.9 0.6 2.0 2.5 5.4 5.6 6.1 7.8 7.3 11.5 12.6 10.1 12.8 12.4 12.1 8.1 7.1 6.4 6.9 3.5 2.6 1.6 1.1 1.0 0.6 1.7 1.1 2.7 3.8 2.4 4.2 6.1 3.2 9.1 14.1 9.8 7.8 7.5 9.4 15.1 11.6
3.9 4.0 4.8 5.5 8.7 8.2 9.1 9.5 7.6 7.8 7.9 9.7 10.3 12.7 11.8 8.8 8.7 10.2 6.1 2.7 4.0 2.5 1.2 0.6 1.1 1.3 0.6 0.4 0.6 6.1 5.3 8.2 8.9 6.0 9.2 12.1 15.0 10.9 12.2 13.6 12.5 15.8 18.6 14.8
5.7 5.9 8.0 7.1 7.0 6.4 7.9 6.7 4.9 6.3 6.0 8.4 12.5 14.2 10.3 4.1 5.6 5.1 6.9 2.6 2.2 2.3 1.8 1.8 1.4 3.3 2.7 4.9 1.7 7.9 6.0 4.7 6.2 6.0 6.9 10.9 12.3 18.9 19.1 16.9 17.7 19.6 19.4 19.5
5.2 4.9 5.3 6.3 5.8 5.7 3.7 3.6 6.1 5.2 9.3 8.1 9.3 5.6 3.8 2.5 2.2 3.6 4.0 0.6 1.2 3.8 1.3 3.8 4.6 5.3 5.6 9.8 9.3 10.6 10.8 10.9 10.8 10.3 11.0 17.0 16.8 26.7 15.6 14.9 17.0 17.6 23.4 16.4
4.5 3.5 3.5 3.6 2.3 0.9 1.1 1.1 0.5 1.1 7.0 2.4 4.1 7.3 2.2 5.3 7.6 1.3 1.8 5.7 5.8 16.5 10.3 10.0 8.7 6.1 6.6 12.0 12.8 15.5 14.4 15.4 16.6 19.3 9.9 9.2 24.6 21.3 17.9 24.7 15.9 18.1 20.0 17.2
1.9 1.1 1.2 0.9 0.3 1.1 0.2 0.2 0.4 0.3 0.3 0.5 0.3 0.3 0.4 1.2 7.6 4.0 6.3 6.6 6.6 5.4 8.8 7.9 6.4 7.2 16.7 17.9 17.9 18.7 18.6 16.6 19.5 21.6 15.5 22.0 20.4 28.3 26.1 21.3 24.8 25.1 26.0 22.3
0.3 0.9 0.6 0.2 0.5 0.7 0.8 0.7 1.9 1.5 1.8 5.9 4.0 12.3 8.7 4.3 4.0 4.5 6.7 6.7 4.9 6.1 6.3 16.2 19.9 19.8 18.5 12.8 16.7 17.5 13.6 11.1 14.7 15.9 18.0 17.7 17.1 14.8 18.3 16.8 22.4 27.1 33.2 35.7
1.0 0.4 1.0 0.9 1.0 1.3 1.4 1.1 3.2 5.0 6.9 10.8 9.3 8.2 5.4 9.5 11.6 7.2 7.5 11.5 12.7 12.8 15.9 19.0 16.9 11.6 10.7 16.3 14.7 13.2 12.4 13.5 11.0 10.3 21.1 24.3 23.3 30.5 27.3 27.0 30.8 32.2 29.7 26.2

GFSNGP_prec_sndepth_108.txt.gz
Snowfall_Accumulation
0.0 0.0 0.0 0.0 0.0 0.1 0.0 0.1 1.9 0.7 0.9 0.4 0.1 0.2 0.2 0.2 0.2 0.1 0.1 0.0 0.0 0.0 0.0 0.0 0.0 0.0 0.0 0.0 0.0 0.0 0.1 0.0 0.0 0.0 0.0 0.0 0.0 0.0 0.0 0.0 0.0 0.0 0.0 0.0
0.0 0.0 0.0 0.1 0.0 0.0 0.0 0.1 0.1 0.0 0.7 0.1 0.1 0.2 0.2 0.3 0.2 0.3 0.3 0.1 0.0 0.0 0.0 0.0 0.1 0.1 0.2 0.3 0.1 0.0 0.0 0.7 1.1 0.0 0.0 0.0 0.0 0.0 0.0 0.0 0.0 0.0 0.0 0.0
1.6 0.0 0.0 0.5 0.1 0.2 0.0 0.1 0.1 2.7 0.7 0.1 0.4 0.2 0.2 0.2 0.1 0.2 0.3 0.3 0.3 0.2 0.3 0.3 0.4 0.5 0.6 0.5 0.2 0.1 0.1 0.0 0.0 0.4 0.6 0.1 0.1 0.3 0.3 0.3 0.0 0.0 0.0 0.0
1.5 0.6 1.7 0.6 0.1 0.2 0.4 0.5 0.5 0.3 0.3 0.3 0.4 0.4 0.3 0.3 0.4 0.6 1.0 0.6 0.7 0.6 0.4 1.0 0.9 0.6 0.5 0.7 0.9 0.6 1.1 0.8 0.3 0.2 0.6 0.5 1.0 1.5 1.9 2.1 2.8 2.2 1.0 0.5
3.6 2.3 0.7 1.0 2.5 4.3 2.9 2.2 1.1 1.0 1.2 0.6 0.5 0.3 0.9 0.5 0.7 1.6 2.5 3.9 1.5 1.2 1.2 1.1 1.4 1.7 1.3 1.0 0.8 0.9 3.1 3.2 4.2 3.1 3.3 2.9 4.3 7.9 4.9 3.6 3.1 1.8 1.8 0.9
2.3 3.3 8.2 5.2 0.8 0.2 0.8 3.5 1.1 0.6 0.6 0.9 0.9 1.3 3.6 1.2 0.7 1.5 1.9 2.4 4.0 2.5 2.0 1.0 2.0 1.2 1.7 2.2 2.2 3.6 3.2 3.9 2.9 4.0 5.9 7.9 6.2 5.3 6.8 5.6 4.8 4.3 3.0 1.9
2.1 3.9 2.0 0.7 1.8 0.6 4.1 4.2 1.4 0.9 0.8 1.0 1.1 0.8 3.3 2.2 2.4 2.1 2.3 1.6 0.9 2.7 4.8 3.4 1.8 1.8 2.2 3.2 4.1 5.3 3.7 3.6 3.1 2.0 2.6 3.8 4.7 6.1 6.3 6.1 6.0 5.2 5.0 4.4
4.7 4.9 3.0 0.9 1.4 1.4 2.4 1.5 0.9 0.7 1.1 0.9 1.8 3.4 5.3 4.7 2.8 1.6 1.3 0.8 0.6 0.7 1.4 2.7 2.8 2.4 2.8 1.9 3.8 3.0 3.1 2.9 3.2 3.7 3.6 3.6 3.3 4.8 5.7 6.7 6.8 6.3 5.8 4.9
1.5 2.9 1.4 1.4 2.0 1.1 0.8 0.5 0.7 0.5 0.7 0.8 2.4 4.7 5.6 5.1 3.1 1.7 1.2 0.8 0.3 0.2 0.2 0.5 0.8 0.9 2.7 3.9 2.2 2.7 2.4 2.7 2.9 2.7 2.9 3.5 3.6 4.1 3.7 3.4 4.1 7.0 7.7 9.3
0.5 1.5 0.7 0.7 0.6 0.7 0.5 0.7 0.6 0.5 0.6 1.0 5.5 6.6 6.0 3.1 1.6 1.0 0.8 0.6 0.2 0.2 0.4 0.5 0.4 0.5 0.6 0.9 1.4 2.5 2.3 2.2 2.1 2.1 2.6 2.2 2.6 3.4 3.8 4.3 5.2 5.4 5.9 6.5
0.9 0.8 0.2 0.3 0.6 0.5 0.6 0.6 0.7 1.1 1.6 2.2 2.3 2.2 1.6 1.3 1.0 0.8 0.5 0.3 0.2 0.2 0.2 0.4 0.1 0.2 0.3 0.2 0.2 0.2 0.3 0.6 0.7 1.0 1.4 2.2 3.4 3.1 3.1 5.3 4.9 6.0 8.0 7.1
2.3 0.7 0.2 0.5 0.5 0.3 0.6 1.0 0.7 0.6 1.6 2.1 0.9 1.7 1.0 1.9 2.0 1.3 1.0 0.6 0.4 0.3 0.2 0.4 0.3 0.4 0.3 0.2 0.1 0.4 0.4 0.6 1.0 0.9 1.3 1.4 1.6 2.5 nan nan nan nan nan 4.9
1.0 0.3 0.5 0.5 0.3 0.3 0.3 0.5 0.4 0.6 0.8 1.5 1.2 0.8 0.5 1.2 1.3 nan 0.7 0.6 0.5 0.5 0.2 0.1 0.3 0.9 1.2 2.3 2.5 4.0 4.2 3.4 3.1 2.6 4.3 4.5 3.9 5.3 6.2 7.9 nan nan nan nan
0.2 0.2 0.9 0.7 1.6 0.4 0.2 0.3 0.2 0.2 0.3 0.3 0.3 0.2 0.2 0.1 0.0 0.0 0.1 0.1 0.0 0.0 0.1 0.1 0.1 1.7 1.3 0.7 0.6 1.8 2.0 0.9 2.2 2.6 2.9 2.9 3.4 3.9 3.3 4.4 6.7 6.3 nan nan
0.8 0.2 0.3 0.2 0.2 0.4 0.1 0.1 0.1 0.2 0.2 0.2 0.1 0.1 0.1 0.2 0.3 0.4 0.2 0.1 0.1 0.1 0.1 0.1 0.2 1.3 1.3 1.6 2.2 2.9 1.9 3.3 3.8 4.5 4.3 3.3 2.6 2.8 2.7 3.6 4.3 4.7 3.6 2.0
0.3 0.4 0.4 0.5 0.3 0.2 0.1 0.2 0.3 0.7 1.3 2.9 2.4 1.5 0.9 0.4 0.4 0.3 0.2 0.1 0.3 1.3 1.4 5.1 2.3 4.3 3.3 2.0 2.1 2.2 2.9 1.8 1.9 2.7 3.5 3.0 2.9 2.9 2.5 3.0 3.6 4.0 3.9 4.6
0.4 0.8 0.4 0.3 0.2 0.2 0.2 0.2 0.2 0.3 0.4 0.4 0.4 0.1 0.1 0.1 0.1 0.4 1.0 1.4 3.1 4.6 4.6 5.5 7.4 6.1 5.1 4.1 2.1 2.5 3.0 2.5 1.0 2.4 2.2 2.2 2.7 3.2 2.5 3.5 4.2 3.4 5.8 9.1
0.2 0.2 0.2 0.2 0.4 0.5 0.9 0.5 0.3 0.3 0.5 0.6 2.1 3.2 4.6 4.3 2.6 4.1 5.4 6.0 7.4 8.5 7.6 7.9 6.5 5.3 4.8 3.9 2.3 1.4 1.9 1.8 1.8 2.2 1.9 3.0 2.1 1.7 2.6 2.8 2.8 3.7 4.8 13.6
0.3 0.3 0.3 0.2 0.2 0.3 0.5 1.1 1.6 2.1 4.7 4.9 6.4 7.9 9.2 11.3 10.7 11.4 10.7 12.7 12.9 6.9 8.8 5.6 1.5 2.0 1.8 1.6 0.6 1.2 1.8 3.6 1.8 1.4 1.7 5.3 4.8 2.5 4.7 6.0 5.0 7.5 4.7 5.8
0.9 0.5 0.5 0.8 0.5 1.9 2.5 5.3 5.6 6.1 7.8 7.2 11.5 12.6 10.1 12.7 12.3 12.0 8.0 7.0 6.3 6.6 3.4 2.5 1.4 1.0 0.9 0.6 1.7 1.0 2.5 3.5 2.2 4.0 6.0 3.1 9.0 13.9 9.7 7.7 7.4 9.3 15.1 11.5
3.9 4.0 4.7 5.4 8.7 8.2 9.1 9.4 7.5 7.7 7.8 9.7 10.3 12.7 11.7 8.8 8.6 10.2 6.0 2.4 3.8 2.4 1.1 0.6 1.0 1.2 0.5 0.4 0.5 6.0 5.1 8.1 8.8 5.9 9.1 12.0 14.9 10.8 12.1 13.4 12.4 15.7 18.5 14.8
5.7 5.8 8.0 7.1 7.0 6.3 7.9 6.7 4.8 6.2 6.0 8.4 12.5 14.1 10.2 4.0 5.6 5.0 6.8 2.5 1.9 2.3 1.6 1.7 1.2 3.2 2.6 4.9 1.6 7.8 5.9 4.5 6.1 5.9 6.8 10.8 12.2 18.7 18.9 16.8 17.6 19.4 19.3 19.4
5.1 4.9 5.3 6.2 5.7 5.6 3.6 3.6 6.0 5.1 9.2 8.0 9.2 5.5 3.7 2.3 2.0 3.3 3.6 0.5 1.0 3.7 1.1 3.4 4.5 5.3 5.6 9.7 9.3 10.5 10.8 10.9 10.7 10.3 10.9 16.9 16.7 26.5 15.5 14.7 16.9 17.5 23.3 16.3
4.4 3.5 3.4 3.6 2.2 0.8 1.0 1.0 0.4 1.1 7.0 2.4 4.1 7.3 2.1 5.0 7.2 1.1 1.6 5.7 5.8 15.8 9.8 9.9 8.7 6.1 6.6 12.0 12.7 15.5 14.4 15.4 16.6 19.3 9.9 9.2 24.5 21.2 17.8 24.5 15.8 18.0 19.9 17.0
1.8 1.1 1.2 0.9 0.2 1.0 0.2 0.2 0.4 0.3 0.3 0.4 0.3 0.2 0.4 1.1 7.5 3.8 5.9 6.2 6.5 5.2 8.3 7.9 6.4 7.2 16.6 17.8 17.8 18.6 18.4 16.5 19.4 21.5 15.4 22.0 20.4 28.2 26.0 21.3 24.7 25.0 25.8 22.1
0.3 0.8 0.6 0.1 0.4 0.6 0.7 0.7 1.8 1.4 1.7 5.8 3.9 12.0 8.3 4.0 3.7 4.3 6.6 6.8 4.9 6.1 6.3 16.1 19.8 19.7 18.4 12.7 16.6 17.4 13.5 11.0 14.6 15.8 17.9 17.7 17.1 14.8 18.4 16.8 22.3 27.0 33.0 35.6
1.0 0.4 0.9 0.8 1.0 1.2 1.3 1.0 3.0 4.9 6.8 10.7 9.2 8.0 5.2 9.5 11.6 7.2 7.5 11.5 12.6 12.7 15.8 19.0 16.8 11.6 10.7 16.2 14.6 13.1 12.3 13.5 11.0 10.3 21.0 24.2 23.2 30.4 27.3 26.9 30.6 32.1 29.5 26.2

GFSNGP_prec_sndepth_114.txt.gz
Snowfall_Accumulation
0.0 0.0 0.0 0.0 0.0 0.0 0.0 0.0 0.9 0.2 0.4 0.1 0.0 0.0 0.0 0.0 0.0 0.0 0.0 0.0 0.0 0.0 0.0 0.0 0.0 0.0 0.0 0.1 0.1 0.1 0.1 0.3 0.7 0.7 0.4 0.1 0.1 0.0 0.0 0.0 0.0 0.0 0.0 0.0
0.0 0.0 0.0 0.0 0.0 0.0 0.0 0.0 0.0 0.0 0.2 0.0 0.0 0.0 0.0 0.1 0.0 0.1 0.1 0.0 0.0 0.0 0.0 0.1 0.2 0.2 0.3 0.6 0.5 0.5 0.2 0.9 2.1 0.7 0.6 0.6 0.5 0.3 0.3 0.2 0.0 0.0 0.0 0.0
0.8 0.0 0.0 0.3 0.0 0.0 0.0 0.0 0.0 2.0 0.2 0.0 0.1 0.1 0.1 0.1 0.0 0.1 0.1 0.2 0.2 0.3 0.5 0.5 0.6 0.5 0.6 0.7 0.5 0.5 0.7 0.5 0.5 1.2 1.2 2.5 0.7 0.9 1.7 1.2 0.5 0.0 0.0 0.0
1.0 0.3 1.2 0.2 0.0 0.1 0.1 0.1 0.1 0.1 0.1 0.1 0.1 0.2 0.1 0.1 0.2 0.3 0.6 0.4 0.8 1.1 0.8 1.2 1.0 0.7 0.7 1.0 0.9 0.9 1.5 1.5 0.9 0.7 1.5 0.7 3.0 4.0 4.0 4.7 5.6 4.3 1.4 1.0
2.7 1.5 0.2 0.2 1.0 2.7 1.6 0.8 0.2 0.2 0.4 0.2 0.1 0.1 0.5 0.2 0.4 1.1 2.1 3.9 2.2 1.9 1.6 1.3 1.5 1.6 1.5 1.3 0.9 0.6 3.0 3.0 4.0 3.3 3.5 2.7 4.5 8.4 6.8 5.4 5.8 6.1 6.2 4.2
1.4 1.4 6.5 3.3 0.2 0.1 0.2 2.4 0.3 0.2 0.2 0.4 0.3 1.4 3.9 1.0 0.6 1.3 1.9 2.8 4.9 2.8 2.2 1.3 1.9 1.0 1.4 1.9 2.0 3.5 3.6 4.1 2.8 3.6 5.2 7.7 5.7 5.4 8.5 7.5 7.7 7.3 6.4 6.3
1.5 2.7 1.2 0.2 0.4 0.2 3.0 3.3 0.4 0.3 0.3 0.4 1.2 1.0 3.5 2.2 2.5 2.1 2.5 1.7 0.9 2.3 4.8 3.1 1.3 1.2 1.7 2.9 4.2 4.9 3.2 3.2 2.8 1.6 2.5 3.8 4.0 5.5 5.8 6.8 6.9 8.0 8.0 7.7
3.3 4.0 3.1 0.2 0.3 0.7 2.0 0.6 0.4 0.6 1.0 0.5 1.9 3.6 5.1 4.5 2.8 1.8 1.5 0.6 0.2 0.3 0.8 2.1 2.2 2.0 2.6 1.7 3.3 2.1 2.4 2.4 2.7 3.1 2.9 2.7 2.6 3.9 4.9 6.2 7.0 8.4 8.3 8.1
0.8 3.3 0.5 0.5 1.0 0.5 0.4 0.4 0.7 0.6 0.9 0.7 2.5 4.7 5.6 5.9 3.6 2.0 1.1 0.4 0.1 0.1 0.1 0.2 0.2 0.3 2.3 3.3 1.2 1.7 1.3 1.8 2.3 2.1 2.2 2.4 2.7 3.4 3.1 2.9 3.8 7.0 8.7 10.9
0.3 0.6 0.4 0.3 0.3 0.3 0.3 0.4 0.5 0.5 0.6 1.0 6.0 7.3 6.7 3.6 2.0 1.0 0.4 0.3 0.1 0.1 0.1 0.2 0.1 0.2 0.2 0.3 0.6 1.5 1.2 1.0 0.8 1.0 1.8 1.6 1.8 2.7 3.2 3.9 4.7 5.2 5.8 6.5
0.4 0.4 0.1 0.2 0.3 0.3 0.5 0.5 0.6 1.0 1.3 2.2 2.4 2.5 1.8 1.6 1.1 0.4 0.2 0.1 0.1 0.1 0.1 0.1 0.0 0.1 0.1 0.1 0.0 0.1 0.1 0.2 0.2 0.5 0.5 1.3 2.9 2.6 2.5 5.1 4.7 5.9 7.9 7.0
2.5 0.3 0.1 0.3 0.2 0.2 0.5 1.0 0.7 0.5 1.6 1.9 0.8 1.8 1.0 1.9 1.6 0.7 0.4 0.2 0.1 0.1 0.1 0.2 0.1 0.1 0.1 0.1 0.1 0.2 0.1 0.5 0.8 0.7 0.9 1.0 1.1 2.1 nan nan nan nan nan 4.6
0.8 0.1 0.2 0.2 0.2 0.2 0.3 0.5 0.4 0.5 0.6 1.2 0.9 0.6 0.4 0.6 0.6 nan 0.3 0.2 0.2 0.2 0.1 0.1 0.1 0.5 0.7 1.9 2.3 3.9 3.7 2.5 2.3 2.0 3.4 3.6 3.0 4.2 5.1 7.6 nan nan nan nan
0.1 0.1 0.5 0.3 1.2 0.2 0.1 0.2 0.2 0.2 0.2 0.1 0.2 0.1 0.1 0.0 0.0 0.0 0.0 0.0 0.0 0.0 0.0 0.0 0.1 1.4 0.8 0.3 0.2 1.4 1.2 0.6 1.6 2.0 2.2 2.1 2.5 3.0 2.6 3.6 5.9 5.5 nan nan
0.3 0.1 0.1 0.1 0.1 0.2 0.0 0.0 0.1 0.1 0.1 0.1 0.0 0.0 0.0 0.1 0.1 0.2 0.1 0.0 0.0 0.0 0.0 0.1 0.1 1.0 1.0 1.3 1.7 2.3 1.2 2.5 2.9 3.4 3.3 2.5 1.9 2.0 2.0 2.8 3.5 3.9 3.0 1.7
0.1 0.1 0.2 0.3 0.1 0.1 0.1 0.1 0.2 0.4 0.8 2.5 1.9 1.4 0.4 0.2 0.2 0.1 0.1 0.0 0.2 1.0 1.2 5.0 2.2 4.2 3.2 1.9 1.5 1.1 2.1 1.6 1.4 1.9 2.6 2.2 2.2 2.2 1.9 2.3 2.9 3.3 3.5 4.3
0.2 0.5 0.2 0.2 0.1 0.1 0.1 0.1 0.1 0.2 0.2 0.2 0.2 0.0 0.0 0.0 0.1 0.2 0.6 1.2 2.9 4.4 4.5 5.4 7.2 6.0 5.0 4.0 1.5 1.8 2.1 1.8 0.9 1.8 1.6 1.6 2.0 2.5 2.0 2.9 3.5 2.9 5.5 8.8
0.1 0.1 0.1 0.1 0.2 0.3 0.5 0.2 0.2 0.1 0.2 0.2 1.7 3.1 4.6 4.2 2.4 3.9 5.3 5.9 7.3 8.4 7.4 7.7 6.4 5.2 4.7 3.7 1.8 0.9 1.4 1.3 1.3 1.7 1.4 2.5 1.7 1.3 2.1 2.3 2.3 3.1 4.3 13.2
0.1 0.2 0.1 0.1 0.1 0.2 0.3 0.7 1.1 1.8 4.6 4.8 6.3 7.8 9.0 11.2 10.5 11.2 10.5 12.6 12.7 6.6 8.6 5.4 1.5 1.9 1.2 1.4 0.5 0.9 1.4 3.0 1.5 1.1 1.3 5.2 4.3 2.1 4.3 5.7 4.6 7.2 4.4 5.7
0.5 0.2 0.2 0.3 0.2 1.3 2.3 5.3 5.5 5.9 7.6 7.1 11.3 12.4 9.9 12.6 12.2 11.9 7.8 6.8 5.9 5.5 3.2 2.0 0.9 0.5 0.5 0.4 1.6 0.7 2.1 3.0 1.8 3.5 5.8 2.8 8.8 13.6 9.5 7.7 7.2 9.1 14.9 11.4
2.9 3.2 4.4 5.4 8.6 8.1 9.0 9.3 7.4 7.6 7.7 9.6 10.1 12.5 11.6 8.6 8.5 10.1 5.8 1.8 2.9 2.1 0.7 0.5 0.7 0.9 0.4 0.3 0.4 5.5 4.7 7.9 8.6 5.7 8.9 11.9 14.7 10.7 11.9 13.3 12.2 15.5 18.3 14.7
5.3 5.8 7.9 7.0 6.9 6.3 7.8 6.5 4.7 6.1 5.9 8.3 12.4 14.0 10.1 3.7 5.5 4.9 6.8 1.9 1.5 2.3 1.2 1.3 1.0 3.2 2.5 4.8 1.5 7.6 5.8 4.3 5.9 5.8 6.7 10.7 12.1 18.6 18.8 16.6 17.5 19.3 19.2 19.3
5.0 4.8 5.2 6.2 5.6 5.5 3.5 3.4 5.9 5.0 9.1 7.9 9.1 5.4 3.1 1.7 1.4 2.5 3.0 0.2 0.8 3.5 1.0 3.1 4.5 5.3 5.6 9.6 9.2 10.5 10.7 10.8 10.7 10.2 10.9 16.8 16.6 26.3 15.5 14.7 16.8 17.3 23.1 16.3
4.3 3.4 3.3 3.5 2.1 0.7 0.9 0.7 0.2 0.9 6.9 2.3 4.0 7.2 1.5 4.3 6.2 0.8 1.3 5.7 5.7 14.7 9.2 9.7 8.6 6.1 6.6 12.0 12.7 15.4 14.2 15.3 16.5 19.2 9.8 9.2 24.3 21.1 17.7 24.4 15.8 18.0 19.9 17.1
1.7 0.9 1.0 0.8 0.2 0.8 0.1 0.1 0.2 0.2 0.2 0.3 0.1 0.2 0.3 0.8 7.0 3.6 5.5 5.7 6.4 5.1 8.3 7.9 6.4 7.2 16.5 17.7 17.6 18.4 18.2 16.2 19.1 21.3 15.4 21.8 20.2 28.2 25.8 21.2 24.7 24.9 25.6 22.0
0.2 0.6 0.4 0.1 0.3 0.4 0.5 0.5 1.3 1.0 1.2 5.7 3.7 11.8 8.1 3.4 3.2 3.8 6.4 6.7 4.7 6.1 6.2 16.1 19.7 19.5 18.3 12.6 16.4 17.2 13.4 10.9 14.4 15.6 17.7 17.5 17.0 14.6 18.3 16.7 22.1 26.8 32.8 35.3
0.7 0.2 0.7 0.6 0.7 0.8 0.9 0.7 2.4 4.5 5.9 9.3 8.9 7.4 4.8 9.3 11.4 7.1 7.5 11.4 12.5 12.6 15.7 18.8 16.7 11.5 10.5 16.0 14.4 13.0 12.2 13.3 11.0 10.1 20.8 24.0 22.9 30.0 27.1 26.7 30.3 31.7 29.2 26.0

GFSNGP_prec_sndepth_117.txt.gz
Snowfall_Accumulation
0.0 0.0 0.0 0.0 0.0 0.0 0.0 0.0 0.9 0.2 0.3 0.1 0.0 0.0 0.0 0.0 0.0 0.0 0.0 0.0 0.0 0.0 0.0 0.0 0.0 0.0 0.0 0.1 0.1 0.1 0.1 0.4 0.8 0.6 0.3 0.1 0.1 0.1 0.1 0.1 0.0 0.1 0.0 0.0
0.0 0.0 0.0 0.0 0.0 0.0 0.0 0.0 0.0 0.0 0.1 0.0 0.0 0.0 0.0 0.0 0.0 0.0 0.1 0.0 0.0 0.0 0.0 0.1 0.2 0.2 0.3 0.6 0.7 0.7 0.5 1.4 2.3 0.9 0.6 0.6 0.5 0.3 0.4 0.4 0.6 1.2 0.5 0.2
0.8 0.0 0.0 0.3 0.0 0.0 0.0 0.0 0.0 2.0 0.2 0.0 0.1 0.1 0.1 0.0 0.0 0.1 0.1 0.2 0.2 0.3 0.5 0.6 0.8 0.7 0.6 0.9 0.8 0.9 1.2 1.3 1.2 1.5 1.3 2.7 0.8 1.1 1.8 1.6 1.5 0.8 1.9 0.2
0.9 0.3 1.2 0.2 0.0 0.0 0.1 0.1 0.1 0.0 0.1 0.1 0.1 0.1 0.1 0.1 0.2 0.3 0.6 0.4 0.8 1.1 1.0 1.5 1.3 0.9 1.1 1.5 1.7 1.6 2.2 2.1 1.3 1.2 2.1 1.0 3.1 4.2 4.6 5.2 6.6 6.2 1.7 1.7
2.7 1.4 0.2 0.2 1.0 2.7 1.6 0.8 0.2 0.2 0.3 0.2 0.1 0.1 0.5 0.2 0.3 1.1 2.2 4.0 2.3 2.2 2.1 1.8 1.9 2.1 2.1 2.1 1.7 1.3 3.9 3.9 4.7 3.9 3.9 2.9 4.7 8.6 7.3 5.7 6.2 7.0 7.7 5.2
1.4 1.4 6.5 3.3 0.1 0.1 0.2 2.4 0.2 0.2 0.2 0.3 0.3 1.4 4.0 1.0 0.5 1.3 2.1 3.1 5.4 3.3 2.6 1.4 2.0 1.1 1.6 1.9 2.0 3.6 3.8 4.6 3.2 4.0 5.6 8.3 6.2 5.9 8.8 7.7 8.2 7.5 6.5 6.6
1.5 2.7 1.2 0.2 0.4 0.1 3.0 3.4 0.4 0.2 0.3 0.5 1.3 1.0 3.5 2.2 2.6 2.2 2.9 2.2 1.3 2.4 4.9 3.1 1.3 1.1 1.7 2.9 4.2 4.9 3.2 3.2 2.7 1.6 2.6 3.9 4.2 5.7 6.1 7.1 6.9 8.1 8.2 8.3
3.2 4.1 3.3 0.2 0.3 0.7 2.0 0.6 0.4 0.6 1.0 0.7 1.9 3.7 5.2 4.7 3.1 2.1 1.9 0.8 0.3 0.3 0.8 2.1 2.2 2.0 2.6 1.7 3.2 2.1 2.4 2.4 2.6 3.1 2.8 2.6 2.6 3.8 4.9 6.2 7.0 8.6 8.5 8.4
0.8 3.6 0.5 0.4 1.0 0.4 0.3 0.4 0.7 0.7 1.2 0.9 2.6 4.8 5.8 6.2 3.9 2.4 1.4 0.5 0.2 0.1 0.1 0.2 0.2 0.3 2.3 3.3 1.2 1.7 1.3 1.7 2.3 2.1 2.1 2.4 2.7 3.3 3.1 2.8 3.7 6.9 8.7 10.9
0.3 0.6 0.3 0.3 0.2 0.3 0.3 0.4 0.6 0.6 0.8 1.3 6.3 7.5 7.0 3.9 2.4 1.4 0.5 0.3 0.1 0.1 0.1 0.2 0.1 0.1 0.2 0.2 0.6 1.5 1.1 1.0 0.8 1.0 1.8 1.6 1.8 2.7 3.2 3.9 4.7 5.2 5.7 6.5
0.4 0.3 0.1 0.1 0.2 0.3 0.5 0.5 0.7 1.2 1.5 2.5 2.6 2.9 2.0 1.9 1.4 0.6 0.2 0.1 0.0 0.1 0.1 0.1 0.0 0.1 0.1 0.1 0.0 0.1 0.1 0.2 0.2 0.5 0.5 1.3 2.9 2.6 2.5 5.0 4.7 5.8 7.9 7.0
2.7 0.2 0.1 0.3 0.2 0.2 0.5 1.1 0.8 0.6 1.9 2.2 0.9 2.0 1.2 2.2 1.8 0.7 0.4 0.2 0.1 0.1 0.1 0.2 0.1 0.1 0.1 0.1 0.1 0.2 0.1 0.4 0.7 0.7 0.9 1.0 1.1 2.1 nan nan nan nan nan 4.6
0.8 0.1 0.2 0.2 0.2 0.1 0.3 0.6 0.5 0.6 0.7 1.5 1.2 0.8 0.6 0.7 0.6 nan 0.3 0.2 0.2 0.2 0.1 0.1 0.1 0.4 0.7 1.9 2.3 3.9 3.7 2.5 2.3 2.0 3.4 3.6 3.0 4.2 5.1 7.6 nan nan nan nan
0.1 0.1 0.5 0.3 1.2 0.2 0.1 0.2 0.3 0.3 0.3 0.3 0.3 0.2 0.1 0.0 0.0 0.0 0.0 0.0 0.0 0.0 0.0 0.0 0.1 1.4 0.8 0.3 0.2 1.4 1.2 0.6 1.6 1.9 2.2 2.1 2.5 3.0 2.6 3.6 5.9 5.5 nan nan
0.3 0.1 0.1 0.1 0.1 0.2 0.0 0.0 0.1 0.2 0.1 0.2 0.0 0.0 0.0 0.1 0.1 0.2 0.1 0.0 0.0 0.0 0.0 0.1 0.1 1.0 1.0 1.3 1.7 2.3 1.2 2.5 2.9 3.4 3.3 2.5 1.9 2.0 2.0 2.8 3.5 3.9 3.0 1.7
0.1 0.1 0.2 0.2 0.1 0.1 0.1 0.1 0.2 0.3 0.7 2.5 1.9 1.3 0.4 0.2 0.1 0.1 0.1 0.0 0.2 1.0 1.2 5.0 2.2 4.2 3.2 1.9 1.5 1.1 2.1 1.6 1.4 1.9 2.6 2.2 2.2 2.2 1.9 2.3 2.9 3.3 3.5 4.3
0.2 0.5 0.2 0.2 0.1 0.1 0.1 0.1 0.1 0.2 0.2 0.2 0.1 0.0 0.0 0.0 0.0 0.2 0.6 1.2 2.9 4.4 4.5 5.4 7.2 6.0 5.0 4.0 1.5 1.8 2.1 1.8 0.9 1.7 1.6 1.6 2.0 2.5 2.0 2.9 3.5 2.8 5.5 8.8
0.1 0.1 0.1 0.1 0.2 0.3 0.4 0.2 0.2 0.1 0.2 0.2 1.7 3.1 4.5 4.2 2.4 3.9 5.3 5.9 7.3 8.4 7.4 7.7 6.4 5.2 4.7 3.7 1.7 0.9 1.4 1.3 1.3 1.7 1.4 2.5 1.7 1.3 2.1 2.3 2.3 3.1 4.3 13.2
0.1 0.1 0.1 0.1 0.1 0.2 0.2 0.7 1.1 1.7 4.5 4.8 6.3 7.8 9.0 11.2 10.5 11.2 10.4 12.6 12.8 6.6 8.6 5.4 1.5 1.9 1.2 1.3 0.5 0.9 1.4 3.0 1.5 1.1 1.3 5.2 4.3 2.1 4.3 5.7 4.6 7.2 4.4 5.7
0.5 0.2 0.2 0.3 0.2 1.3 2.3 5.3 5.5 5.9 7.6 7.1 11.3 12.4 9.9 12.6 12.2 11.9 7.8 6.8 5.9 5.5 3.2 2.0 0.9 0.5 0.5 0.4 1.6 0.7 2.1 3.0 1.8 3.5 5.8 2.8 8.8 13.6 9.5 7.7 7.2 9.1 14.9 11.4
2.9 3.2 4.4 5.4 8.7 8.1 9.0 9.3 7.4 7.6 7.7 9.5 10.1 12.5 11.6 8.6 8.5 10.1 5.8 1.8 2.9 2.1 0.7 0.5 0.7 0.9 0.4 0.3 0.4 5.5 4.7 7.9 8.6 5.7 8.9 11.9 14.7 10.7 11.9 13.3 12.2 15.5 18.3 14.7
5.4 6.0 8.1 7.2 7.0 6.3 7.8 6.5 4.7 6.1 5.9 8.3 12.3 14.0 10.1 3.7 5.5 4.9 6.8 1.9 1.5 2.3 1.2 1.3 1.0 3.2 2.5 4.8 1.5 7.6 5.8 4.3 5.9 5.8 6.7 10.7 12.1 18.6 18.8 16.6 17.5 19.3 19.2 19.3
5.0 4.8 5.2 6.2 5.6 5.5 3.6 3.4 5.9 5.0 9.1 7.9 9.1 5.4 3.1 1.7 1.4 2.5 3.0 0.2 0.8 3.5 1.0 3.1 4.5 5.3 5.6 9.6 9.3 10.5 10.7 10.8 10.7 10.3 10.9 16.8 16.6 26.3 15.5 14.7 16.8 17.4 23.1 16.4
4.3 3.4 3.3 3.5 2.1 0.7 0.9 0.7 0.2 0.9 6.9 2.2 4.0 7.2 1.5 4.3 6.2 0.8 1.3 5.7 5.8 14.7 9.2 9.7 8.6 6.1 6.6 12.0 12.7 15.4 14.2 15.3 16.5 19.2 9.8 9.2 24.2 21.0 17.7 24.3 15.8 18.0 19.9 17.1
1.7 0.9 1.1 0.8 0.2 0.7 0.1 0.1 0.2 0.2 0.2 0.3 0.1 0.2 0.3 0.8 7.0 3.7 5.6 5.7 6.4 5.2 8.3 7.9 6.4 7.2 16.5 17.7 17.5 18.3 18.2 16.2 19.1 21.2 15.3 21.7 20.2 28.1 25.8 21.2 24.6 24.9 25.5 21.9
0.2 0.6 0.4 0.1 0.3 0.4 0.5 0.5 1.3 1.0 1.2 5.7 3.8 11.7 8.1 3.4 3.2 3.8 6.4 6.7 4.7 6.1 6.3 16.0 19.7 19.4 18.2 12.5 16.4 17.2 13.3 10.9 14.4 15.5 17.6 17.5 17.0 14.6 18.3 16.7 22.1 26.7 32.7 35.2
0.7 0.2 0.7 0.6 0.6 0.8 0.9 0.7 2.4 4.5 5.9 9.3 8.9 7.4 4.8 9.3 11.4 7.1 7.5 11.4 12.5 12.6 15.7 18.8 16.6 11.5 10.5 16.0 14.4 12.9 12.2 13.3 11.0 10.1 20.8 23.9 22.9 29.9 27.1 26.6 30.2 31.7 29.2 26.0

GFSNGP_prec_sndepth_120.txt.gz
Snowfall_Accumulation
0.0 0.0 0.0 0.0 0.0 0.0 0.0 0.0 0.9 0.1 0.3 0.1 0.0 0.0 0.0 0.0 0.0 0.0 0.0 0.0 0.0 0.0 0.0 0.0 0.0 0.0 0.0 0.1 0.1 0.1 0.1 0.4 0.8 0.7 0.4 0.3 0.2 0.2 0.1 0.1 0.0 0.1 0.0 0.0
0.0 0.0 0.0 0.0 0.0 0.0 0.0 0.0 0.0 0.0 0.1 0.0 0.0 0.0 0.0 0.0 0.0 0.0 0.1 0.0 0.0 0.0 0.0 0.1 0.2 0.2 0.3 0.6 0.8 0.7 0.6 1.8 2.7 1.2 1.3 1.5 1.0 0.8 0.5 0.4 0.7 1.3 0.6 0.2
0.8 0.0 0.0 0.3 0.0 0.0 0.0 0.0 0.0 2.0 0.2 0.0 0.1 0.0 0.1 0.0 0.0 0.1 0.1 0.2 0.2 0.3 0.5 0.6 0.8 0.8 0.7 1.0 0.9 1.2 1.6 1.8 2.5 2.7 2.3 3.6 1.5 1.6 2.3 2.1 1.7 1.0 2.8 1.3
0.9 0.3 1.2 0.2 0.0 0.0 0.1 0.1 0.1 0.0 0.1 0.1 0.1 0.1 0.1 0.1 0.2 0.3 0.6 0.4 0.9 1.2 1.0 1.6 1.4 1.0 1.2 1.6 1.8 1.9 2.7 2.8 2.1 2.2 3.3 1.9 3.6 4.7 5.4 6.5 7.6 7.2 2.4 3.2
2.7 1.4 0.2 0.2 1.0 2.7 1.6 0.8 0.2 0.2 0.3 0.2 0.1 0.1 0.6 0.2 0.4 1.1 2.2 4.0 2.3 2.3 2.2 2.0 2.0 2.1 2.1 2.2 1.8 1.5 4.3 4.3 5.3 4.6 5.0 3.7 5.6 9.4 8.1 6.5 6.9 8.0 8.9 6.2
1.4 1.4 6.5 3.3 0.1 0.0 0.2 2.4 0.2 0.2 0.2 0.3 0.3 1.5 4.0 1.0 0.5 1.4 2.1 3.1 5.5 3.6 2.8 1.4 2.0 1.1 1.7 1.9 2.1 3.7 3.8 4.6 3.2 4.0 5.6 8.4 6.4 6.3 9.4 8.3 8.9 7.8 7.0 7.0
1.5 2.7 1.2 0.2 0.4 0.1 3.0 3.4 0.3 0.2 0.3 0.5 1.3 1.0 3.5 2.2 2.7 2.3 2.9 2.4 1.5 2.4 4.9 3.1 1.3 1.1 1.6 2.9 4.2 4.9 3.2 3.2 2.7 1.6 2.6 3.9 4.1 5.7 6.1 7.1 6.9 8.1 8.2 8.3
3.2 4.1 3.4 0.2 0.3 0.7 2.0 0.6 0.4 0.6 1.0 0.7 2.1 3.7 5.3 4.8 3.2 2.2 2.1 1.1 0.4 0.3 0.8 2.1 2.2 2.0 2.6 1.6 3.2 2.1 2.4 2.4 2.6 3.1 2.8 2.6 2.5 3.8 4.9 6.2 7.0 8.6 8.4 8.4
0.8 3.6 0.5 0.4 1.0 0.4 0.3 0.4 0.7 0.7 1.2 1.1 2.9 4.9 5.9 6.4 4.1 2.6 1.6 0.6 0.2 0.1 0.1 0.2 0.2 0.3 2.3 3.3 1.2 1.6 1.3 1.7 2.3 2.0 2.1 2.4 2.7 3.3 3.1 2.8 3.7 6.9 8.6 10.9
0.3 0.6 0.3 0.3 0.2 0.3 0.3 0.5 0.6 0.6 0.8 1.4 6.5 7.7 7.2 4.2 2.7 1.6 0.7 0.5 0.1 0.2 0.2 0.2 0.1 0.1 0.2 0.2 0.6 1.4 1.1 1.0 0.8 1.0 1.8 1.6 1.8 2.6 3.2 3.9 4.6 5.2 5.7 6.5
0.4 0.3 0.1 0.1 0.2 0.3 0.5 0.5 0.7 1.3 1.6 2.6 2.7 3.1 2.2 2.2 1.7 0.9 0.4 0.2 0.1 0.1 0.1 0.1 0.0 0.1 0.1 0.1 0.0 0.1 0.1 0.2 0.2 0.5 0.5 1.3 2.9 2.6 2.5 5.0 4.6 5.8 7.9 7.0
2.7 0.2 0.1 0.3 0.2 0.2 0.5 1.1 0.8 0.6 2.1 2.5 1.0 2.2 1.3 2.5 2.1 0.8 0.4 0.2 0.1 0.1 0.1 0.2 0.1 0.1 0.1 0.1 0.1 0.2 0.1 0.4 0.7 0.6 0.9 1.0 1.1 2.1 nan nan nan nan nan 4.5
0.8 0.1 0.2 0.2 0.1 0.1 0.3 0.6 0.6 0.7 0.8 1.6 1.6 1.0 0.7 0.8 0.6 nan 0.3 0.2 0.2 0.2 0.1 0.1 0.1 0.4 0.7 1.9 2.3 3.9 3.7 2.5 2.3 2.0 3.4 3.6 3.0 4.2 5.1 7.6 nan nan nan nan
0.1 0.1 0.6 0.3 1.2 0.2 0.1 0.3 0.3 0.4 0.4 0.4 0.5 0.3 0.1 0.0 0.0 0.0 0.0 0.0 0.0 0.0 0.0 0.0 0.1 1.4 0.7 0.3 0.2 1.4 1.2 0.6 1.6 1.9 2.2 2.1 2.5 3.0 2.6 3.6 5.9 5.5 nan nan
0.3 0.1 0.1 0.1 0.1 0.2 0.0 0.0 0.2 0.3 0.3 0.4 0.0 0.1 0.0 0.1 0.1 0.2 0.1 0.0 0.0 0.0 0.0 0.1 0.1 1.0 1.0 1.3 1.6 2.3 1.2 2.5 2.9 3.4 3.3 2.5 1.9 2.0 2.0 2.8 3.5 3.9 2.9 1.7
0.1 0.1 0.2 0.2 0.1 0.1 0.1 0.1 0.2 0.4 0.8 2.5 1.9 1.3 0.4 0.1 0.1 0.1 0.1 0.0 0.2 1.0 1.2 5.0 2.2 4.2 3.2 1.9 1.5 1.1 2.1 1.6 1.4 1.9 2.6 2.2 2.2 2.2 1.9 2.3 2.9 3.3 3.6 4.4
0.2 0.5 0.2 0.2 0.1 0.1 0.1 0.1 0.1 0.2 0.2 0.2 0.1 0.0 0.0 0.0 0.0 0.2 0.6 1.2 2.9 4.5 4.5 5.4 7.2 6.0 5.0 4.0 1.5 1.8 2.1 1.8 0.9 1.7 1.6 1.6 2.0 2.5 2.0 2.9 3.5 2.8 5.5 8.8
0.1 0.1 0.1 0.1 0.2 0.3 0.4 0.2 0.2 0.1 0.2 0.2 1.7 3.1 4.5 4.2 2.4 3.9 5.3 5.9 7.3 8.4 7.4 7.7 6.4 5.2 4.7 3.7 1.7 0.9 1.4 1.3 1.3 1.7 1.4 2.5 1.7 1.3 2.1 2.3 2.3 3.1 4.3 13.2
0.1 0.1 0.1 0.1 0.1 0.2 0.2 0.7 1.1 1.7 4.5 4.8 6.3 7.7 9.0 11.1 10.5 11.1 10.4 12.6 12.7 6.6 8.6 5.4 1.5 1.9 1.2 1.3 0.5 0.9 1.4 3.0 1.5 1.1 1.3 5.2 4.3 2.1 4.3 5.7 4.6 7.2 4.5 5.7
0.5 0.2 0.2 0.3 0.2 1.3 2.3 5.3 5.5 5.9 7.6 7.0 11.3 12.4 9.9 12.5 12.2 11.9 7.8 6.8 5.9 5.5 3.2 2.0 0.9 0.5 0.5 0.4 1.6 0.7 2.1 3.0 1.8 3.5 5.8 2.8 8.8 13.6 9.5 7.7 7.2 9.1 14.9 11.5
2.9 3.2 4.4 5.4 8.7 8.2 9.0 9.3 7.4 7.6 7.6 9.5 10.1 12.5 11.6 8.6 8.5 10.1 5.8 1.8 2.9 2.1 0.7 0.5 0.7 0.9 0.4 0.3 0.4 5.5 4.7 7.9 8.6 5.7 9.0 11.9 14.7 10.7 11.9 13.3 12.2 15.5 18.3 14.7
5.5 6.0 8.2 7.3 7.1 6.4 7.9 6.6 4.7 6.1 5.8 8.3 12.3 14.0 10.1 3.8 5.5 4.9 6.8 1.9 1.5 2.3 1.2 1.3 1.0 3.2 2.5 4.9 1.5 7.6 5.8 4.3 5.9 5.8 6.7 10.7 12.1 18.6 18.8 16.6 17.5 19.3 19.2 19.3
5.2 5.0 5.4 6.3 5.7 5.6 3.6 3.5 6.0 5.0 9.1 7.9 9.1 5.4 3.1 1.7 1.4 2.5 3.0 0.2 0.8 3.5 1.0 3.1 4.5 5.3 5.6 9.6 9.3 10.5 10.7 10.8 10.7 10.3 10.9 16.7 16.6 26.2 15.5 14.8 16.8 17.4 23.1 16.4
4.5 3.5 3.4 3.6 2.2 0.7 1.0 0.8 0.2 0.9 6.9 2.2 4.0 7.2 1.5 4.3 6.2 0.8 1.3 5.7 5.8 14.7 9.2 9.7 8.6 6.1 6.6 12.0 12.7 15.4 14.2 15.3 16.5 19.2 9.8 9.2 24.2 21.0 17.7 24.3 15.8 18.0 19.9 17.1
1.8 1.0 1.1 0.8 0.2 0.8 0.1 0.1 0.2 0.2 0.2 0.3 0.2 0.2 0.3 0.8 7.0 3.7 5.6 5.7 6.4 5.2 8.3 7.9 6.4 7.2 16.4 17.6 17.5 18.3 18.2 16.2 19.1 21.2 15.3 21.7 20.1 28.1 25.7 21.2 24.6 24.8 25.4 21.9
0.2 0.6 0.4 0.1 0.3 0.4 0.5 0.5 1.3 1.0 1.2 5.8 3.8 11.7 8.1 3.4 3.2 3.8 6.4 6.7 4.7 6.1 6.3 16.0 19.7 19.4 18.2 12.5 16.4 17.2 13.3 10.9 14.4 15.5 17.6 17.5 16.9 14.6 18.3 16.7 22.0 26.7 32.7 35.1
0.7 0.2 0.7 0.6 0.6 0.8 0.9 0.7 2.3 4.5 5.9 9.3 8.9 7.5 4.8 9.3 11.4 7.1 7.5 11.4 12.5 12.6 15.7 18.8 16.6 11.5 10.5 16.0 14.4 12.9 12.1 13.3 11.0 10.1 20.7 23.9 22.8 29.9 27.0 26.6 30.2 31.6 29.1 26.0

GFSNGP_prec_sndepth_123.txt.gz
Snowfall_Accumulation
0.0 0.0 0.0 0.0 0.0 0.0 0.0 0.0 1.0 0.1 0.3 0.0 0.0 0.0 0.0 0.0 0.0 0.0 0.0 0.0 0.0 0.0 0.0 0.0 0.0 0.0 0.0 0.1 0.1 0.1 0.1 0.4 0.9 0.7 0.4 0.3 0.4 0.4 0.4 0.2 0.0 0.1 0.0 0.0
0.0 0.0 0.0 0.0 0.0 0.0 0.0 0.0 0.0 0.0 0.1 0.0 0.0 0.0 0.0 0.0 0.0 0.0 0.1 0.0 0.0 0.0 0.0 0.1 0.2 0.2 0.3 0.6 0.8 0.7 0.7 1.9 2.8 1.4 1.5 2.0 1.7 1.6 1.2 0.6 0.9 1.4 0.6 0.2
1.0 0.0 0.0 0.3 0.0 0.0 0.0 0.0 0.0 2.0 0.2 0.0 0.1 0.0 0.1 0.0 0.0 0.1 0.1 0.2 0.2 0.4 0.6 0.7 0.8 0.8 0.7 1.0 0.9 1.2 1.6 1.9 2.7 3.1 2.6 4.0 2.1 1.9 2.6 2.6 2.3 1.6 3.3 1.6
1.0 0.3 1.3 0.2 0.0 0.0 0.1 0.1 0.1 0.0 0.1 0.1 0.1 0.1 0.1 0.1 0.2 0.3 0.6 0.5 1.0 1.3 1.1 1.6 1.5 1.0 1.2 1.6 1.8 1.9 2.7 2.8 2.2 2.4 3.8 2.6 4.2 5.4 6.1 7.5 8.8 8.3 3.1 3.9
2.7 1.4 0.2 0.2 1.0 2.7 1.6 0.8 0.2 0.2 0.3 0.2 0.1 0.1 0.6 0.2 0.4 1.2 2.3 4.1 2.5 2.3 2.2 2.0 2.0 2.1 2.1 2.2 1.9 1.5 4.4 4.5 5.5 4.6 5.0 3.8 5.9 9.9 8.8 7.2 7.6 9.2 9.8 6.9
1.4 1.4 6.5 3.3 0.1 0.0 0.2 2.4 0.2 0.2 0.2 0.3 0.3 1.5 4.1 1.0 0.5 1.4 2.2 3.2 5.7 3.6 2.8 1.4 2.0 1.1 1.7 1.9 2.1 3.7 3.9 4.6 3.2 4.0 5.6 8.4 6.4 6.3 9.4 8.3 9.1 8.1 7.4 7.5
1.5 2.7 1.2 0.2 0.4 0.1 3.0 3.4 0.3 0.2 0.3 0.5 1.4 1.0 3.5 2.2 2.7 2.3 3.0 2.5 1.7 2.5 4.9 3.1 1.2 1.1 1.6 2.9 4.2 4.9 3.2 3.2 2.7 1.6 2.5 3.9 4.1 5.7 6.0 7.0 6.9 8.0 8.1 8.2
3.2 4.1 3.4 0.2 0.3 0.7 2.0 0.6 0.4 0.6 1.0 0.7 2.2 3.8 5.3 4.8 3.3 2.4 2.3 1.4 0.7 0.4 0.8 2.1 2.2 2.0 2.6 1.6 3.2 2.1 2.4 2.4 2.6 3.1 2.8 2.6 2.5 3.8 4.9 6.1 7.0 8.6 8.4 8.4
0.8 3.6 0.5 0.4 1.0 0.4 0.3 0.4 0.7 0.7 1.2 1.2 3.0 5.2 6.1 6.6 4.3 2.8 1.8 0.9 0.4 0.1 0.2 0.3 0.3 0.3 2.3 3.3 1.2 1.6 1.3 1.7 2.3 2.0 2.1 2.4 2.7 3.3 3.1 2.8 3.7 6.9 8.6 10.8
0.3 0.6 0.3 0.3 0.2 0.2 0.3 0.4 0.6 0.6 0.8 1.4 6.6 7.8 7.3 4.4 2.9 1.8 1.0 0.9 0.4 0.3 0.3 0.2 0.1 0.1 0.2 0.2 0.6 1.4 1.1 1.0 0.8 1.0 1.8 1.6 1.8 2.6 3.1 3.9 4.6 5.2 5.7 6.5
0.4 0.3 0.1 0.1 0.2 0.3 0.5 0.5 0.7 1.3 1.6 2.6 2.7 3.1 2.2 2.4 1.9 1.2 0.7 0.5 0.1 0.1 0.1 0.1 0.0 0.1 0.1 0.1 0.0 0.1 0.1 0.2 0.2 0.5 0.5 1.3 2.8 2.6 2.5 4.9 4.6 5.8 7.8 7.0
2.7 0.2 0.1 0.3 0.2 0.2 0.5 1.1 0.8 0.6 2.2 2.5 1.0 2.2 1.4 2.6 2.3 1.0 0.5 0.2 0.2 0.1 0.1 0.2 0.1 0.1 0.1 0.1 0.1 0.2 0.1 0.4 0.7 0.6 0.9 1.0 1.1 2.1 nan nan nan nan nan 4.5
0.8 0.1 0.2 0.2 0.1 0.1 0.3 0.6 0.6 0.7 0.8 1.6 1.7 1.0 0.8 1.0 0.8 nan 0.3 0.2 0.2 0.2 0.1 0.1 0.1 0.4 0.7 1.9 2.3 3.9 3.7 2.5 2.3 2.0 3.4 3.6 3.0 4.2 5.1 7.6 nan nan nan nan
0.1 0.1 0.6 0.3 1.2 0.2 0.1 0.3 0.3 0.5 0.5 0.4 0.5 0.4 0.2 0.2 0.0 0.0 0.0 0.0 0.0 0.0 0.0 0.0 0.1 1.4 0.7 0.3 0.2 1.4 1.2 0.6 1.6 1.9 2.2 2.1 2.5 3.0 2.6 3.6 5.9 5.5 nan nan
0.2 0.1 0.1 0.1 0.1 0.2 0.0 0.1 0.2 0.3 0.4 0.7 0.2 0.2 0.1 0.1 0.1 0.2 0.1 0.0 0.0 0.0 0.0 0.1 0.1 1.0 1.0 1.3 1.6 2.3 1.1 2.5 2.9 3.4 3.3 2.5 1.9 2.0 2.0 2.8 3.5 3.9 3.0 1.7
0.1 0.1 0.2 0.2 0.1 0.1 0.1 0.2 0.2 0.6 0.9 2.8 2.1 1.3 0.4 0.1 0.1 0.1 0.1 0.0 0.2 1.0 1.2 5.0 2.2 4.2 3.2 1.9 1.5 1.1 2.0 1.6 1.4 1.9 2.6 2.2 2.2 2.2 1.9 2.3 2.9 3.3 3.6 4.4
0.2 0.6 0.2 0.2 0.1 0.1 0.1 0.1 0.1 0.2 0.3 0.3 0.3 0.1 0.0 0.0 0.0 0.2 0.6 1.2 2.9 4.4 4.5 5.4 7.2 6.0 5.0 4.0 1.5 1.8 2.1 1.8 0.9 1.7 1.6 1.6 2.0 2.5 2.0 2.9 3.5 2.9 5.5 8.9
0.1 0.1 0.1 0.1 0.2 0.3 0.4 0.2 0.2 0.2 0.2 0.2 1.7 3.1 4.5 4.2 2.4 3.9 5.3 5.9 7.3 8.4 7.4 7.7 6.4 5.2 4.7 3.7 1.8 0.9 1.4 1.3 1.3 1.7 1.4 2.5 1.7 1.3 2.1 2.3 2.3 3.1 4.3 13.2
0.1 0.1 0.1 0.1 0.1 0.2 0.2 0.7 1.1 1.7 4.5 4.8 6.2 7.7 9.0 11.1 10.4 11.1 10.4 12.6 12.7 6.6 8.5 5.4 1.5 1.9 1.2 1.3 0.5 0.9 1.4 3.0 1.5 1.1 1.3 5.2 4.3 2.1 4.4 5.7 4.6 7.3 4.5 5.7
0.5 0.2 0.2 0.3 0.2 1.3 2.4 5.3 5.5 5.9 7.6 7.0 11.3 12.3 9.8 12.5 12.1 11.8 7.8 6.8 5.9 5.5 3.2 2.0 0.9 0.5 0.5 0.4 1.6 0.7 2.1 3.0 1.8 3.5 5.8 2.8 8.8 13.6 9.5 7.7 7.2 9.1 14.9 11.5
2.9 3.2 4.4 5.4 8.7 8.2 9.0 9.3 7.4 7.6 7.6 9.5 10.0 12.4 11.5 8.6 8.5 10.1 5.8 1.8 2.9 2.1 0.7 0.5 0.7 0.9 0.4 0.3 0.4 5.5 4.7 7.9 8.6 5.7 9.0 11.9 14.7 10.7 12.0 13.3 12.2 15.5 18.3 14.7
5.5 6.0 8.2 7.3 7.2 6.6 8.1 6.8 4.9 6.2 5.9 8.3 12.3 14.0 10.1 3.7 5.5 4.9 6.8 1.9 1.5 2.3 1.2 1.3 1.0 3.2 2.5 4.9 1.5 7.7 5.8 4.3 6.0 5.8 6.7 10.7 12.1 18.6 18.8 16.6 17.5 19.3 19.1 19.3
5.3 5.1 5.5 6.4 5.8 5.7 3.8 3.7 6.2 5.2 9.2 8.0 9.1 5.4 3.0 1.7 1.4 2.5 3.0 0.3 0.8 3.5 1.0 3.1 4.5 5.3 5.6 9.6 9.3 10.5 10.7 10.8 10.7 10.3 10.9 16.7 16.6 26.2 15.5 14.8 16.8 17.4 23.1 16.4
4.6 3.8 3.6 3.8 2.4 0.9 1.1 0.9 0.3 0.9 6.9 2.2 4.0 7.2 1.5 4.3 6.3 0.8 1.3 5.7 5.8 14.6 9.2 9.7 8.6 6.1 6.6 12.0 12.7 15.3 14.2 15.3 16.5 19.2 9.8 9.2 24.2 21.0 17.7 24.3 15.8 18.0 19.9 17.1
1.9 1.3 1.3 1.0 0.3 1.0 0.3 0.2 0.3 0.2 0.2 0.3 0.2 0.2 0.3 0.8 7.0 3.8 5.6 5.7 6.4 5.2 8.3 7.9 6.4 7.2 16.4 17.6 17.5 18.3 18.2 16.2 19.1 21.2 15.3 21.7 20.1 28.0 25.7 21.1 24.6 24.8 25.4 21.9
0.2 0.6 0.5 0.2 0.4 0.6 0.6 0.5 1.3 1.0 1.2 5.8 3.9 11.8 8.1 3.4 3.2 3.8 6.4 6.7 4.7 6.1 6.3 16.0 19.6 19.4 18.2 12.5 16.3 17.2 13.3 10.9 14.4 15.5 17.6 17.4 16.9 14.6 18.3 16.7 22.0 26.7 32.6 35.1
0.7 0.2 0.7 0.6 0.7 0.9 1.0 0.7 2.3 4.5 5.9 9.3 9.0 7.5 4.8 9.3 11.4 7.1 7.6 11.4 12.5 12.6 15.7 18.7 16.6 11.5 10.5 16.0 14.4 12.9 12.1 13.3 11.0 10.1 20.7 23.8 22.8 29.8 27.0 26.6 30.1 31.5 29.0 25.9

GFSNGP_prec_sndepth_129.txt.gz
Snowfall_Accumulation
0.0 0.0 0.0 0.0 0.0 0.0 0.0 0.0 1.1 0.1 0.3 0.0 0.0 0.0 0.0 0.0 0.0 0.0 0.0 0.0 0.0 0.0 0.0 0.0 0.0 0.0 0.0 0.1 0.1 0.1 0.1 0.4 0.9 0.7 0.5 0.4 0.4 0.4 0.5 0.2 0.1 0.1 0.1 0.1
0.0 0.0 0.0 0.0 0.0 0.0 0.0 0.0 0.0 0.0 0.1 0.0 0.0 0.0 0.0 0.0 0.0 0.0 0.0 0.0 0.0 0.0 0.0 0.1 0.2 0.2 0.2 0.5 0.7 0.7 0.6 1.9 2.8 1.5 1.7 2.3 2.1 2.3 1.6 0.7 1.2 1.9 1.1 0.7
1.6 0.0 0.1 0.8 0.0 0.0 0.0 0.0 0.0 2.0 0.1 0.0 0.1 0.0 0.0 0.0 0.0 0.0 0.1 0.2 0.2 0.4 0.6 0.7 0.8 0.8 0.7 1.0 0.9 1.2 1.6 1.8 2.6 3.1 2.5 4.1 2.3 1.9 2.6 2.9 2.5 2.3 4.5 3.2
1.9 0.4 2.2 0.2 0.0 0.0 0.0 0.0 0.1 0.0 0.1 0.1 0.1 0.1 0.1 0.1 0.2 0.3 0.6 0.5 0.9 1.3 1.1 1.6 1.4 0.9 1.1 1.6 1.8 1.8 2.6 2.8 2.2 2.4 3.8 2.5 4.1 5.3 6.1 7.6 8.9 8.5 4.0 5.6
3.7 1.5 0.1 0.2 0.9 2.7 1.6 0.7 0.2 0.2 0.3 0.2 0.1 0.1 0.7 0.1 0.3 1.1 2.3 4.2 2.5 2.4 2.3 2.0 2.0 2.1 2.1 2.2 1.8 1.4 4.3 4.5 5.5 4.6 5.0 3.7 5.8 9.9 8.7 7.1 7.5 9.3 10.1 7.3
2.9 1.7 6.5 3.3 0.1 0.0 0.2 2.3 0.2 0.1 0.2 0.3 0.3 1.5 4.0 1.0 0.5 1.4 2.2 3.3 5.8 3.7 2.8 1.4 2.0 1.1 1.7 1.9 2.0 3.7 3.9 4.6 3.2 3.9 5.6 8.4 6.4 6.2 9.3 8.2 9.0 7.9 7.3 7.4
1.8 3.0 1.2 0.2 0.3 0.1 3.0 3.2 0.3 0.2 0.3 0.4 1.4 1.0 3.5 2.2 2.7 2.3 3.0 2.6 1.8 2.7 5.2 3.3 1.3 1.2 1.7 2.9 4.3 5.0 3.2 3.2 2.7 1.6 2.5 3.9 4.1 5.6 6.0 7.0 6.8 8.0 8.1 8.1
4.6 5.2 4.0 0.2 0.3 0.7 1.9 0.5 0.3 0.6 1.0 0.7 2.2 3.8 5.3 4.8 3.4 2.5 2.4 1.6 0.9 0.8 1.4 2.7 2.3 2.0 2.8 1.9 3.3 2.1 2.4 2.4 2.6 3.1 2.8 2.5 2.5 3.8 4.9 6.1 6.9 8.5 8.3 8.3
0.7 3.6 0.4 0.3 1.0 0.4 0.3 0.3 0.6 0.7 1.2 1.1 3.1 5.3 6.2 6.9 4.6 3.1 2.0 1.1 0.8 0.7 1.0 1.2 0.4 0.5 2.5 3.3 1.2 1.6 1.3 1.7 2.3 2.0 2.1 2.3 2.6 3.3 3.0 2.7 3.6 6.8 8.5 10.7
0.3 0.6 0.3 0.2 0.2 0.2 0.2 0.4 0.6 0.6 0.8 1.3 6.7 7.9 7.6 4.6 3.2 2.0 1.2 1.2 0.8 0.7 0.8 0.3 0.2 0.2 0.1 0.2 0.6 1.4 1.1 1.0 0.8 0.9 1.7 1.5 1.7 2.6 3.1 3.9 4.6 5.1 5.7 6.4
0.4 0.3 0.1 0.1 0.2 0.3 0.4 0.5 0.7 1.3 1.6 2.6 2.7 3.2 2.2 2.5 2.1 1.3 1.0 0.8 0.3 0.3 0.2 0.2 0.0 0.1 0.1 0.1 0.0 0.0 0.1 0.2 0.2 0.5 0.4 1.3 2.8 2.5 2.4 4.8 4.5 5.7 7.8 6.9
2.7 0.2 0.1 0.3 0.2 0.2 0.5 1.1 0.8 0.6 2.3 2.6 1.0 2.2 1.4 2.7 2.4 1.1 0.7 0.3 0.1 0.1 0.1 0.2 0.1 0.1 0.1 0.1 0.0 0.2 0.1 0.4 0.7 0.6 0.9 0.9 1.1 2.1 nan nan nan nan nan 4.4
0.8 0.1 0.2 0.2 0.1 0.1 0.3 0.6 0.6 0.7 0.8 1.6 1.8 1.0 0.7 1.1 0.9 nan 0.3 0.2 0.2 0.2 0.1 0.1 0.1 0.4 0.7 1.8 2.3 3.9 3.7 2.5 2.3 1.9 3.3 3.5 3.0 4.2 5.1 7.5 nan nan nan nan
0.1 0.1 0.6 0.3 1.2 0.2 0.1 0.3 0.3 0.4 0.5 0.4 0.5 0.4 0.2 0.2 0.1 0.0 0.0 0.0 0.0 0.0 0.0 0.0 0.1 1.3 0.7 0.2 0.2 1.4 1.1 0.6 1.6 1.9 2.2 2.1 2.5 3.0 2.5 3.6 5.9 5.5 nan nan
0.2 0.1 0.1 0.1 0.1 0.2 0.0 0.1 0.3 0.4 0.5 0.9 0.2 0.2 0.1 0.1 0.1 0.1 0.1 0.0 0.0 0.0 0.0 0.0 0.1 1.0 1.0 1.3 1.6 2.3 1.1 2.4 2.8 3.4 3.3 2.5 1.9 2.0 2.0 2.8 3.5 3.9 2.9 1.7
0.1 0.1 0.2 0.2 0.2 0.1 0.1 0.2 0.2 0.6 1.0 2.9 2.2 1.4 0.4 0.1 0.1 0.1 0.1 0.0 0.2 1.0 1.2 5.0 2.2 4.1 3.2 1.9 1.4 1.1 2.0 1.6 1.4 1.9 2.5 2.2 2.2 2.2 1.9 2.3 2.9 3.4 3.6 4.5
0.2 0.7 0.2 0.2 0.1 0.1 0.1 0.1 0.1 0.2 0.5 0.3 0.3 0.3 0.2 0.0 0.0 0.2 0.6 1.1 2.9 4.4 4.5 5.3 7.2 5.9 5.0 4.0 1.5 1.8 2.1 1.8 0.9 1.7 1.6 1.6 2.0 2.5 1.9 2.9 3.5 2.9 5.6 8.8
0.1 0.1 0.1 0.1 0.2 0.3 0.5 0.2 0.2 0.2 0.4 0.3 2.0 3.5 4.9 4.3 2.3 3.9 5.3 5.9 7.3 8.3 7.4 7.7 6.4 5.1 4.7 3.7 1.7 0.9 1.4 1.3 1.3 1.7 1.4 2.5 1.7 1.3 2.1 2.3 2.3 3.1 4.3 13.2
0.1 0.1 0.1 0.1 0.1 0.2 0.2 0.7 1.1 1.8 4.7 4.9 6.6 8.2 9.3 11.2 10.4 11.0 10.3 12.5 12.6 6.6 8.5 5.4 1.5 1.9 1.2 1.3 0.5 0.9 1.4 3.0 1.4 1.1 1.3 5.2 4.3 2.1 4.3 5.7 4.6 7.2 4.5 5.7
0.5 0.2 0.2 0.3 0.2 1.3 2.4 5.3 5.5 6.1 7.9 7.3 11.7 12.9 10.0 12.4 12.1 11.8 7.8 6.7 5.8 5.5 3.1 1.9 0.8 0.5 0.5 0.4 1.6 0.7 2.0 3.0 1.8 3.5 5.8 2.8 8.7 13.6 9.5 7.7 7.2 9.1 14.9 11.5
2.9 3.2 4.4 5.4 8.7 8.2 9.0 9.3 7.5 7.8 7.9 9.8 10.1 12.6 11.6 8.6 8.5 10.0 5.8 1.7 2.8 2.0 0.6 0.5 0.7 0.9 0.4 0.3 0.4 5.5 4.7 7.9 8.6 5.7 8.9 11.9 14.7 10.7 11.9 13.3 12.2 15.5 18.3 14.7
5.5 6.0 8.2 7.3 7.2 6.7 8.3 6.9 5.1 6.5 6.2 8.6 12.6 14.0 10.1 3.7 5.5 4.9 6.7 1.9 1.5 2.3 1.2 1.3 1.0 3.2 2.5 4.8 1.5 7.6 5.8 4.3 5.9 5.8 6.7 10.7 12.1 18.5 18.7 16.6 17.5 19.3 19.1 19.3
5.3 5.1 5.5 6.5 5.8 5.7 4.1 4.1 6.6 5.4 9.4 8.3 9.3 5.4 3.0 1.6 1.4 2.5 3.0 0.2 0.8 3.5 1.0 3.1 4.5 5.3 5.6 9.6 9.2 10.5 10.7 10.8 10.7 10.3 10.9 16.7 16.6 26.1 15.4 14.7 16.8 17.3 23.0 16.4
4.7 4.0 3.9 4.2 2.7 1.3 1.4 1.4 0.7 1.4 7.2 2.5 4.2 7.2 1.4 4.3 6.3 0.8 1.3 5.7 5.8 14.6 9.2 9.7 8.6 6.1 6.6 12.0 12.7 15.3 14.2 15.3 16.4 19.1 9.8 9.2 24.1 20.9 17.6 24.2 15.8 17.9 19.8 17.1
2.1 1.7 1.8 1.4 0.7 1.4 0.7 0.6 0.6 0.5 0.4 0.4 0.3 0.2 0.3 0.8 7.0 3.9 5.6 5.7 6.4 5.1 8.3 7.9 6.4 7.2 16.4 17.6 17.5 18.2 18.1 16.2 19.0 21.1 15.3 21.6 20.1 27.9 25.6 21.1 24.5 24.7 25.3 21.8
0.3 0.8 0.7 0.4 0.5 0.8 0.9 0.8 1.5 1.2 1.3 5.9 4.0 11.8 8.1 3.4 3.2 3.8 6.4 6.7 4.7 6.1 6.3 16.0 19.6 19.4 18.2 12.5 16.3 17.1 13.3 10.8 14.4 15.5 17.6 17.4 16.9 14.6 18.2 16.6 21.9 26.6 32.4 34.9
0.8 0.3 0.9 0.8 0.9 1.2 1.2 0.9 2.5 4.7 5.9 9.2 9.0 7.7 4.8 9.4 11.5 7.1 7.6 11.4 12.5 12.5 15.7 18.7 16.6 11.5 10.5 15.9 14.3 12.9 12.1 13.2 11.0 10.1 20.6 23.7 22.7 29.7 26.9 26.4 30.0 31.4 28.9 25.8

GFSNGP_prec_sndepth_132.txt.gz
Snowfall_Accumulation
0.0 0.0 0.0 0.0 0.0 0.0 0.0 0.0 0.8 0.1 0.1 0.0 0.0 0.0 0.0 0.0 0.0 0.0 0.0 0.0 0.0 0.0 0.0 0.0 0.0 0.0 0.0 0.0 0.0 0.0 0.1 0.2 0.6 0.4 0.3 0.2 0.2 0.3 0.3 0.2 0.1 0.1 0.0 0.0
0.0 0.0 0.0 0.0 0.0 0.0 0.0 0.0 0.0 0.0 0.1 0.0 0.0 0.0 0.0 0.0 0.0 0.0 0.0 0.0 0.0 0.0 0.0 0.0 0.1 0.1 0.1 0.3 0.4 0.4 0.4 1.6 2.6 0.9 1.2 1.9 1.5 1.7 0.9 0.4 0.7 1.4 0.7 0.6
1.3 0.0 0.1 0.6 0.0 0.0 0.0 0.0 0.0 1.5 0.0 0.0 0.0 0.0 0.0 0.0 0.0 0.0 0.1 0.1 0.2 0.2 0.3 0.4 0.4 0.4 0.4 0.6 0.5 0.8 1.2 1.4 2.3 2.7 2.2 3.9 1.8 1.4 2.2 2.4 1.8 1.8 4.2 2.6
1.6 0.3 2.8 0.1 0.0 0.0 0.0 0.0 0.0 0.0 0.0 0.0 0.1 0.1 0.1 0.1 0.1 0.2 0.3 0.3 0.6 0.8 0.7 1.0 0.8 0.5 0.7 1.1 1.3 1.4 2.3 2.5 1.8 2.2 3.7 2.2 4.0 5.3 5.8 6.6 8.1 8.1 3.9 5.3
3.7 1.2 0.1 0.1 0.5 2.2 1.1 0.4 0.1 0.1 0.1 0.1 0.1 0.1 0.4 0.1 0.2 0.7 1.7 3.7 2.0 2.0 1.8 1.5 1.6 1.6 1.7 1.9 1.5 1.1 4.2 4.3 5.2 4.5 4.9 3.6 5.7 9.8 8.2 6.6 6.9 9.0 9.6 7.2
2.3 1.2 6.3 2.3 0.1 0.0 0.1 1.8 0.1 0.1 0.1 0.2 0.2 1.2 3.1 0.6 0.3 1.0 1.8 3.0 5.6 3.3 2.4 1.1 1.6 0.7 1.6 1.8 2.0 3.7 3.9 4.4 3.0 3.8 5.5 8.3 6.1 6.1 8.8 7.5 8.5 7.3 7.1 7.3
1.6 2.7 0.9 0.1 0.2 0.1 2.3 1.9 0.2 0.1 0.1 0.2 1.1 0.7 2.8 1.8 2.3 1.8 2.7 2.2 1.2 2.5 5.1 3.1 0.9 0.8 1.4 2.9 4.2 4.9 3.1 3.1 2.7 1.4 2.4 3.7 3.9 5.3 5.7 6.7 6.5 7.8 7.9 8.0
4.4 5.8 4.6 0.1 0.2 0.5 1.4 0.3 0.2 0.3 0.5 0.3 1.7 3.4 5.0 4.5 3.2 2.2 2.1 1.2 0.6 0.5 1.1 2.5 2.1 1.9 2.6 1.7 3.2 1.8 2.3 2.3 2.5 3.0 2.5 2.2 2.3 3.4 4.6 5.9 6.8 8.4 8.2 8.1
0.5 2.9 0.3 0.2 0.5 0.2 0.2 0.2 0.3 0.3 0.7 0.6 2.7 5.0 5.8 6.6 4.4 2.8 1.6 0.8 0.5 0.4 0.7 0.8 0.3 0.3 2.4 3.1 0.8 1.3 1.0 1.6 2.3 1.9 1.8 2.0 2.5 3.1 2.6 2.5 3.4 6.6 8.3 10.5
0.3 0.3 0.2 0.2 0.1 0.1 0.1 0.2 0.3 0.3 0.4 0.9 6.2 7.5 7.4 4.5 3.0 1.7 0.9 0.9 0.5 0.5 0.5 0.2 0.1 0.1 0.1 0.1 0.4 1.1 0.8 0.7 0.5 0.7 1.5 1.2 1.4 2.2 2.8 3.6 4.4 4.9 5.5 6.3
0.4 0.3 0.2 0.1 0.1 0.2 0.3 0.3 0.4 0.8 1.0 2.1 2.4 2.9 1.8 2.2 1.7 0.9 0.7 0.6 0.2 0.2 0.2 0.1 0.0 0.0 0.0 0.0 0.0 0.0 0.1 0.1 0.1 0.4 0.3 1.0 2.5 2.2 2.1 4.6 4.3 5.6 7.6 6.8
2.2 0.1 0.1 0.2 0.1 0.1 0.3 0.8 0.5 0.4 1.9 1.9 0.6 1.9 0.9 2.5 2.1 0.8 0.5 0.2 0.1 0.1 0.0 0.1 0.1 0.1 0.1 0.0 0.0 0.1 0.1 0.4 0.7 0.6 0.8 0.8 1.0 1.9 nan nan nan nan nan 4.3
0.6 0.1 0.1 0.1 0.1 0.1 0.2 0.4 0.4 0.4 0.5 1.3 1.4 0.7 0.4 0.8 0.7 nan 0.2 0.1 0.1 0.1 0.1 0.0 0.1 0.3 0.6 1.8 2.2 3.9 3.6 2.4 2.1 1.8 3.2 3.4 2.8 4.0 4.9 7.4 nan nan nan nan
0.0 0.0 0.5 0.2 1.1 0.1 0.1 0.2 0.2 0.3 0.3 0.2 0.3 0.2 0.1 0.2 0.0 0.0 0.0 0.0 0.0 0.0 0.0 0.0 0.0 1.2 0.6 0.2 0.1 1.3 1.0 0.6 1.5 1.8 2.0 2.0 2.4 2.8 2.4 3.5 5.8 5.3 nan nan
0.1 0.1 0.1 0.1 0.1 0.2 0.0 0.1 0.2 0.3 0.4 0.6 0.1 0.1 0.0 0.0 0.1 0.1 0.1 0.0 0.0 0.0 0.0 0.0 0.1 0.9 0.9 1.2 1.5 2.2 1.0 2.3 2.7 3.3 3.2 2.3 1.8 1.9 1.9 2.7 3.4 3.8 2.8 1.7
0.1 0.1 0.1 0.2 0.1 0.1 0.1 0.1 0.2 0.5 0.8 2.8 2.0 1.3 0.3 0.1 0.1 0.1 0.0 0.0 0.2 0.8 1.0 4.9 2.1 4.1 3.1 1.8 1.4 1.0 1.9 1.5 1.3 1.8 2.4 2.1 2.1 2.1 1.8 2.2 2.8 3.3 3.5 4.4
0.2 0.6 0.2 0.2 0.1 0.1 0.1 0.1 0.1 0.2 0.4 0.3 0.3 0.3 0.1 0.0 0.0 0.1 0.5 1.0 2.8 4.4 4.4 5.3 7.1 5.9 5.0 3.9 1.3 1.6 2.0 1.7 0.9 1.6 1.5 1.6 1.9 2.5 1.9 2.8 3.4 2.8 5.5 8.7
0.0 0.1 0.1 0.0 0.2 0.2 0.4 0.2 0.1 0.2 0.3 0.3 1.8 3.5 4.9 4.3 2.3 3.8 5.2 5.8 7.2 8.3 7.3 7.6 6.3 5.1 4.6 3.5 1.6 0.8 1.3 1.2 1.2 1.6 1.3 2.4 1.6 1.3 2.0 2.2 2.3 3.1 4.2 13.1
0.1 0.1 0.1 0.1 0.1 0.1 0.2 0.5 0.9 1.6 4.7 4.9 6.6 8.3 9.4 11.4 10.3 10.9 10.3 12.4 12.6 6.5 8.4 5.3 1.5 1.8 1.1 1.3 0.4 0.8 1.3 2.8 1.4 1.1 1.3 5.2 4.2 2.0 4.2 5.6 4.5 7.1 4.4 5.6
0.3 0.1 0.1 0.3 0.2 1.2 2.2 5.0 5.3 6.1 7.9 7.3 11.8 13.0 10.2 12.5 12.0 11.7 7.7 6.6 5.7 5.4 3.0 1.9 0.8 0.5 0.5 0.4 1.6 0.7 1.9 2.9 1.8 3.5 5.7 2.7 8.6 13.5 9.4 7.7 7.1 9.0 14.7 11.3
2.5 2.9 4.2 5.4 8.6 7.8 8.8 9.2 7.4 7.8 7.9 9.8 10.1 12.6 11.7 8.7 8.4 10.0 5.7 1.7 2.8 2.0 0.6 0.5 0.7 0.9 0.4 0.3 0.4 5.4 4.6 7.8 8.5 5.6 8.9 11.7 14.6 10.6 11.8 13.2 12.1 15.4 18.2 14.6
5.2 5.9 8.2 7.3 7.1 6.6 8.1 6.9 5.0 6.5 6.2 8.8 12.8 14.2 10.3 3.9 5.4 4.8 6.7 1.8 1.4 2.3 1.2 1.3 1.0 3.2 2.5 4.8 1.4 7.5 5.7 4.2 5.9 5.7 6.6 10.6 12.0 18.4 18.6 16.5 17.4 19.2 19.0 19.2
4.9 4.8 5.4 6.4 5.8 5.3 4.0 4.1 6.7 5.4 9.5 8.4 9.4 5.5 3.0 1.6 1.4 2.5 3.0 0.2 0.8 3.5 1.0 3.1 4.5 5.3 5.6 9.5 9.1 10.4 10.6 10.7 10.6 10.2 10.8 16.6 16.5 26.0 15.3 14.6 16.7 17.2 22.9 16.3
4.4 3.7 3.6 4.0 2.7 1.2 1.3 1.2 0.7 1.5 7.3 2.8 4.4 7.2 1.4 4.2 6.2 0.8 1.2 5.7 5.8 14.6 9.1 9.7 8.6 6.1 6.6 11.9 12.6 15.2 14.1 15.2 16.3 19.0 9.7 9.2 23.9 20.8 17.5 24.0 15.7 17.8 19.7 17.0
1.8 1.5 1.6 1.3 0.6 1.3 0.6 0.6 0.7 0.6 0.5 0.6 0.4 0.3 0.3 0.8 6.9 3.8 5.5 5.7 6.4 5.1 8.3 7.9 6.4 7.2 16.3 17.5 17.3 18.1 18.0 16.0 18.8 20.9 15.2 21.5 19.9 27.8 25.4 20.9 24.3 24.5 25.1 21.7
0.3 0.7 0.7 0.3 0.4 0.8 0.8 0.8 1.5 1.3 1.3 6.0 4.1 11.9 8.2 3.5 3.2 3.8 6.3 6.7 4.6 6.1 6.2 15.9 19.5 19.3 18.1 12.4 16.2 17.0 13.2 10.7 14.3 15.4 17.4 17.3 16.8 14.5 18.1 16.5 21.8 26.4 32.2 34.7
0.7 0.2 0.8 0.8 0.9 1.1 1.2 0.9 2.5 4.7 6.0 9.2 9.0 7.8 4.8 9.3 11.4 7.1 7.6 11.3 12.4 12.5 15.6 18.6 16.5 11.5 10.4 15.8 14.2 12.8 12.0 13.1 10.9 10.0 20.5 23.6 22.6 29.4 26.7 26.3 29.8 31.2 28.7 25.7

GFSNGP_prec_sndepth_138.txt.gz
Snowfall_Accumulation
0.0 0.0 0.0 0.0 0.0 0.0 0.0 0.0 0.5 0.0 0.0 0.0 0.0 0.0 0.0 0.0 0.0 0.0 0.0 0.0 0.0 0.0 0.0 0.0 0.0 0.0 0.0 0.0 0.0 0.0 0.0 0.1 0.2 0.1 0.1 0.1 0.1 0.1 0.1 0.1 0.0 0.0 0.0 0.0
0.0 0.0 0.0 0.0 0.0 0.0 0.0 0.0 0.0 0.0 0.0 0.0 0.0 0.0 0.0 0.0 0.0 0.0 0.0 0.0 0.0 0.0 0.0 0.0 0.0 0.0 0.0 0.1 0.1 0.1 0.1 0.9 1.8 0.3 0.4 0.9 0.5 0.7 0.3 0.1 0.2 0.6 0.3 0.2
0.4 0.0 0.0 0.4 0.0 0.0 0.0 0.0 0.0 0.7 0.0 0.0 0.0 0.0 0.0 0.0 0.0 0.0 0.0 0.0 0.0 0.1 0.1 0.1 0.1 0.1 0.1 0.2 0.1 0.2 0.5 0.6 1.5 1.9 1.5 3.2 0.8 0.6 1.4 1.5 0.9 1.0 3.4 1.7
0.9 0.2 3.0 0.0 0.0 0.0 0.0 0.0 0.0 0.0 0.0 0.0 0.0 0.0 0.0 0.0 0.0 0.0 0.1 0.1 0.2 0.3 0.2 0.3 0.2 0.2 0.2 0.3 0.5 0.6 1.4 1.7 1.1 1.6 3.4 1.4 3.4 4.9 4.8 4.7 6.4 7.0 3.5 4.8
2.9 0.8 0.0 0.0 0.1 0.9 0.3 0.1 0.0 0.0 0.0 0.0 0.0 0.0 0.1 0.0 0.1 0.2 0.6 2.5 0.9 0.9 0.8 0.7 0.9 0.8 1.0 1.1 0.6 0.5 3.6 3.6 4.6 4.4 4.8 3.2 5.6 9.6 6.9 5.0 5.1 7.5 8.4 7.0
1.3 0.5 5.7 0.8 0.0 0.0 0.0 1.1 0.0 0.0 0.0 0.0 0.0 0.7 1.7 0.2 0.1 0.4 0.9 1.9 4.7 2.3 1.5 0.6 0.9 0.2 1.2 1.6 1.9 3.6 3.6 3.8 2.4 3.4 5.2 8.2 5.3 5.4 7.5 5.7 7.0 5.5 5.5 6.6
1.0 2.0 0.6 0.0 0.0 0.0 1.1 0.4 0.0 0.0 0.0 0.1 0.7 0.4 1.4 0.8 1.4 0.9 1.7 1.3 0.5 1.9 4.7 2.5 0.5 0.3 1.0 2.8 4.1 4.7 2.9 2.8 2.4 0.9 2.0 3.1 3.2 4.4 4.8 5.6 5.2 6.9 6.9 7.2
3.0 4.6 5.2 0.0 0.0 0.1 0.6 0.1 0.1 0.1 0.1 0.1 0.9 2.4 4.0 3.6 2.5 1.5 1.3 0.6 0.2 0.3 0.8 2.0 1.5 1.4 2.2 1.3 2.8 1.3 2.1 2.1 2.2 2.8 1.9 1.4 1.8 2.4 3.8 5.0 6.1 7.9 7.7 7.6
0.2 1.7 0.1 0.1 0.1 0.1 0.1 0.1 0.1 0.1 0.2 0.2 1.6 3.9 4.7 5.6 3.5 1.9 0.8 0.3 0.2 0.2 0.4 0.3 0.1 0.1 2.1 2.5 0.3 0.7 0.5 1.2 2.1 1.5 1.1 1.3 1.9 2.6 2.0 1.6 2.7 5.6 7.7 10.1
0.1 0.1 0.0 0.0 0.0 0.0 0.0 0.1 0.1 0.1 0.1 0.3 4.8 6.2 6.0 3.5 2.2 0.9 0.4 0.4 0.2 0.2 0.3 0.1 0.0 0.0 0.0 0.1 0.1 0.5 0.4 0.3 0.2 0.4 0.9 0.8 1.0 1.7 2.3 3.1 3.7 4.1 5.2 6.0
0.2 0.1 0.0 0.0 0.0 0.0 0.1 0.1 0.1 0.2 0.3 1.0 1.2 1.8 1.0 1.3 0.9 0.4 0.3 0.3 0.1 0.1 0.1 0.0 0.0 0.0 0.0 0.0 0.0 0.0 0.0 0.1 0.1 0.3 0.2 0.7 2.0 1.8 1.7 4.3 4.0 5.4 7.4 6.7
1.3 0.0 0.0 0.0 0.0 0.0 0.1 0.2 0.1 0.1 0.8 0.8 0.2 1.0 0.4 1.5 1.1 0.4 0.3 0.1 0.1 0.0 0.0 0.0 0.0 0.0 0.0 0.0 0.0 0.1 0.0 0.3 0.5 0.4 0.6 0.7 0.8 1.7 nan nan nan nan nan 4.1
0.4 0.0 0.0 0.0 0.0 0.0 0.1 0.1 0.1 0.1 0.2 0.6 0.6 0.3 0.2 0.4 0.3 nan 0.1 0.1 0.1 0.0 0.0 0.0 0.0 0.1 0.3 1.4 2.0 3.8 3.2 1.9 1.8 1.5 2.8 2.9 2.4 3.6 4.7 7.2 nan nan nan nan
0.0 0.0 0.2 0.1 0.7 0.0 0.0 0.1 0.1 0.1 0.1 0.1 0.2 0.1 0.1 0.1 0.0 0.0 0.0 0.0 0.0 0.0 0.0 0.0 0.0 0.7 0.3 0.1 0.1 1.2 0.8 0.4 1.3 1.6 1.8 1.7 2.0 2.4 2.1 3.2 5.6 5.1 nan nan
0.0 0.0 0.0 0.0 0.0 0.1 0.0 0.0 0.1 0.1 0.2 0.3 0.1 0.1 0.0 0.0 0.0 0.1 0.0 0.0 0.0 0.0 0.0 0.0 0.0 0.4 0.5 1.0 1.3 1.9 0.7 1.9 2.3 2.9 2.9 2.0 1.4 1.6 1.6 2.3 3.0 3.6 2.7 1.6
0.0 0.0 0.0 0.1 0.1 0.0 0.0 0.1 0.1 0.3 0.5 1.9 1.1 0.7 0.1 0.1 0.0 0.0 0.0 0.0 0.1 0.5 0.4 4.8 1.8 3.8 2.8 1.4 1.0 0.7 1.7 1.4 1.1 1.5 2.1 1.8 1.8 1.8 1.6 1.9 2.5 3.1 3.3 4.2
0.1 0.2 0.1 0.1 0.1 0.1 0.0 0.0 0.0 0.1 0.2 0.2 0.1 0.1 0.0 0.0 0.0 0.1 0.2 0.5 2.5 4.2 4.3 5.1 6.9 5.8 4.8 3.5 0.8 1.3 1.6 1.4 0.9 1.3 1.3 1.3 1.7 2.2 1.7 2.6 3.2 2.6 5.3 8.5
0.0 0.0 0.0 0.0 0.1 0.1 0.2 0.1 0.1 0.1 0.2 0.1 1.2 3.0 4.8 4.2 1.8 3.6 5.1 5.7 7.1 8.1 7.1 7.4 6.2 5.0 4.5 2.9 1.0 0.7 1.0 1.0 1.0 1.4 1.1 2.1 1.4 1.1 1.9 2.1 2.2 2.9 4.1 12.9
0.0 0.0 0.0 0.0 0.0 0.1 0.1 0.3 0.5 1.0 3.7 4.3 6.4 8.1 9.2 11.2 10.2 10.7 10.1 12.3 12.4 6.3 8.3 5.2 1.5 1.7 0.9 1.1 0.3 0.7 1.1 2.5 1.2 0.9 1.1 5.1 4.0 1.9 4.1 5.4 4.4 7.0 4.2 5.4
0.1 0.1 0.1 0.1 0.1 0.7 1.3 3.5 3.8 5.1 6.9 7.2 11.7 12.9 10.2 12.6 11.9 11.6 7.6 6.5 5.4 5.1 2.9 1.8 0.7 0.4 0.4 0.3 1.5 0.6 1.8 2.7 1.6 3.3 5.5 2.6 8.4 13.2 9.1 7.7 6.9 8.8 14.5 11.1
1.1 1.8 3.0 4.1 6.9 6.1 7.0 7.4 6.6 7.7 7.9 9.7 10.0 12.6 11.6 8.7 8.4 9.9 5.7 1.8 2.9 1.9 0.6 0.5 0.6 0.9 0.4 0.3 0.4 5.3 4.5 7.6 8.3 5.5 8.7 11.5 14.4 10.4 11.6 13.0 12.0 15.2 18.0 14.4
3.5 4.3 6.4 5.9 6.0 5.3 6.3 5.2 3.7 6.3 6.2 8.8 13.0 14.2 10.4 4.0 5.6 4.9 6.6 1.8 1.5 2.3 1.2 1.2 0.9 3.2 2.5 4.8 1.4 7.4 5.5 4.1 5.7 5.6 6.4 10.4 11.8 18.2 18.4 16.3 17.1 18.9 18.8 19.0
3.4 3.4 4.2 5.8 5.0 4.1 3.0 3.2 5.9 5.1 9.4 8.3 9.3 5.5 3.0 1.5 1.3 2.4 3.0 0.2 0.8 3.5 0.9 3.0 4.5 5.3 5.6 9.4 9.0 10.2 10.4 10.5 10.4 10.0 10.6 16.4 16.2 25.6 15.1 14.4 16.4 17.0 22.6 16.1
3.0 2.4 2.5 2.9 2.1 0.8 1.0 0.9 0.4 1.1 7.3 2.8 4.4 7.2 1.2 4.2 6.1 0.7 1.0 5.7 5.8 14.5 9.0 9.6 8.5 6.1 6.6 11.8 12.4 15.0 13.8 14.9 16.1 18.7 9.5 9.2 23.6 20.5 17.2 23.7 15.4 17.6 19.5 16.8
0.8 0.8 1.1 0.9 0.4 1.1 0.4 0.3 0.5 0.4 0.4 0.5 0.4 0.4 0.3 0.7 6.7 3.7 5.4 5.7 6.4 5.1 8.2 7.9 6.4 7.2 16.1 17.2 17.1 17.8 17.8 15.8 18.5 20.6 14.9 21.2 19.7 27.4 25.1 20.6 24.0 24.2 24.8 21.5
0.1 0.5 0.5 0.1 0.3 0.6 0.6 0.6 1.2 1.1 1.2 6.1 4.3 12.0 8.2 3.3 3.3 3.8 6.3 6.7 4.6 6.1 6.1 15.7 19.3 19.1 17.8 12.2 16.0 16.8 13.0 10.5 14.0 15.1 17.2 17.0 16.5 14.2 17.9 16.3 21.5 26.0 31.8 34.2
0.6 0.2 0.7 0.6 0.7 0.8 0.9 0.7 2.1 4.5 5.8 9.1 8.8 7.8 4.9 9.4 11.3 7.1 7.6 11.2 12.3 12.3 15.4 18.4 16.3 11.4 10.2 15.6 14.0 12.6 11.8 12.9 10.9 9.8 20.2 23.2 22.2 29.0 26.3 25.9 29.4 30.8 28.4 25.4

GFSNGP_prec_sndepth_141.txt.gz
Snowfall_Accumulation
0.0 0.0 0.0 0.0 0.0 0.0 0.0 0.0 0.5 0.0 0.0 0.0 0.0 0.0 0.0 0.0 0.0 0.0 0.0 0.0 0.0 0.0 0.0 0.0 0.0 0.0 0.0 0.0 0.0 0.0 0.0 0.1 0.2 0.1 0.1 0.1 0.1 0.1 0.1 0.1 0.0 0.0 0.0 0.0
0.0 0.0 0.0 0.0 0.0 0.0 0.0 0.0 0.0 0.0 0.0 0.0 0.0 0.0 0.0 0.0 0.0 0.0 0.0 0.0 0.0 0.0 0.0 0.0 0.0 0.0 0.0 0.1 0.1 0.1 0.1 0.9 1.8 0.3 0.4 0.9 0.5 0.7 0.3 0.1 0.2 0.6 0.3 0.2
0.4 0.0 0.0 0.4 0.0 0.0 0.0 0.0 0.0 0.7 0.0 0.0 0.0 0.0 0.0 0.0 0.0 0.0 0.0 0.0 0.0 0.1 0.1 0.1 0.1 0.1 0.1 0.1 0.1 0.2 0.5 0.6 1.5 1.9 1.5 3.2 0.8 0.6 1.4 1.5 0.9 1.0 3.4 1.7
1.0 0.2 3.4 0.0 0.0 0.0 0.0 0.0 0.0 0.0 0.0 0.0 0.0 0.0 0.0 0.0 0.0 0.0 0.1 0.1 0.1 0.2 0.2 0.3 0.2 0.1 0.2 0.3 0.5 0.6 1.4 1.7 1.1 1.6 3.4 1.4 3.4 4.9 4.8 4.7 6.4 7.0 3.5 4.8
3.0 0.8 0.0 0.0 0.1 0.8 0.2 0.1 0.0 0.0 0.0 0.0 0.0 0.0 0.1 0.0 0.0 0.1 0.6 2.4 0.8 0.9 0.8 0.6 0.8 0.8 1.0 1.1 0.6 0.5 3.6 3.6 4.6 4.5 4.8 3.2 5.6 9.6 6.9 5.0 5.1 7.5 8.4 7.0
1.3 0.5 5.8 0.7 0.0 0.0 0.0 1.0 0.0 0.0 0.0 0.0 0.0 0.9 1.5 0.1 0.1 0.3 0.8 1.9 4.7 2.3 1.5 0.6 0.9 0.2 1.2 1.6 1.9 3.6 3.6 3.8 2.4 3.4 5.2 8.2 5.3 5.4 7.5 5.7 7.0 5.5 5.5 6.6
1.0 2.0 0.6 0.0 0.0 0.0 1.2 0.4 0.0 0.0 0.0 0.1 0.6 0.4 1.2 0.7 1.3 0.8 1.7 1.3 0.5 1.9 4.7 2.5 0.5 0.3 1.0 2.8 4.1 4.7 2.9 2.8 2.4 0.9 2.0 3.1 3.2 4.4 4.8 5.6 5.2 6.9 6.9 7.2
3.3 5.1 6.6 0.0 0.0 0.2 0.7 0.1 0.1 0.1 0.1 0.1 0.8 2.4 3.9 3.6 2.5 1.5 1.3 0.6 0.2 0.3 0.8 2.0 1.5 1.4 2.2 1.3 2.8 1.3 2.1 2.1 2.2 2.8 1.9 1.4 1.8 2.5 3.8 5.0 6.1 7.9 7.7 7.6
0.4 1.6 0.1 0.0 0.1 0.1 0.0 0.1 0.1 0.1 0.1 0.2 1.6 3.9 4.7 5.6 3.5 1.9 0.8 0.3 0.2 0.2 0.4 0.4 0.1 0.1 2.1 2.5 0.3 0.7 0.5 1.2 2.1 1.5 1.1 1.3 1.9 2.6 2.0 1.6 2.6 5.6 7.7 10.1
0.2 0.1 0.0 0.0 0.0 0.0 0.0 0.1 0.1 0.1 0.1 0.3 4.8 6.1 6.0 3.5 2.2 0.9 0.4 0.4 0.2 0.2 0.3 0.1 0.0 0.0 0.0 0.1 0.1 0.5 0.4 0.3 0.2 0.3 0.8 0.8 1.0 1.7 2.3 3.1 3.7 4.1 5.2 6.0
0.3 0.1 0.0 0.0 0.0 0.0 0.1 0.1 0.1 0.2 0.2 1.0 1.1 1.8 1.0 1.3 0.9 0.4 0.3 0.3 0.1 0.1 0.1 0.0 0.0 0.0 0.0 0.0 0.0 0.0 0.0 0.1 0.1 0.3 0.2 0.7 2.0 1.8 1.7 4.3 4.0 5.4 7.4 6.7
1.8 0.0 0.0 0.0 0.0 0.0 0.1 0.2 0.1 0.1 0.7 0.7 0.2 1.0 0.4 1.5 1.1 0.3 0.3 0.1 0.1 0.0 0.0 0.0 0.0 0.0 0.0 0.0 0.0 0.1 0.0 0.3 0.5 0.4 0.6 0.6 0.8 1.7 nan nan nan nan nan 4.1
0.4 0.0 0.0 0.0 0.0 0.0 0.1 0.1 0.1 0.1 0.1 0.5 0.6 0.3 0.2 0.4 0.3 nan 0.1 0.1 0.0 0.0 0.0 0.0 0.0 0.1 0.3 1.4 2.0 3.8 3.2 1.9 1.8 1.5 2.8 2.9 2.4 3.6 4.7 7.2 nan nan nan nan
0.0 0.0 0.1 0.1 0.7 0.0 0.0 0.1 0.0 0.1 0.1 0.1 0.1 0.1 0.1 0.1 0.0 0.0 0.0 0.0 0.0 0.0 0.0 0.0 0.0 0.7 0.3 0.1 0.1 1.2 0.8 0.4 1.3 1.6 1.8 1.7 2.0 2.3 2.1 3.2 5.7 5.1 nan nan
0.0 0.0 0.0 0.0 0.0 0.0 0.0 0.0 0.1 0.1 0.2 0.3 0.1 0.1 0.0 0.0 0.0 0.1 0.0 0.0 0.0 0.0 0.0 0.0 0.0 0.4 0.5 0.9 1.2 1.9 0.7 1.9 2.3 2.9 2.9 2.0 1.4 1.6 1.6 2.3 3.0 3.6 2.7 1.6
0.0 0.0 0.0 0.1 0.0 0.0 0.0 0.0 0.1 0.3 0.4 1.9 1.1 0.7 0.1 0.0 0.0 0.0 0.0 0.0 0.1 0.5 0.4 4.8 1.8 3.8 2.8 1.4 1.0 0.7 1.7 1.4 1.1 1.5 2.1 1.8 1.8 1.8 1.5 1.9 2.5 3.1 3.3 4.2
0.1 0.2 0.1 0.1 0.1 0.1 0.0 0.0 0.0 0.1 0.2 0.2 0.1 0.1 0.0 0.0 0.0 0.1 0.2 0.5 2.5 4.2 4.2 5.1 6.9 5.8 4.8 3.5 0.7 1.3 1.6 1.4 0.9 1.3 1.3 1.3 1.7 2.2 1.7 2.6 3.2 2.6 5.3 8.5
0.0 0.0 0.0 0.0 0.1 0.1 0.2 0.1 0.1 0.1 0.2 0.1 1.2 3.0 4.8 4.1 1.8 3.6 5.1 5.7 7.1 8.1 7.1 7.4 6.1 5.0 4.5 2.9 1.0 0.7 1.0 1.0 1.0 1.4 1.1 2.1 1.4 1.1 1.9 2.1 2.2 2.9 4.1 12.9
0.0 0.0 0.0 0.0 0.0 0.1 0.1 0.3 0.5 1.0 3.7 4.3 6.4 8.1 9.2 11.2 10.1 10.7 10.1 12.3 12.4 6.3 8.3 5.1 1.5 1.7 0.9 1.1 0.3 0.7 1.1 2.5 1.2 0.9 1.1 5.1 4.0 1.9 4.1 5.4 4.4 7.0 4.2 5.4
0.1 0.1 0.1 0.1 0.1 0.7 1.3 3.5 3.8 5.1 6.9 7.2 11.8 13.0 10.4 12.6 11.9 11.6 7.6 6.5 5.4 5.1 2.9 1.8 0.7 0.4 0.4 0.3 1.5 0.6 1.7 2.7 1.5 3.3 5.5 2.6 8.4 13.2 9.1 7.7 6.9 8.8 14.5 11.1
1.1 1.7 3.0 4.1 6.9 6.1 7.0 7.4 6.6 7.7 8.0 9.7 10.0 12.6 11.6 8.8 8.4 9.9 5.8 1.8 3.0 1.8 0.6 0.5 0.6 0.8 0.4 0.3 0.4 5.3 4.5 7.6 8.3 5.5 8.6 11.5 14.3 10.4 11.6 13.0 12.0 15.2 18.0 14.4
3.5 4.2 6.3 5.8 6.0 5.3 6.3 5.2 3.7 6.4 6.2 8.9 13.1 14.3 10.4 4.1 5.7 4.9 6.6 1.8 1.6 2.3 1.1 1.2 0.9 3.2 2.4 4.8 1.4 7.4 5.5 4.1 5.7 5.6 6.4 10.4 11.8 18.1 18.3 16.3 17.1 18.9 18.8 19.0
3.4 3.4 4.2 5.8 5.0 4.1 3.0 3.2 5.9 5.1 9.4 8.4 9.3 5.5 3.0 1.5 1.3 2.4 3.2 0.3 0.8 3.5 0.9 2.9 4.5 5.3 5.6 9.3 9.0 10.2 10.4 10.5 10.4 10.0 10.6 16.4 16.2 25.5 15.0 14.4 16.4 17.0 22.6 16.1
3.0 2.4 2.5 2.9 2.1 0.9 1.0 0.9 0.5 1.1 7.3 2.8 4.4 7.2 1.2 4.2 6.1 0.7 1.0 5.7 5.8 14.5 9.0 9.6 8.5 6.1 6.6 11.7 12.4 14.9 13.8 14.9 16.1 18.6 9.5 9.2 23.5 20.4 17.1 23.6 15.4 17.6 19.5 16.8
0.8 0.8 1.1 0.9 0.4 1.1 0.4 0.3 0.5 0.5 0.5 0.5 0.4 0.4 0.3 0.7 6.7 3.8 5.4 5.6 6.5 5.1 8.2 7.9 6.4 7.2 16.1 17.2 17.1 17.8 17.7 15.7 18.5 20.5 14.9 21.1 19.6 27.3 25.0 20.6 24.0 24.1 24.8 21.4
0.1 0.5 0.5 0.1 0.3 0.6 0.6 0.6 1.2 1.1 1.2 6.1 4.3 12.0 8.2 3.3 3.4 3.8 6.3 6.7 4.7 6.1 6.2 15.8 19.3 19.0 17.8 12.2 15.9 16.8 12.9 10.5 14.0 15.1 17.1 17.0 16.5 14.2 17.8 16.3 21.5 26.0 31.7 34.1
0.6 0.2 0.6 0.6 0.6 0.8 0.9 0.7 2.1 4.5 5.8 9.1 8.8 7.9 5.0 9.5 11.3 7.1 7.6 11.3 12.4 12.3 15.4 18.4 16.2 11.4 10.2 15.6 14.0 12.6 11.8 12.9 10.9 9.8 20.1 23.2 22.2 28.9 26.3 25.9 29.3 30.7 28.3 25.3

GFSNGP_prec_sndepth_144.txt.gz
Snowfall_Accumulation
0.0 0.0 0.0 0.0 0.1 0.0 0.0 0.0 0.5 0.0 0.0 0.0 0.0 0.0 0.0 0.0 0.0 0.0 0.0 0.0 0.0 0.0 0.0 0.0 0.0 0.0 0.0 0.0 0.0 0.0 0.0 0.1 0.2 0.1 0.1 0.1 0.1 0.1 0.1 0.1 0.0 0.0 0.0 0.0
0.0 0.0 0.0 0.0 0.0 0.0 0.0 0.0 0.0 0.0 0.0 0.0 0.0 0.0 0.0 0.0 0.0 0.0 0.0 0.0 0.0 0.0 0.0 0.0 0.0 0.0 0.0 0.1 0.1 0.1 0.1 0.9 1.8 0.3 0.4 0.9 0.5 0.7 0.3 0.1 0.2 0.6 0.3 0.2
0.4 0.0 0.0 0.4 0.0 0.0 0.0 0.0 0.0 0.7 0.0 0.0 0.0 0.0 0.0 0.0 0.0 0.0 0.0 0.0 0.0 0.0 0.1 0.1 0.1 0.1 0.1 0.1 0.1 0.2 0.5 0.6 1.5 1.9 1.5 3.2 0.8 0.6 1.4 1.5 0.9 1.0 3.4 1.7
1.1 0.2 4.3 0.0 0.0 0.0 0.0 0.0 0.0 0.0 0.0 0.0 0.0 0.0 0.0 0.0 0.0 0.0 0.1 0.1 0.1 0.2 0.2 0.3 0.2 0.1 0.2 0.3 0.5 0.6 1.4 1.7 1.1 1.6 3.4 1.5 3.4 4.9 4.8 4.7 6.4 7.0 3.5 4.8
3.0 0.8 0.0 0.0 0.1 0.8 0.2 0.1 0.0 0.0 0.0 0.0 0.0 0.0 0.1 0.0 0.0 0.2 0.7 2.5 0.9 0.9 0.8 0.6 0.8 0.8 1.0 1.1 0.6 0.5 3.6 3.6 4.6 4.5 4.8 3.2 5.6 9.6 6.9 5.0 5.1 7.5 8.4 7.0
1.3 0.5 5.8 0.7 0.0 0.0 0.0 1.0 0.0 0.0 0.0 0.0 0.0 0.9 1.5 0.1 0.1 0.3 0.8 1.8 4.7 2.3 1.5 0.6 0.9 0.2 1.2 1.6 1.9 3.6 3.6 3.8 2.4 3.4 5.2 8.2 5.3 5.5 7.6 5.7 7.0 5.5 5.5 6.6
1.0 2.1 0.6 0.0 0.0 0.0 1.2 0.4 0.0 0.0 0.0 0.0 0.7 0.4 1.1 0.7 1.3 0.8 1.7 1.3 0.5 1.9 4.7 2.5 0.5 0.3 1.0 2.8 4.1 4.7 2.9 2.8 2.4 0.9 2.0 3.1 3.2 4.4 4.8 5.7 5.3 6.9 6.9 7.2
3.3 5.2 6.8 0.0 0.0 0.3 0.7 0.1 0.1 0.1 0.1 0.1 0.8 2.3 3.9 3.6 2.5 1.4 1.3 0.5 0.2 0.3 0.8 2.0 1.5 1.4 2.2 1.3 2.8 1.3 2.1 2.1 2.2 2.8 1.9 1.4 1.8 2.5 3.8 5.0 6.1 7.9 7.7 7.6
0.7 1.6 0.1 0.0 0.1 0.0 0.0 0.0 0.1 0.1 0.1 0.1 1.5 3.9 4.7 5.6 3.5 1.9 0.8 0.3 0.2 0.2 0.4 0.4 0.1 0.1 2.1 2.5 0.3 0.7 0.5 1.2 2.1 1.5 1.1 1.3 1.9 2.6 2.0 1.6 2.6 5.6 7.7 10.1
0.2 0.1 0.0 0.0 0.0 0.0 0.0 0.1 0.1 0.1 0.1 0.3 4.8 6.1 5.9 3.5 2.2 0.9 0.4 0.4 0.2 0.2 0.3 0.2 0.0 0.0 0.0 0.1 0.1 0.5 0.4 0.3 0.2 0.3 0.8 0.7 1.0 1.7 2.3 3.1 3.7 4.1 5.1 6.0
0.3 0.1 0.0 0.0 0.0 0.0 0.1 0.1 0.1 0.2 0.2 1.0 1.1 1.8 1.0 1.3 0.9 0.4 0.3 0.3 0.1 0.1 0.1 0.0 0.0 0.0 0.0 0.0 0.0 0.0 0.0 0.0 0.1 0.3 0.2 0.7 2.0 1.8 1.7 4.3 4.0 5.4 7.4 6.7
1.8 0.0 0.0 0.1 0.0 0.0 0.1 0.2 0.1 0.1 0.7 0.7 0.2 1.0 0.4 1.5 1.1 0.3 0.3 0.1 0.0 0.0 0.0 0.0 0.0 0.0 0.0 0.0 0.0 0.1 0.0 0.3 0.5 0.4 0.6 0.6 0.8 1.7 nan nan nan nan nan 4.1
0.4 0.0 0.0 0.0 0.0 0.0 0.0 0.1 0.1 0.1 0.1 0.5 0.5 0.3 0.2 0.4 0.3 nan 0.1 0.1 0.0 0.0 0.0 0.0 0.0 0.1 0.3 1.4 2.0 3.8 3.2 1.9 1.8 1.5 2.8 2.9 2.4 3.6 4.7 7.2 nan nan nan nan
0.0 0.0 0.1 0.1 0.7 0.0 0.0 0.1 0.0 0.1 0.1 0.1 0.1 0.1 0.1 0.1 0.1 0.0 0.0 0.0 0.0 0.0 0.0 0.0 0.0 0.7 0.3 0.1 0.1 1.2 0.8 0.4 1.3 1.6 1.8 1.7 2.0 2.3 2.1 3.2 5.7 5.1 nan nan
0.0 0.0 0.0 0.0 0.0 0.0 0.0 0.0 0.1 0.1 0.2 0.3 0.0 0.1 0.0 0.1 0.1 0.1 0.0 0.0 0.0 0.0 0.0 0.0 0.0 0.4 0.5 0.9 1.2 1.9 0.7 1.9 2.3 2.9 2.8 2.0 1.4 1.6 1.5 2.3 3.0 3.6 2.7 1.6
0.0 0.0 0.0 0.1 0.0 0.0 0.0 0.0 0.1 0.3 0.4 1.9 1.2 0.7 0.1 0.0 0.0 0.0 0.0 0.0 0.1 0.5 0.4 4.7 1.8 3.8 2.8 1.4 1.0 0.7 1.7 1.4 1.1 1.5 2.1 1.8 1.8 1.8 1.5 1.9 2.5 3.1 3.3 4.2
0.1 0.2 0.1 0.1 0.1 0.1 0.0 0.0 0.0 0.1 0.3 0.2 0.2 0.1 0.0 0.0 0.0 0.1 0.3 0.5 2.5 4.2 4.2 5.0 6.9 5.7 4.8 3.5 0.7 1.3 1.6 1.4 0.9 1.3 1.3 1.3 1.7 2.2 1.7 2.6 3.2 2.6 5.3 8.5
0.0 0.0 0.0 0.0 0.1 0.1 0.2 0.1 0.1 0.1 0.2 0.2 1.3 3.0 4.8 4.2 1.9 3.7 5.1 5.7 7.1 8.1 7.1 7.4 6.1 5.0 4.5 2.8 1.0 0.7 1.0 1.0 1.0 1.4 1.1 2.1 1.4 1.1 1.9 2.1 2.2 2.9 4.1 12.9
0.0 0.0 0.0 0.0 0.0 0.1 0.1 0.3 0.5 1.0 3.7 4.3 6.4 8.1 9.2 11.1 10.1 10.7 10.0 12.2 12.4 6.3 8.3 5.1 1.5 1.7 0.9 1.0 0.3 0.7 1.1 2.5 1.1 0.9 1.1 5.1 4.0 1.9 4.1 5.4 4.4 6.9 4.2 5.4
0.1 0.1 0.1 0.1 0.1 0.7 1.3 3.5 3.8 5.2 6.8 7.2 11.8 13.0 10.4 12.6 11.9 11.6 7.6 6.5 5.4 5.0 2.9 1.7 0.7 0.4 0.4 0.3 1.5 0.6 1.7 2.6 1.5 3.2 5.5 2.6 8.4 13.2 9.1 7.7 6.9 8.8 14.5 11.1
1.1 1.7 2.9 4.1 6.9 6.1 7.0 7.3 6.6 7.7 8.0 9.7 10.0 12.6 11.6 8.8 8.4 9.9 5.8 1.9 3.1 1.8 0.5 0.5 0.6 0.8 0.4 0.3 0.4 5.3 4.5 7.6 8.3 5.4 8.6 11.5 14.3 10.4 11.6 13.0 11.9 15.2 17.9 14.4
3.5 4.2 6.3 5.8 6.0 5.3 6.3 5.2 3.7 6.4 6.3 8.9 13.1 14.3 10.4 4.2 5.7 5.0 6.6 1.8 1.6 2.3 1.1 1.2 0.9 3.2 2.4 4.8 1.4 7.4 5.5 4.1 5.7 5.6 6.4 10.4 11.7 18.1 18.3 16.2 17.1 18.9 18.8 19.0
3.4 3.4 4.2 5.8 5.0 4.1 3.1 3.2 5.9 5.1 9.5 8.4 9.3 5.5 3.0 1.5 1.3 2.5 3.2 0.3 0.8 3.5 0.9 2.9 4.5 5.3 5.6 9.3 9.0 10.2 10.4 10.5 10.4 10.0 10.6 16.3 16.2 25.5 15.0 14.4 16.4 17.0 22.6 16.1
3.0 2.4 2.5 2.9 2.1 0.9 1.0 1.0 0.5 1.1 7.3 2.8 4.4 7.2 1.2 4.2 6.1 0.7 1.0 5.7 5.8 14.5 8.9 9.6 8.5 6.1 6.6 11.7 12.3 14.9 13.8 14.9 16.0 18.6 9.5 9.2 23.5 20.4 17.1 23.6 15.4 17.5 19.4 16.8
0.8 0.8 1.1 0.9 0.4 1.1 0.4 0.4 0.5 0.5 0.5 0.6 0.4 0.4 0.3 0.7 6.7 3.9 5.4 5.6 6.5 5.1 8.2 7.9 6.4 7.2 16.0 17.2 17.0 17.8 17.7 15.7 18.4 20.5 14.9 21.1 19.6 27.3 25.0 20.5 23.9 24.1 24.7 21.4
0.1 0.5 0.5 0.1 0.3 0.6 0.6 0.6 1.2 1.1 1.2 6.2 4.3 12.1 8.2 3.3 3.4 3.8 6.3 6.7 4.7 6.1 6.2 15.7 19.2 19.0 17.8 12.2 15.9 16.7 12.9 10.5 14.0 15.0 17.1 16.9 16.5 14.2 17.8 16.3 21.5 25.9 31.6 34.0
0.6 0.2 0.6 0.6 0.6 0.8 0.9 0.7 2.1 4.6 5.8 9.1 8.8 7.9 5.0 9.6 11.4 7.1 7.6 11.4 12.4 12.4 15.5 18.4 16.2 11.3 10.2 15.6 14.0 12.6 11.8 12.9 10.9 9.8 20.1 23.1 22.1 28.8 26.2 25.8 29.2 30.7 28.2 25.3

GFSNGP_prec_sndepth_150.txt.gz
Snowfall_Accumulation
0.0 0.0 0.0 0.2 0.1 0.1 0.6 0.8 2.8 0.2 0.7 0.0 0.0 0.0 0.0 0.0 0.0 0.0 0.0 0.0 0.0 0.0 0.0 0.0 0.0 0.0 0.0 0.0 0.0 0.0 0.0 0.1 0.2 0.1 0.1 0.1 0.1 0.1 0.1 0.1 0.0 0.0 0.0 0.0
0.1 0.0 0.0 0.4 0.1 0.0 0.0 0.1 0.1 0.1 0.1 0.0 0.0 0.0 0.0 0.0 0.0 0.0 0.0 0.0 0.0 0.0 0.0 0.0 0.0 0.0 0.0 0.0 0.2 0.2 0.1 0.9 1.8 0.3 0.4 0.9 0.5 0.7 0.3 0.1 0.2 0.6 0.3 0.2
0.4 0.0 0.0 0.8 0.0 0.0 0.0 0.0 0.0 0.7 0.0 0.0 0.0 0.0 0.0 0.0 0.0 0.0 0.0 0.0 0.0 0.0 0.0 0.1 0.1 0.1 0.1 0.2 0.2 0.2 0.4 0.6 1.5 1.9 1.5 3.2 0.8 0.6 1.4 1.5 0.9 1.0 3.4 1.7
1.3 0.3 5.0 0.0 0.0 0.0 0.0 0.0 0.0 0.0 0.0 0.0 0.0 0.0 0.0 0.0 0.0 0.0 0.0 0.1 0.1 0.2 0.2 0.3 0.1 0.1 0.2 0.3 0.6 0.6 1.4 1.7 1.1 1.6 3.4 1.4 3.4 4.9 4.8 4.7 6.4 7.0 3.5 4.8
3.3 0.8 0.0 0.0 0.1 0.8 0.2 0.1 0.0 0.0 0.0 0.0 0.0 0.0 0.1 0.0 0.0 0.1 0.6 2.5 0.9 0.9 0.8 0.6 0.8 0.8 1.0 1.4 0.9 0.6 3.6 3.6 4.7 4.5 4.8 3.2 5.6 9.6 6.9 5.0 5.1 7.5 8.4 7.0
1.3 0.6 5.8 0.7 0.0 0.0 0.0 1.0 0.0 0.0 0.0 0.0 0.0 0.9 1.5 0.1 0.1 0.3 0.8 1.9 4.7 2.2 1.4 0.6 0.9 0.3 1.5 2.3 2.5 3.6 3.6 3.8 2.3 3.4 5.2 8.2 5.3 5.5 7.6 5.7 7.0 5.5 5.5 6.6
1.0 2.1 0.5 0.0 0.0 0.0 1.2 0.4 0.0 0.0 0.0 0.0 0.7 0.4 1.1 0.6 1.2 0.8 1.7 1.3 0.5 1.9 4.7 2.5 0.5 0.3 1.1 3.0 4.1 4.6 2.9 2.8 2.4 0.9 2.0 3.1 3.3 4.5 4.9 5.7 5.3 6.9 6.9 7.2
3.3 5.2 6.8 0.0 0.0 0.4 0.7 0.1 0.0 0.1 0.1 0.1 0.7 2.1 3.8 3.5 2.5 1.4 1.3 0.5 0.2 0.3 0.7 2.0 1.4 1.4 2.3 1.3 2.8 1.3 2.1 2.1 2.2 2.8 1.9 1.4 1.8 2.6 3.9 5.0 6.1 7.9 7.7 7.6
0.6 1.6 0.1 0.0 0.1 0.0 0.0 0.0 0.1 0.1 0.1 0.1 1.4 3.6 4.6 5.6 3.5 1.9 0.8 0.3 0.2 0.2 0.4 0.4 0.1 0.1 2.2 2.5 0.3 0.7 0.4 1.2 2.1 1.5 1.1 1.3 1.9 2.6 2.0 1.6 2.6 5.6 7.7 10.1
0.2 0.1 0.0 0.0 0.0 0.0 0.0 0.1 0.1 0.1 0.1 0.3 4.7 5.7 5.9 3.5 2.2 0.9 0.4 0.4 0.2 0.2 0.3 0.2 0.0 0.1 0.1 0.1 0.1 0.5 0.4 0.3 0.2 0.3 0.9 0.8 1.1 1.7 2.3 3.1 3.7 4.1 5.1 6.0
0.3 0.1 0.0 0.0 0.0 0.0 0.0 0.1 0.1 0.1 0.2 1.0 1.1 1.7 1.0 1.3 0.9 0.4 0.3 0.3 0.1 0.1 0.1 0.1 0.0 0.0 0.0 0.0 0.0 0.0 0.1 0.1 0.1 0.3 0.2 0.7 2.0 1.8 1.7 4.3 4.0 5.4 7.4 6.7
1.8 0.0 0.0 0.1 0.0 0.0 0.1 0.1 0.1 0.1 0.7 0.7 0.2 1.0 0.4 1.5 1.1 0.3 0.3 0.1 0.1 0.1 0.0 0.1 0.0 0.0 0.0 0.0 0.0 0.1 0.1 0.3 0.5 0.4 0.6 0.6 0.8 1.7 nan nan nan nan nan 4.1
0.3 0.0 0.0 0.0 0.0 0.0 0.0 0.1 0.1 0.1 0.2 0.5 0.5 0.2 0.2 0.4 0.3 nan 0.2 0.1 0.1 0.1 0.0 0.1 0.2 0.2 0.3 1.4 2.0 3.8 3.2 1.9 1.7 1.5 2.8 2.9 2.4 3.6 4.7 7.2 nan nan nan nan
0.0 0.0 0.1 0.1 0.6 0.0 0.0 0.1 0.0 0.1 0.1 0.1 0.1 0.1 0.1 0.1 0.1 0.1 0.0 0.0 0.0 0.0 0.1 0.1 0.1 0.8 0.3 0.1 0.1 1.1 0.8 0.4 1.3 1.6 1.8 1.7 2.0 2.3 2.1 3.2 5.7 5.1 nan nan
0.0 0.0 0.0 0.0 0.0 0.0 0.0 0.0 0.1 0.2 0.2 0.3 0.0 0.1 0.0 0.1 0.1 0.1 0.0 0.0 0.0 0.1 0.1 0.1 0.1 0.5 0.5 0.9 1.2 1.8 0.7 1.9 2.3 2.9 2.8 2.0 1.4 1.6 1.5 2.3 3.0 3.6 2.7 1.6
0.0 0.0 0.0 0.1 0.0 0.0 0.0 0.1 0.1 0.3 0.5 1.9 1.2 0.7 0.1 0.0 0.0 0.0 0.1 0.1 0.4 0.7 0.5 4.8 1.8 3.8 2.8 1.4 1.0 0.7 1.6 1.4 1.0 1.5 2.1 1.8 1.8 1.8 1.6 1.9 2.5 3.1 3.3 4.2
0.1 0.2 0.1 0.1 0.1 0.1 0.0 0.0 0.0 0.1 0.3 0.2 0.2 0.2 0.1 0.0 0.1 0.5 0.6 0.8 2.6 4.3 4.3 5.0 6.9 5.7 4.8 3.5 0.7 1.3 1.6 1.4 0.9 1.3 1.3 1.3 1.7 2.2 1.7 2.6 3.2 2.6 5.3 8.5
0.0 0.0 0.0 0.0 0.1 0.2 0.3 0.2 0.1 0.1 0.2 0.2 1.3 3.0 4.9 4.3 2.0 3.9 5.3 6.0 7.6 8.4 7.2 7.5 6.3 5.0 4.5 2.9 1.0 0.6 1.0 0.9 1.0 1.3 1.1 2.1 1.4 1.1 1.9 2.1 2.1 2.9 4.1 12.8
0.0 0.0 0.0 0.0 0.1 0.1 0.1 0.3 0.5 1.0 3.7 4.4 6.4 8.1 9.2 11.1 10.1 10.7 10.0 12.3 12.5 6.4 8.3 5.2 1.5 1.8 0.9 1.1 0.3 0.7 1.1 2.5 1.1 0.9 1.1 5.1 4.0 1.8 4.1 5.3 4.4 6.9 4.2 5.4
0.1 0.1 0.1 0.1 0.1 0.7 1.3 3.5 3.8 5.2 6.9 7.2 11.8 13.0 10.4 12.6 11.8 11.6 7.6 6.5 5.4 5.0 2.8 1.8 0.7 0.4 0.4 0.3 1.5 0.6 1.7 2.6 1.5 3.2 5.5 2.6 8.4 13.1 9.1 7.7 6.9 8.8 14.5 11.1
1.1 1.7 2.9 4.1 6.9 6.1 6.9 7.3 6.6 7.7 8.0 9.7 10.0 12.5 11.6 8.8 8.4 9.9 5.8 1.9 3.1 1.8 0.5 0.5 0.6 0.8 0.4 0.3 0.4 5.2 4.5 7.6 8.3 5.4 8.6 11.5 14.3 10.3 11.6 13.0 11.9 15.1 17.9 14.4
3.5 4.2 6.3 5.8 6.0 5.3 6.3 5.2 3.6 6.4 6.2 8.9 13.1 14.2 10.4 4.2 5.8 5.0 6.6 1.8 1.6 2.3 1.2 1.2 0.9 3.2 2.4 4.8 1.3 7.3 5.5 4.1 5.7 5.5 6.5 10.4 11.8 18.1 18.3 16.2 17.0 18.8 18.7 18.9
3.4 3.4 4.2 5.8 5.0 4.1 3.1 3.2 5.9 5.1 9.4 8.4 9.3 5.5 3.0 1.6 1.3 2.5 3.3 0.3 0.8 3.5 0.9 3.0 4.5 5.3 5.6 9.3 8.9 10.2 10.3 10.5 10.4 10.0 10.7 16.4 16.1 25.3 15.0 14.3 16.3 16.9 22.5 16.0
3.0 2.4 2.5 2.9 2.1 0.9 1.0 1.0 0.5 1.1 7.3 2.8 4.4 7.2 1.2 4.3 6.2 0.7 1.0 5.7 5.8 14.5 9.0 9.6 8.5 6.1 6.6 11.7 12.3 14.9 13.8 14.8 16.0 18.6 9.5 9.2 23.4 20.2 17.0 23.4 15.3 17.5 19.4 16.7
0.8 0.8 1.1 0.9 0.4 1.1 0.4 0.4 0.5 0.5 0.5 0.7 0.5 0.4 0.4 0.7 6.7 3.9 5.4 5.7 6.5 5.1 8.2 7.9 6.4 7.2 16.0 17.1 17.0 17.7 17.6 15.6 18.4 20.4 14.9 21.0 19.5 27.1 24.8 20.4 23.8 24.0 24.6 21.3
0.1 0.5 0.5 0.1 0.3 0.6 0.6 0.6 1.2 1.2 1.3 6.2 4.5 12.2 8.3 3.3 3.4 3.8 6.3 6.7 4.7 6.1 6.2 15.7 19.2 18.9 17.7 12.2 15.8 16.7 12.9 10.5 14.0 15.0 17.0 16.9 16.4 14.2 17.7 16.2 21.4 25.8 31.4 33.8
0.6 0.2 0.6 0.6 0.6 0.8 0.9 0.7 2.1 4.6 5.8 9.1 8.8 7.9 5.1 9.7 11.4 7.1 7.6 11.4 12.4 12.4 15.4 18.3 16.2 11.3 10.2 15.5 14.0 12.6 11.8 12.8 10.9 9.8 20.0 22.9 22.0 28.6 26.0 25.7 29.0 30.5 28.1 25.1

GFSNGP_prec_sndepth_153.txt.gz
Snowfall_Accumulation
0.0 0.1 0.1 0.2 0.2 0.1 0.8 0.9 4.2 0.2 0.9 0.0 0.0 0.0 0.0 0.0 0.0 0.0 0.0 0.0 0.0 0.0 0.0 0.0 0.0 0.0 0.0 0.0 0.0 0.0 0.0 0.1 0.1 0.1 0.1 0.1 0.1 0.1 0.1 0.0 0.0 0.0 0.0 0.0
0.1 0.0 0.0 0.6 0.0 0.0 0.0 0.1 0.1 0.0 0.1 0.0 0.0 0.0 0.0 0.0 0.0 0.0 0.0 0.0 0.0 0.0 0.0 0.0 0.0 0.0 0.0 0.0 0.1 0.1 0.1 0.8 1.8 0.2 0.4 0.9 0.5 0.6 0.2 0.1 0.2 0.6 0.3 0.2
0.4 0.0 0.0 0.9 0.0 0.0 0.0 0.0 0.0 0.7 0.0 0.0 0.0 0.0 0.0 0.0 0.0 0.0 0.0 0.0 0.0 0.0 0.0 0.0 0.1 0.0 0.1 0.2 0.1 0.3 0.6 0.9 1.5 1.8 1.5 3.2 0.7 0.6 1.3 1.5 0.9 0.9 3.4 1.6
1.3 0.3 5.4 0.0 0.0 0.0 0.0 0.0 0.0 0.0 0.0 0.0 0.0 0.0 0.0 0.0 0.0 0.0 0.0 0.0 0.1 0.1 0.2 0.2 0.1 0.1 0.1 0.3 0.6 0.8 1.9 2.1 1.1 1.6 3.4 1.4 3.4 4.9 4.8 4.6 6.3 7.0 3.5 4.8
3.4 0.9 0.0 0.0 0.1 0.8 0.2 0.1 0.0 0.0 0.0 0.0 0.0 0.0 0.1 0.0 0.0 0.1 0.5 2.3 0.7 0.7 0.7 0.4 0.6 0.6 1.0 1.4 1.1 1.1 4.2 3.8 4.7 4.4 4.8 3.2 5.6 9.6 6.9 5.0 5.0 7.4 8.3 6.9
1.3 0.7 5.8 0.6 0.0 0.0 0.0 1.0 0.0 0.0 0.0 0.0 0.0 0.8 1.4 0.1 0.1 0.3 0.7 1.8 4.4 2.0 1.1 0.5 0.7 0.2 1.5 2.3 2.8 4.5 4.4 4.0 2.4 3.5 5.2 8.2 5.3 5.5 7.6 5.7 6.9 5.4 5.5 6.5
1.0 2.2 0.5 0.0 0.0 0.0 1.1 0.3 0.0 0.0 0.0 0.0 0.6 0.4 1.0 0.5 1.1 0.7 1.6 1.2 0.4 1.7 4.4 2.3 0.4 0.3 1.1 3.1 4.6 5.1 3.2 2.9 2.4 0.9 2.0 3.1 3.3 4.5 4.9 5.7 5.2 6.9 6.8 7.1
3.3 5.3 6.8 0.0 0.0 0.3 0.6 0.1 0.0 0.1 0.1 0.1 0.6 1.9 3.5 3.1 2.3 1.3 1.1 0.5 0.2 0.2 0.7 2.0 1.4 1.4 2.3 1.5 3.1 1.5 2.1 2.1 2.2 2.8 1.8 1.4 1.7 2.6 3.9 5.0 6.1 7.9 7.7 7.6
0.6 1.6 0.1 0.0 0.1 0.0 0.0 0.0 0.1 0.1 0.1 0.1 1.3 3.5 4.2 5.1 3.2 1.7 0.7 0.3 0.1 0.2 0.4 0.4 0.1 0.3 2.6 3.0 0.5 0.7 0.4 1.2 2.1 1.5 1.1 1.3 1.9 2.6 2.0 1.6 2.6 5.5 7.6 10.0
0.2 0.1 0.0 0.0 0.0 0.0 0.0 0.0 0.1 0.1 0.1 0.2 4.6 5.5 5.5 3.3 2.0 0.8 0.3 0.4 0.2 0.2 0.3 0.3 0.2 0.5 0.4 0.3 0.2 0.5 0.3 0.3 0.3 0.4 0.9 0.9 1.2 1.7 2.2 3.0 3.7 4.0 5.1 5.9
0.3 0.1 0.0 0.0 0.0 0.0 0.0 0.1 0.1 0.1 0.2 0.9 1.0 1.5 0.8 1.2 0.9 0.4 0.3 0.3 0.1 0.1 0.1 0.1 0.1 0.2 0.2 0.1 0.0 0.0 0.1 0.1 0.1 0.3 0.2 0.7 2.0 1.8 1.7 4.3 4.0 5.3 7.3 6.6
1.7 0.0 0.0 0.0 0.0 0.0 0.1 0.1 0.1 0.1 0.7 0.6 0.2 0.9 0.3 1.4 1.0 0.3 0.3 0.1 0.1 0.0 0.0 0.1 0.1 0.2 0.1 0.1 0.0 0.1 0.1 0.4 0.6 0.4 0.6 0.6 0.8 1.8 nan nan nan nan nan 4.0
0.3 0.0 0.0 0.0 0.0 0.0 0.0 0.1 0.1 0.1 0.1 0.5 0.5 0.2 0.1 0.4 0.3 nan 0.1 0.1 0.1 0.0 0.0 0.1 0.3 0.4 0.4 1.5 2.1 3.9 3.2 1.9 1.7 1.5 2.8 2.9 2.4 3.5 4.7 7.1 nan nan nan nan
0.0 0.0 0.1 0.1 0.6 0.0 0.0 0.0 0.0 0.1 0.1 0.1 0.1 0.1 0.1 0.1 0.1 0.1 0.0 0.0 0.0 0.1 0.2 0.3 0.3 0.9 0.5 0.2 0.2 1.3 0.8 0.4 1.2 1.5 1.7 1.6 2.0 2.3 2.0 3.2 5.8 5.1 nan nan
0.0 0.0 0.0 0.0 0.0 0.0 0.0 0.0 0.1 0.1 0.2 0.2 0.0 0.1 0.0 0.1 0.1 0.1 0.0 0.0 0.1 0.1 0.3 0.3 0.2 0.7 0.6 1.0 1.3 1.8 0.7 1.9 2.2 2.9 2.8 1.9 1.4 1.5 1.5 2.2 3.0 3.5 2.7 1.6
0.0 0.0 0.0 0.1 0.0 0.0 0.0 0.1 0.1 0.3 0.4 1.9 1.1 0.7 0.1 0.0 0.0 0.0 0.1 0.1 0.4 0.8 0.6 4.9 1.9 3.8 2.8 1.4 1.0 0.7 1.6 1.4 1.0 1.4 2.0 1.7 1.8 1.8 1.6 1.8 2.5 3.0 3.3 4.2
0.1 0.2 0.1 0.1 0.1 0.1 0.0 0.0 0.0 0.1 0.2 0.2 0.2 0.2 0.1 0.0 0.1 0.5 0.7 1.0 2.7 4.3 4.3 5.0 6.9 5.8 4.8 3.4 0.7 1.2 1.6 1.4 0.9 1.3 1.2 1.3 1.6 2.2 1.7 2.6 3.1 2.6 5.2 8.5
0.0 0.0 0.0 0.0 0.1 0.2 0.2 0.2 0.1 0.1 0.2 0.2 1.3 3.0 4.9 4.3 2.0 4.0 5.4 6.2 7.8 8.6 7.3 7.5 6.3 5.0 4.4 2.8 0.9 0.6 1.0 0.9 1.0 1.3 1.1 2.1 1.4 1.0 1.8 2.1 2.1 2.9 4.0 12.8
0.0 0.0 0.0 0.0 0.0 0.1 0.1 0.3 0.5 1.0 3.6 4.3 6.4 8.1 9.1 11.1 10.1 10.7 10.0 12.3 12.5 6.4 8.3 5.3 1.6 1.9 1.0 1.1 0.3 0.7 1.1 2.5 1.1 0.9 1.1 5.1 4.0 1.8 4.0 5.3 4.3 6.9 4.2 5.4
0.1 0.1 0.1 0.1 0.1 0.7 1.3 3.5 3.8 5.2 6.8 7.1 11.7 13.0 10.4 12.6 11.8 11.6 7.6 6.4 5.3 4.9 2.8 1.8 0.8 0.5 0.4 0.4 1.5 0.6 1.7 2.6 1.5 3.2 5.4 2.6 8.3 13.1 9.1 7.6 6.9 8.8 14.4 11.1
1.1 1.7 2.9 4.1 6.9 6.1 6.9 7.3 6.6 7.7 8.0 9.7 10.0 12.5 11.6 8.8 8.4 9.9 5.8 1.9 3.1 1.8 0.5 0.5 0.6 0.8 0.4 0.3 0.4 5.3 4.4 7.6 8.2 5.4 8.6 11.4 14.3 10.3 11.6 12.9 11.9 15.1 17.8 14.3
3.5 4.2 6.3 5.8 6.0 5.3 6.3 5.2 3.6 6.3 6.2 8.9 13.0 14.2 10.4 4.2 5.8 5.0 6.6 1.7 1.6 2.3 1.2 1.2 0.9 3.2 2.4 4.8 1.3 7.3 5.5 4.1 5.6 5.5 6.4 10.3 11.7 18.0 18.2 16.1 17.0 18.8 18.6 18.9
3.4 3.4 4.2 5.8 5.0 4.1 3.1 3.2 5.9 5.1 9.4 8.4 9.3 5.5 3.0 1.5 1.2 2.5 3.3 0.3 0.8 3.5 0.9 2.9 4.5 5.3 5.6 9.3 8.9 10.1 10.3 10.5 10.3 9.9 10.6 16.3 16.1 25.2 14.9 14.3 16.3 16.9 22.4 16.0
2.9 2.4 2.5 2.9 2.1 0.9 1.0 1.0 0.5 1.1 7.3 2.8 4.4 7.2 1.2 4.3 6.2 0.7 1.0 5.7 5.8 14.4 8.9 9.6 8.5 6.1 6.6 11.7 12.3 14.8 13.7 14.8 15.9 18.5 9.5 9.2 23.3 20.2 17.0 23.3 15.3 17.4 19.3 16.6
0.8 0.8 1.1 0.9 0.4 1.1 0.4 0.4 0.5 0.5 0.5 0.7 0.6 0.5 0.4 0.7 6.7 3.9 5.4 5.6 6.5 5.1 8.2 7.9 6.4 7.2 16.0 17.1 16.9 17.6 17.5 15.6 18.3 20.3 14.8 21.0 19.4 27.0 24.7 20.3 23.6 23.8 24.4 21.2
0.1 0.5 0.5 0.1 0.3 0.6 0.6 0.7 1.2 1.2 1.3 6.2 4.5 12.2 8.3 3.4 3.4 3.8 6.3 6.7 4.7 6.1 6.2 15.7 19.2 18.9 17.7 12.1 15.8 16.6 12.8 10.4 13.9 14.9 16.9 16.8 16.3 14.1 17.6 16.1 21.2 25.6 31.3 33.6
0.6 0.2 0.6 0.6 0.6 0.8 0.9 0.7 2.2 4.6 5.8 9.0 8.8 7.9 5.1 9.7 11.4 7.1 7.6 11.4 12.4 12.4 15.4 18.3 16.1 11.3 10.2 15.5 13.9 12.5 11.7 12.8 10.8 9.7 19.9 22.8 21.8 28.4 25.9 25.5 28.9 30.3 27.9 25.0

GFSNGP_prec_sndepth_156.txt.gz
Snowfall_Accumulation
0.1 0.1 0.1 0.3 0.1 0.1 0.7 0.6 3.8 0.1 0.5 0.0 0.0 0.0 0.0 0.0 0.0 0.0 0.0 0.0 0.0 0.0 0.0 0.0 0.0 0.0 0.0 0.0 0.0 0.0 0.0 0.1 0.1 0.1 0.0 0.0 0.0 0.0 0.0 0.0 0.0 0.0 0.0 0.0
0.1 0.0 0.0 0.3 0.0 0.0 0.0 0.0 0.0 0.0 0.1 0.0 0.0 0.0 0.0 0.0 0.0 0.0 0.0 0.0 0.0 0.0 0.0 0.0 0.0 0.0 0.0 0.0 0.1 0.1 0.1 0.6 1.5 0.2 0.2 0.5 0.2 0.3 0.1 0.1 0.1 0.3 0.1 0.1
0.2 0.0 0.0 0.7 0.0 0.0 0.0 0.0 0.0 0.6 0.0 0.0 0.0 0.0 0.0 0.0 0.0 0.0 0.0 0.0 0.0 0.0 0.0 0.0 0.0 0.0 0.0 0.1 0.1 0.2 0.5 0.8 1.5 1.6 1.1 2.8 0.4 0.3 0.9 1.0 0.5 0.6 2.9 1.0
1.1 0.2 5.2 0.0 0.0 0.0 0.0 0.0 0.0 0.0 0.0 0.0 0.0 0.0 0.0 0.0 0.0 0.0 0.0 0.0 0.1 0.1 0.1 0.1 0.1 0.0 0.1 0.2 0.3 0.6 1.7 2.1 1.3 1.5 3.2 1.0 3.2 4.8 4.6 4.1 5.7 6.3 2.9 4.1
3.1 0.7 0.0 0.0 0.0 0.5 0.1 0.0 0.0 0.0 0.0 0.0 0.0 0.0 0.0 0.0 0.0 0.1 0.3 1.8 0.4 0.3 0.3 0.2 0.3 0.3 0.6 0.9 0.8 0.9 4.1 3.9 4.8 4.6 4.8 3.1 5.5 9.5 6.5 4.5 4.4 6.8 7.5 6.1
1.1 0.6 5.7 0.4 0.0 0.0 0.0 0.8 0.0 0.0 0.0 0.0 0.0 0.6 1.0 0.1 0.0 0.1 0.4 1.2 3.8 1.4 0.6 0.3 0.5 0.2 1.2 2.1 2.6 4.4 4.5 4.4 2.8 3.7 5.2 8.2 5.1 5.4 7.1 5.0 6.4 4.7 4.7 5.8
0.9 2.0 0.5 0.0 0.0 0.0 0.9 0.2 0.0 0.0 0.0 0.0 0.5 0.3 0.5 0.3 0.7 0.3 1.0 0.7 0.2 1.3 3.9 1.8 0.3 0.2 1.0 3.0 4.5 5.2 3.6 3.4 2.7 0.9 1.9 3.0 3.1 4.2 4.7 5.4 4.9 6.6 6.4 6.7
2.9 4.9 6.7 0.0 0.0 0.2 0.5 0.0 0.0 0.0 0.1 0.1 0.3 1.2 2.8 2.4 1.6 0.7 0.6 0.2 0.1 0.2 0.5 1.6 1.1 1.1 2.2 1.4 3.0 1.5 2.2 2.1 2.3 2.8 1.6 1.2 1.6 2.5 3.8 4.8 6.0 7.8 7.5 7.1
0.4 1.3 0.0 0.0 0.1 0.0 0.0 0.0 0.0 0.0 0.1 0.1 0.8 2.7 3.2 4.0 2.4 1.1 0.4 0.1 0.1 0.1 0.3 0.3 0.1 0.2 2.5 3.2 0.8 0.8 0.4 1.0 2.0 1.2 0.8 1.1 1.7 2.5 1.8 1.4 2.4 5.2 7.0 9.3
0.2 0.0 0.0 0.0 0.0 0.0 0.0 0.0 0.0 0.0 0.0 0.1 3.8 4.7 4.4 2.5 1.3 0.5 0.2 0.2 0.1 0.2 0.3 0.2 0.1 0.4 0.5 0.5 0.6 0.8 0.5 0.3 0.2 0.3 0.8 0.7 1.0 1.5 2.0 2.8 3.4 3.5 4.5 5.2
0.1 0.0 0.0 0.0 0.0 0.0 0.0 0.0 0.0 0.1 0.1 0.4 0.5 0.8 0.4 0.7 0.5 0.2 0.2 0.2 0.1 0.1 0.1 0.1 0.1 0.3 0.3 0.4 0.4 0.2 0.1 0.1 0.1 0.3 0.2 0.7 1.9 1.6 1.5 3.7 3.4 4.6 6.5 6.0
1.4 0.0 0.0 0.0 0.0 0.0 0.0 0.1 0.0 0.1 0.3 0.3 0.1 0.4 0.2 0.8 0.5 0.2 0.2 0.1 0.1 0.0 0.0 0.1 0.1 0.2 0.1 0.1 0.0 0.1 0.2 0.4 0.6 0.5 0.6 0.6 0.8 1.8 nan nan nan nan nan 3.6
0.2 0.0 0.0 0.0 0.0 0.0 0.0 0.0 0.0 0.1 0.1 0.2 0.2 0.1 0.1 0.2 0.2 nan 0.1 0.1 0.0 0.0 0.0 0.0 0.2 0.3 0.3 1.3 1.9 3.9 3.2 2.0 1.8 1.5 2.7 2.9 2.4 3.5 4.6 6.9 nan nan nan nan
0.0 0.0 0.1 0.0 0.5 0.0 0.0 0.0 0.0 0.0 0.0 0.0 0.1 0.0 0.0 0.1 0.0 0.0 0.0 0.0 0.0 0.0 0.2 0.3 0.3 0.8 0.5 0.3 0.3 1.4 0.9 0.4 1.3 1.5 1.7 1.6 1.9 2.3 1.9 3.1 5.7 5.1 nan nan
0.0 0.0 0.0 0.0 0.0 0.0 0.0 0.0 0.0 0.1 0.1 0.1 0.0 0.0 0.0 0.0 0.0 0.1 0.0 0.0 0.0 0.1 0.3 0.3 0.2 0.5 0.5 0.8 1.2 1.9 0.8 2.0 2.2 2.7 2.7 1.8 1.3 1.4 1.4 2.1 2.8 3.5 2.7 1.6
0.0 0.0 0.0 0.0 0.0 0.0 0.0 0.0 0.0 0.1 0.2 1.3 0.6 0.4 0.1 0.0 0.0 0.0 0.1 0.1 0.4 0.7 0.4 4.6 1.5 3.2 2.3 1.1 1.0 0.8 1.6 1.3 0.9 1.4 1.9 1.6 1.6 1.7 1.4 1.7 2.3 2.9 3.2 4.1
0.1 0.1 0.1 0.1 0.0 0.0 0.0 0.0 0.0 0.1 0.1 0.1 0.1 0.1 0.0 0.0 0.1 0.3 0.4 0.7 2.2 3.6 3.6 4.4 6.3 5.4 4.4 3.0 0.6 1.2 1.5 1.3 0.8 1.2 1.1 1.1 1.5 2.0 1.5 2.5 3.0 2.5 5.1 8.4
0.0 0.0 0.0 0.0 0.0 0.1 0.1 0.1 0.1 0.1 0.1 0.1 0.9 2.5 4.4 3.8 1.4 3.2 4.4 5.2 6.9 7.8 6.1 6.3 5.6 4.7 4.0 2.3 0.7 0.6 0.9 0.9 0.9 1.2 1.0 1.9 1.2 1.0 1.7 2.0 2.0 2.8 3.9 12.7
0.0 0.0 0.0 0.0 0.0 0.1 0.1 0.1 0.2 0.6 3.0 3.5 5.5 7.1 8.2 10.1 8.7 9.2 8.8 11.6 11.8 5.7 7.2 4.5 1.4 1.5 0.7 0.8 0.2 0.6 0.9 2.2 1.0 0.8 1.0 5.0 3.8 1.7 4.0 5.2 4.3 6.8 4.1 5.3
0.1 0.0 0.0 0.1 0.1 0.5 0.9 3.1 3.3 4.4 5.8 6.1 10.2 11.8 9.3 11.9 11.1 11.0 6.9 5.5 3.8 3.8 2.2 1.3 0.5 0.3 0.3 0.3 1.3 0.5 1.4 2.2 1.3 2.8 5.0 2.3 8.1 13.0 9.0 7.6 6.8 8.7 14.3 11.0
0.7 1.3 2.6 3.8 6.4 5.7 6.5 6.8 6.1 6.9 7.0 8.6 9.0 11.5 10.7 8.2 8.1 9.5 5.4 1.6 2.2 1.4 0.3 0.4 0.5 0.7 0.3 0.2 0.4 4.7 4.0 7.0 7.5 4.8 8.0 11.1 14.2 10.2 11.5 12.8 11.8 15.0 17.7 14.2
3.0 3.9 6.0 5.6 5.7 4.8 5.8 4.4 2.9 6.0 5.7 8.2 12.3 13.8 10.4 4.0 5.6 4.6 6.2 1.4 1.3 2.2 1.0 1.0 0.8 2.9 2.2 4.7 1.2 6.8 5.1 3.7 5.2 5.1 6.2 10.2 11.6 17.8 17.9 15.8 16.7 18.6 18.5 18.7
2.8 2.8 3.8 5.5 4.5 3.3 2.4 2.6 5.2 4.6 8.9 8.1 9.2 5.3 2.7 1.4 1.1 2.3 2.9 0.2 0.6 3.3 0.8 2.4 4.2 5.2 5.6 8.4 8.2 9.7 9.6 9.8 9.7 9.3 9.9 15.4 15.1 24.2 14.0 13.6 15.9 16.7 22.2 15.8
2.3 1.8 1.9 2.4 1.6 0.6 0.7 0.7 0.3 0.9 6.7 2.6 4.2 7.0 0.9 3.8 5.7 0.6 0.8 5.6 5.5 13.9 7.9 8.6 8.2 6.1 6.6 10.9 11.4 13.7 12.5 13.4 14.6 17.1 8.4 9.0 21.9 19.1 15.9 22.8 15.1 17.3 19.1 16.5
0.6 0.6 0.8 0.6 0.3 0.9 0.3 0.3 0.5 0.5 0.5 0.6 0.4 0.4 0.3 0.6 5.6 3.2 4.6 4.9 6.3 4.6 7.3 7.7 6.4 7.2 14.9 15.9 15.7 16.4 16.3 14.1 16.7 18.8 13.7 19.7 18.3 26.0 23.4 20.0 23.4 23.5 24.2 21.0
0.1 0.5 0.4 0.1 0.3 0.5 0.6 0.6 1.1 1.1 1.2 5.7 4.0 11.5 7.6 2.9 2.9 3.2 5.5 6.3 4.2 5.9 5.4 14.9 18.5 18.3 17.0 11.7 15.2 15.7 11.7 9.3 12.7 13.7 15.9 15.7 15.4 13.2 17.4 15.9 21.0 25.4 31.0 33.3
0.5 0.2 0.6 0.6 0.6 0.7 0.8 0.6 2.0 4.2 5.4 8.2 7.8 7.3 4.7 8.9 10.4 6.5 7.2 10.4 11.3 11.6 14.6 17.6 15.3 10.9 9.9 15.0 13.5 11.9 11.0 12.0 10.5 8.9 18.9 21.6 21.0 27.8 25.6 25.3 28.6 30.0 27.7 24.8

GFSNGP_prec_sndepth_162.txt.gz
Snowfall_Accumulation
0.0 0.0 0.0 0.1 0.1 0.1 0.2 0.2 3.1 0.0 0.2 0.0 0.0 0.0 0.0 0.0 0.0 0.0 0.0 0.0 0.0 0.0 0.0 0.0 0.0 0.0 0.0 0.0 0.0 0.0 0.0 0.0 0.1 0.0 0.0 0.0 0.0 0.0 0.0 0.0 0.0 0.0 0.0 0.0
0.0 0.0 0.0 0.1 0.0 0.0 0.0 0.0 0.0 0.0 0.0 0.0 0.0 0.0 0.0 0.0 0.0 0.0 0.0 0.0 0.0 0.0 0.0 0.0 0.0 0.0 0.0 0.0 0.0 0.0 0.0 0.2 0.8 0.1 0.1 0.3 0.2 0.1 0.0 0.0 0.0 0.1 0.1 0.0
0.1 0.0 0.0 0.7 0.0 0.0 0.0 0.0 0.0 0.3 0.0 0.0 0.0 0.0 0.0 0.0 0.0 0.0 0.0 0.0 0.0 0.0 0.0 0.0 0.0 0.0 0.0 0.0 0.0 0.1 0.2 0.3 0.9 1.1 0.9 2.0 0.2 0.1 0.4 0.4 0.2 0.2 1.8 0.4
0.7 0.1 4.4 0.0 0.0 0.0 0.0 0.0 0.0 0.0 0.0 0.0 0.0 0.0 0.0 0.0 0.0 0.0 0.0 0.0 0.0 0.0 0.0 0.0 0.0 0.0 0.0 0.1 0.1 0.2 0.7 1.3 0.7 1.1 3.0 0.7 2.4 4.0 3.4 2.6 4.2 4.8 2.0 3.0
2.5 0.5 0.0 0.0 0.0 0.1 0.0 0.0 0.0 0.0 0.0 0.0 0.0 0.0 0.0 0.0 0.0 0.0 0.1 0.9 0.1 0.1 0.1 0.1 0.1 0.1 0.1 0.2 0.3 0.4 3.0 3.0 4.2 4.4 5.0 3.0 5.5 8.9 5.2 3.3 3.2 5.6 6.2 5.2
0.9 0.4 5.0 0.1 0.0 0.0 0.0 0.6 0.0 0.0 0.0 0.0 0.0 0.4 0.6 0.0 0.0 0.0 0.1 0.3 2.6 0.6 0.1 0.1 0.1 0.1 0.4 1.1 1.8 3.5 3.6 3.6 2.5 3.8 5.3 8.3 4.7 4.8 6.0 3.7 5.0 3.8 4.1 4.8
0.6 1.2 0.3 0.0 0.0 0.0 0.5 0.1 0.0 0.0 0.0 0.0 0.3 0.1 0.1 0.1 0.2 0.1 0.3 0.2 0.1 0.6 2.9 0.9 0.1 0.1 0.5 2.2 3.3 4.3 3.0 3.2 2.9 1.2 2.3 3.1 2.8 3.5 4.0 4.7 4.3 5.9 5.6 6.4
1.9 3.2 6.0 0.0 0.0 0.0 0.3 0.0 0.0 0.0 0.0 0.0 0.1 0.3 1.5 1.1 0.5 0.2 0.1 0.1 0.0 0.1 0.2 1.0 0.5 0.5 1.4 1.0 2.3 1.2 2.2 2.3 2.6 3.3 1.9 1.2 1.6 2.2 3.4 4.5 5.6 7.3 6.9 6.8
0.2 0.8 0.0 0.0 0.0 0.0 0.0 0.0 0.0 0.0 0.0 0.0 0.1 1.2 1.8 1.9 0.9 0.3 0.1 0.0 0.0 0.0 0.1 0.2 0.1 0.1 1.9 2.5 0.6 0.8 0.7 1.3 2.4 1.5 0.9 1.1 1.7 2.4 1.6 0.9 1.9 4.3 6.0 8.4
0.1 0.0 0.0 0.0 0.0 0.0 0.0 0.0 0.0 0.0 0.0 0.0 2.2 3.3 2.7 1.0 0.4 0.1 0.0 0.0 0.0 0.0 0.1 0.1 0.1 0.2 0.3 0.4 0.5 1.1 0.9 0.9 0.8 0.7 0.9 0.8 1.0 1.2 1.5 2.2 2.7 2.7 3.7 4.4
0.1 0.0 0.0 0.0 0.0 0.0 0.0 0.0 0.0 0.0 0.0 0.1 0.1 0.1 0.1 0.2 0.1 0.0 0.0 0.0 0.0 0.0 0.0 0.0 0.1 0.2 0.2 0.3 0.3 0.5 0.5 0.6 0.7 0.9 0.6 0.9 1.5 1.4 1.2 2.2 2.5 3.6 5.2 4.8
0.9 0.0 0.0 0.0 0.0 0.0 0.0 0.0 0.0 0.0 0.1 0.0 0.0 0.1 0.0 0.1 0.1 0.0 0.0 0.0 0.0 0.0 0.0 0.0 0.0 0.1 0.1 0.0 0.1 0.2 0.4 0.8 0.9 0.8 1.0 0.9 0.9 1.8 nan nan nan nan nan 3.0
0.1 0.0 0.0 0.0 0.0 0.0 0.0 0.0 0.0 0.0 0.0 0.0 0.0 0.0 0.0 0.0 0.0 nan 0.0 0.0 0.0 0.0 0.0 0.0 0.1 0.2 0.2 0.8 1.3 3.1 2.4 1.5 1.9 1.6 2.9 3.0 2.5 3.5 4.7 6.8 nan nan nan nan
0.0 0.0 0.0 0.0 0.3 0.0 0.0 0.0 0.0 0.0 0.0 0.0 0.0 0.0 0.0 0.0 0.0 0.0 0.0 0.0 0.0 0.0 0.1 0.1 0.2 0.4 0.3 0.2 0.2 0.9 0.6 0.1 1.2 1.5 1.8 1.8 2.1 2.3 1.9 3.0 5.5 4.9 nan nan
0.0 0.0 0.0 0.0 0.0 0.0 0.0 0.0 0.0 0.0 0.0 0.0 0.0 0.0 0.0 0.0 0.0 0.0 0.0 0.0 0.0 0.0 0.1 0.1 0.1 0.3 0.3 0.5 0.7 1.2 0.8 1.7 2.0 2.4 2.5 1.7 1.2 1.3 1.2 1.9 2.5 3.4 2.6 1.5
0.0 0.0 0.0 0.0 0.0 0.0 0.0 0.0 0.0 0.0 0.1 0.3 0.1 0.1 0.0 0.0 0.0 0.0 0.0 0.0 0.2 0.4 0.2 3.5 0.8 1.8 1.3 0.7 0.7 0.8 1.4 0.9 0.8 1.3 1.8 1.5 1.5 1.5 1.2 1.5 2.0 2.8 3.0 3.9
0.0 0.0 0.0 0.0 0.0 0.0 0.0 0.0 0.0 0.0 0.0 0.0 0.0 0.0 0.0 0.0 0.0 0.1 0.2 0.2 1.2 2.1 2.1 2.6 4.1 3.8 3.3 2.1 0.5 1.2 1.4 1.3 0.5 1.2 1.1 1.0 1.3 1.7 1.3 2.0 2.5 2.1 4.7 8.1
0.0 0.0 0.0 0.0 0.0 0.0 0.0 0.0 0.0 0.0 0.0 0.0 0.3 1.2 2.8 2.4 0.5 1.5 2.4 3.1 4.9 5.7 3.8 4.0 3.7 3.4 2.8 1.4 0.4 0.6 0.9 0.9 0.9 1.1 0.8 1.7 1.0 0.7 1.4 1.6 1.7 2.4 3.6 12.5
0.0 0.0 0.0 0.0 0.0 0.0 0.0 0.0 0.1 0.2 1.8 1.9 3.6 4.7 5.5 7.2 5.9 6.4 6.3 9.1 9.4 4.1 5.1 2.9 0.9 0.7 0.4 0.4 0.1 0.5 0.8 1.8 0.8 0.6 0.8 4.7 3.1 1.3 3.3 4.5 3.7 6.1 3.6 5.3
0.0 0.0 0.0 0.0 0.0 0.1 0.2 1.8 1.9 2.7 3.8 4.0 7.7 9.0 6.7 9.0 8.3 8.5 5.0 3.8 2.0 2.6 1.2 0.8 0.3 0.2 0.2 0.1 1.0 0.4 1.1 1.9 1.0 2.1 4.1 1.8 6.9 11.7 7.7 7.4 5.9 8.1 14.1 10.8
0.2 0.5 1.5 2.5 4.8 4.2 5.0 5.1 4.3 4.7 4.8 6.4 6.6 8.9 8.2 6.0 6.1 7.7 4.2 1.4 1.3 0.6 0.2 0.2 0.3 0.6 0.3 0.2 0.3 3.5 3.1 5.8 6.0 3.7 6.8 9.7 13.2 9.4 10.7 12.2 11.5 14.4 17.5 14.1
1.7 2.5 4.5 4.2 4.2 3.2 4.2 2.9 1.6 4.2 4.0 6.2 9.7 11.1 8.4 3.1 4.5 3.6 4.5 0.9 1.0 1.4 0.8 0.8 0.6 2.5 1.9 4.1 0.9 5.3 4.0 3.0 4.2 4.1 5.1 9.1 10.3 16.6 17.7 15.6 16.4 18.0 17.8 18.6
1.5 1.5 2.4 4.0 3.1 2.2 1.6 1.7 3.9 3.3 6.9 6.2 7.2 3.9 1.9 1.1 0.8 1.9 2.4 0.1 0.5 2.6 0.6 1.9 3.6 4.6 5.0 6.6 6.5 7.9 7.9 8.1 8.0 7.6 8.2 13.2 12.9 21.7 12.3 12.4 14.9 15.7 21.8 15.7
1.2 0.8 1.0 1.4 0.8 0.2 0.4 0.4 0.2 0.5 5.0 1.7 3.0 5.4 0.4 2.9 4.4 0.5 0.6 4.7 4.6 11.8 6.1 7.0 6.9 5.5 6.1 9.2 9.7 12.0 10.5 11.5 12.5 14.2 6.7 8.3 18.6 16.1 12.9 19.4 13.4 15.2 18.5 16.3
0.3 0.3 0.3 0.2 0.1 0.7 0.1 0.1 0.3 0.3 0.3 0.4 0.2 0.2 0.1 0.5 3.8 2.2 3.4 3.6 5.6 3.6 5.6 7.0 5.9 6.7 12.3 13.7 13.3 14.1 13.4 11.3 13.3 15.4 11.1 17.0 15.5 23.1 19.7 17.1 21.1 22.2 23.8 20.7
0.0 0.4 0.3 0.0 0.2 0.4 0.4 0.5 0.8 0.8 0.9 4.5 3.0 8.7 5.7 2.2 2.2 2.4 4.4 5.4 3.1 5.1 4.5 13.0 17.0 16.8 14.4 9.9 13.1 13.7 10.1 7.6 10.3 10.9 13.2 13.1 12.8 10.8 15.8 14.4 20.4 25.0 30.4 32.8
0.4 0.1 0.5 0.4 0.4 0.5 0.6 0.5 1.5 3.0 3.9 5.9 5.5 5.5 3.7 7.0 8.6 5.5 6.6 8.8 9.4 9.4 12.6 16.1 13.9 10.2 8.2 12.9 12.1 10.6 9.7 10.0 9.6 7.5 16.2 19.0 18.3 25.1 24.1 24.1 28.0 29.1 27.2 24.4

GFSNGP_prec_sndepth_168.txt.gz
Snowfall_Accumulation
0.0 0.0 0.0 0.1 0.0 0.0 0.2 0.1 3.3 0.0 0.2 0.0 0.0 0.0 0.0 0.0 0.0 0.0 0.0 0.0 0.0 0.0 0.0 0.0 0.0 0.0 0.0 0.0 0.0 0.0 0.0 0.0 0.0 0.0 0.0 0.0 0.0 0.0 0.0 0.0 0.0 0.0 0.0 0.1
0.0 0.0 0.0 0.1 0.0 0.0 0.0 0.0 0.0 0.0 0.0 0.0 0.0 0.0 0.0 0.0 0.0 0.0 0.0 0.0 0.0 0.0 0.0 0.0 0.0 0.0 0.0 0.0 0.0 0.0 0.0 0.2 0.5 0.1 0.1 0.2 0.1 0.1 0.1 0.3 0.2 0.4 0.4 0.5
0.1 0.0 0.0 0.7 0.0 0.0 0.0 0.0 0.0 0.3 0.0 0.0 0.0 0.0 0.0 0.0 0.0 0.0 0.0 0.0 0.0 0.0 0.0 0.0 0.0 0.0 0.0 0.0 0.0 0.1 0.1 0.2 0.5 0.7 0.7 1.7 0.6 0.7 1.1 1.0 0.8 1.0 2.5 0.9
0.7 0.1 5.8 0.0 0.0 0.0 0.0 0.0 0.0 0.0 0.0 0.0 0.0 0.0 0.0 0.0 0.0 0.0 0.0 0.0 0.0 0.0 0.0 0.0 0.0 0.0 0.0 0.0 0.1 0.1 0.5 0.9 0.5 0.8 2.5 0.9 2.8 4.1 3.8 3.4 5.3 5.7 2.3 3.5
4.7 0.9 0.0 0.0 0.0 0.1 0.0 0.0 0.0 0.0 0.0 0.0 0.0 0.0 0.0 0.0 0.0 0.0 0.0 0.6 0.1 0.1 0.1 0.1 0.1 0.1 0.1 0.2 0.2 0.3 2.2 2.3 3.4 3.5 4.4 2.7 5.3 8.7 5.8 3.8 4.0 6.2 6.5 5.5
1.8 1.7 6.3 0.1 0.0 0.0 0.0 0.6 0.0 0.0 0.0 0.0 0.0 0.4 0.6 0.0 0.0 0.0 0.1 0.3 2.3 0.5 0.1 0.1 0.1 0.1 0.3 0.9 1.4 2.8 2.9 2.9 1.9 3.2 4.8 8.0 4.6 5.1 6.5 4.2 5.5 4.2 4.9 5.4
1.3 2.6 1.0 0.0 0.0 0.0 0.7 0.1 0.0 0.0 0.0 0.0 0.3 0.1 0.1 0.1 0.1 0.1 0.3 0.1 0.0 0.5 2.5 0.6 0.1 0.1 0.3 1.8 2.8 3.7 2.5 2.8 2.6 1.0 2.1 2.9 2.9 3.7 4.3 5.0 4.5 6.1 5.8 6.7
2.9 3.8 7.1 0.0 0.0 0.0 0.3 0.0 0.0 0.0 0.0 0.0 0.1 0.3 1.2 0.8 0.5 0.1 0.1 0.0 0.0 0.1 0.2 0.8 0.4 0.3 1.1 0.7 1.9 0.9 1.9 2.2 2.5 3.2 1.9 1.4 1.8 2.7 4.1 5.0 6.1 7.7 7.1 7.2
0.3 1.7 0.0 0.0 0.0 0.0 0.0 0.0 0.0 0.0 0.0 0.0 0.1 1.1 1.5 1.6 0.7 0.2 0.1 0.0 0.0 0.0 0.1 0.1 0.1 0.1 1.6 2.1 0.5 0.7 0.6 1.3 2.4 1.5 1.3 1.6 2.3 3.4 2.8 1.9 2.7 5.0 6.7 8.9
0.3 0.0 0.0 0.0 0.0 0.0 0.0 0.0 0.0 0.0 0.0 0.0 1.9 2.9 2.5 0.9 0.3 0.1 0.0 0.0 0.0 0.0 0.1 0.1 0.1 0.2 0.3 0.3 0.4 1.0 0.9 1.0 1.0 1.1 1.6 1.6 2.0 2.4 2.6 3.2 3.5 3.4 4.1 4.6
0.4 0.0 0.0 0.0 0.0 0.0 0.0 0.0 0.0 0.0 0.0 0.1 0.1 0.1 0.1 0.1 0.1 0.0 0.0 0.0 0.0 0.0 0.0 0.0 0.1 0.1 0.2 0.2 0.3 0.6 0.5 0.7 1.0 1.2 1.2 1.6 2.1 2.0 1.6 2.4 2.6 3.8 5.4 4.9
1.7 0.1 0.3 0.0 0.0 0.0 0.0 0.0 0.0 0.0 0.0 0.0 0.0 0.0 0.0 0.1 0.1 0.0 0.0 0.0 0.0 0.0 0.0 0.0 0.0 0.1 0.1 0.0 0.0 0.2 0.4 0.9 1.1 1.0 1.4 1.3 1.4 2.7 nan nan nan nan nan 3.0
0.1 0.0 0.0 0.0 0.0 0.0 0.0 0.0 0.0 0.0 0.0 0.0 0.0 0.0 0.0 0.0 0.0 nan 0.0 0.0 0.0 0.0 0.0 0.0 0.1 0.2 0.2 0.8 1.4 3.1 2.5 1.6 2.1 1.8 3.1 3.2 2.9 3.7 5.1 7.8 nan nan nan nan
0.0 0.0 0.0 0.0 0.2 0.0 0.0 0.0 0.0 0.0 0.0 0.0 0.0 0.0 0.0 0.0 0.0 0.0 0.0 0.0 0.0 0.0 0.0 0.1 0.2 0.4 0.3 0.2 0.3 1.0 0.7 0.1 1.4 1.7 1.9 2.0 2.2 2.4 2.1 3.1 5.7 5.2 nan nan
0.0 0.0 0.0 0.0 0.0 0.0 0.0 0.0 0.0 0.0 0.0 0.0 0.0 0.0 0.0 0.0 0.0 0.0 0.0 0.0 0.0 0.0 0.1 0.1 0.1 0.3 0.3 0.5 0.8 1.4 0.9 1.9 2.1 2.7 2.7 1.9 1.3 1.4 1.4 2.0 2.5 3.4 2.7 1.7
0.0 0.0 0.0 0.0 0.0 0.0 0.0 0.0 0.0 0.0 0.0 0.3 0.1 0.1 0.0 0.0 0.0 0.0 0.0 0.0 0.2 0.4 0.2 3.5 0.8 1.7 1.2 0.6 0.7 1.1 1.5 0.9 0.9 1.5 2.0 1.8 1.6 1.6 1.4 1.6 2.2 2.9 3.1 3.9
0.0 0.1 0.0 0.0 0.0 0.0 0.0 0.0 0.0 0.0 0.0 0.0 0.0 0.0 0.0 0.0 0.0 0.1 0.2 0.3 1.2 2.1 2.1 2.6 4.0 3.4 3.0 1.9 0.6 1.3 1.4 1.5 0.6 1.3 1.3 1.1 1.3 1.8 1.3 2.1 2.5 2.1 4.7 8.1
0.0 0.0 0.0 0.0 0.0 0.0 0.0 0.0 0.0 0.0 0.0 0.0 0.3 1.2 2.8 2.4 0.5 1.5 2.4 3.1 4.8 5.6 3.8 4.0 3.7 3.5 2.8 1.4 0.5 0.7 0.9 1.1 1.1 1.2 0.9 1.8 1.0 0.7 1.4 1.6 1.7 2.4 3.6 12.5
0.0 0.0 0.0 0.0 0.0 0.0 0.0 0.1 0.1 0.2 1.7 1.9 3.5 4.5 5.3 6.8 5.5 5.9 5.9 8.8 9.4 4.1 5.1 2.9 0.9 0.7 0.4 0.5 0.2 0.5 0.8 1.9 0.9 0.7 0.8 4.7 3.1 1.3 3.3 4.5 3.7 6.1 3.6 5.2
0.0 0.0 0.0 0.0 0.0 0.1 0.2 1.7 1.9 2.6 3.5 3.7 7.0 8.1 6.0 7.9 7.2 8.0 4.9 3.8 2.0 2.6 1.2 0.8 0.3 0.2 0.2 0.1 1.0 0.4 1.1 1.9 1.1 2.1 4.2 1.8 6.9 11.7 7.7 7.4 5.9 8.1 14.0 10.8
0.2 0.5 1.5 2.5 4.7 4.1 4.9 4.8 4.0 4.5 4.3 5.7 6.1 8.2 7.4 5.3 5.5 7.1 4.2 1.4 1.3 0.6 0.2 0.2 0.3 0.6 0.3 0.2 0.4 3.5 3.1 5.8 6.0 3.7 6.8 9.7 13.2 9.4 10.7 12.2 11.5 14.4 17.4 14.0
1.5 2.4 4.5 4.2 4.2 3.1 4.2 2.9 1.5 4.1 3.8 5.8 8.7 9.6 7.9 3.1 4.5 3.6 4.5 0.9 1.0 1.4 0.8 0.8 0.6 2.5 1.9 4.1 1.0 5.3 4.0 3.0 4.2 4.1 5.1 9.1 10.3 16.5 17.6 15.6 16.4 17.9 17.8 18.5
1.4 1.4 2.3 3.9 3.1 2.1 1.6 1.7 3.8 3.2 6.7 5.9 6.7 3.8 1.9 1.1 0.8 1.9 2.4 0.1 0.5 2.6 0.6 1.8 3.6 4.6 5.0 6.6 6.6 7.9 7.9 8.2 8.0 7.6 8.2 13.2 12.9 21.6 12.3 12.4 14.9 15.6 21.7 15.7
1.2 0.7 1.0 1.3 0.8 0.2 0.4 0.4 0.2 0.5 4.9 1.8 3.0 5.2 0.4 2.9 4.3 0.5 0.6 4.7 4.6 11.8 6.0 7.0 6.9 5.5 6.1 9.1 9.7 12.1 10.5 11.5 12.5 14.2 6.8 8.3 18.6 16.1 12.9 19.3 13.4 15.2 18.4 16.2
0.3 0.2 0.3 0.2 0.1 0.6 0.1 0.1 0.3 0.5 0.6 0.6 0.5 0.5 0.3 0.6 3.8 2.2 3.2 3.5 5.6 3.6 5.6 7.0 5.9 6.7 12.2 13.6 13.2 14.0 13.5 11.3 13.2 15.4 11.1 16.9 15.5 23.0 19.6 17.0 21.0 22.0 23.6 20.6
0.0 0.4 0.3 0.0 0.2 0.4 0.4 0.4 0.8 0.8 0.9 4.4 3.0 8.4 5.5 2.2 2.2 2.4 4.3 5.4 3.1 5.1 4.5 13.0 16.9 16.7 14.4 9.9 13.0 13.7 10.1 7.7 10.3 10.9 13.2 13.0 12.8 10.8 15.8 14.3 20.2 24.7 30.1 32.5
0.4 0.1 0.4 0.4 0.4 0.5 0.6 0.5 1.5 2.9 3.8 5.7 5.4 5.2 3.5 6.9 8.5 5.5 6.6 8.9 9.5 9.4 12.6 16.0 13.8 10.2 8.2 12.8 12.1 10.6 9.7 10.0 9.6 7.5 16.2 18.9 18.2 24.9 24.0 23.9 27.7 28.8 26.9 24.2